[[{"header":{"parameterUnit":"m.s-1","parameterCategory":1,"la1":30.6,"la2":28.766,"lo1":-90.7593,"lo2":-88.6598,"dy":0.0162,"dx":0.0183,"nx":116,"ny":114,"refTime":"2024-02-25T18:00:00:Z","depth":0,"parameterNumber":2,"parameterNumberName":"U-component_of_WINDS"},"data":[0.0,0.0,0.0,0.0,0.0,0.0,0.0,0.0,0.0,0.0,0.0,0.0,0.0,0.0,0.0,0.0,0.0,0.0,0.0,0.0,0.0,0.0,0.0,0.0,0.0,0.0,0.0,0.0,0.0,0.0,0.0,0.0,0.0,0.0,0.0,0.0,0.0,0.0,0.0,0.0,0.0,0.0,0.0,0.0,0.0,0.0,0.0,0.0,0.0,0.0,0.0,0.0,0.0,0.0,0.0,0.0,0.0,0.0,0.0,0.0,0.0,0.0,0.0,0.0,0.0,0.0,0.0,0.0,0.0,0.0,0.0,0.0,0.0,0.0,0.0,0.0,0.0,0.0,0.0,0.0,0.0,0.0,0.0,0.0,0.0,0.0,0.0,0.0,0.0,0.0,0.0,0.0,0.0,0.0,0.0,0.0,0.0,0.0,0.0,0.0,0.0,0.0,0.0,0.0,0.0,0.0,0.0,0.0,0.0,0.0,0.0,0.0,0.0,0.0,0.0,0.0,0.0,0.0,0.0,0.0,0.0,0.0,0.0,0.0,0.0,0.0,0.0,0.0,0.0,0.0,0.0,0.0,0.0,0.0,0.0,0.0,0.0,0.0,0.0,0.0,0.0,0.0,0.0,0.0,0.0,0.0,0.0,0.0,0.0,0.0,0.0,0.0,0.0,0.0,0.0,0.0,0.0,0.0,0.0,0.0,0.0,0.0,0.0,0.0,0.0,0.0,0.0,0.0,0.0,0.0,0.0,0.0,0.0,0.0,0.0,0.0,0.0,0.0,0.0,0.0,0.0,0.0,0.0,0.0,0.0,0.0,0.0,0.0,0.0,0.0,0.0,0.0,0.0,0.0,0.0,0.0,0.0,0.0,0.0,0.0,0.0,0.0,0.0,0.0,0.0,0.0,0.0,0.0,0.0,0.0,0.0,0.0,0.0,0.0,0.0,0.0,0.0,0.0,0.0,0.0,0.0,0.0,0.0,0.0,0.0,0.0,0.0,0.0,0.0,0.0,0.0,0.0,0.0,0.0,0.0,0.0,0.0,0.0,0.0,0.0,0.0,0.0,0.0,0.0,0.0,0.0,0.0,0.0,0.0,0.0,0.0,0.0,0.0,0.0,0.0,0.0,0.0,0.0,0.0,0.0,0.0,0.0,0.0,0.0,0.0,0.0,0.0,0.0,0.0,0.0,0.0,0.0,0.0,0.0,0.0,0.0,0.0,0.0,0.0,0.0,0.0,0.0,0.0,0.0,0.0,0.0,0.0,0.0,0.0,0.0,0.0,0.0,0.0,0.0,0.0,0.0,0.0,0.0,0.0,0.0,0.0,0.0,0.0,0.0,0.0,0.0,0.0,0.0,0.0,0.0,0.0,0.0,0.0,0.0,0.0,0.0,0.0,0.0,0.0,0.0,0.0,0.0,0.0,0.0,0.0,0.0,0.0,0.0,0.0,0.0,0.0,0.0,0.0,0.0,0.0,0.0,0.0,0.0,0.0,0.0,0.0,0.0,0.0,0.0,0.0,0.0,0.0,0.0,0.0,0.0,0.0,0.0,0.0,0.0,0.0,0.0,0.0,0.0,0.0,0.0,0.0,0.0,0.0,0.0,0.0,0.0,0.0,0.0,0.0,0.0,0.0,0.0,0.0,0.0,0.0,0.0,0.0,0.0,0.0,0.0,0.0,0.0,0.0,0.0,0.0,0.0,0.0,0.0,0.0,0.0,0.0,0.0,0.0,0.0,0.0,0.0,0.0,0.0,0.0,0.0,0.0,0.0,0.0,0.0,0.0,0.0,0.0,0.0,0.0,0.0,0.0,0.0,0.0,0.0,0.0,0.0,0.0,0.0,0.0,0.0,0.0,0.0,0.0,0.0,0.0,0.0,0.0,0.0,0.0,0.0,0.0,0.0,0.0,0.0,0.0,0.0,0.0,0.0,0.0,0.0,0.0,0.0,0.0,0.0,0.0,0.0,0.0,0.0,0.0,0.0,0.0,0.0,0.0,0.0,0.0,0.0,0.0,0.0,0.0,0.0,0.0,0.0,0.0,0.0,0.0,0.0,0.0,0.0,0.0,0.0,0.0,0.0,0.0,0.0,0.0,0.0,0.0,0.0,0.0,0.0,0.0,0.0,0.0,0.0,0.0,0.0,0.0,0.0,0.0,0.0,0.0,0.0,0.0,0.0,0.0,0.0,0.0,0.0,0.0,0.0,0.0,0.0,0.0,0.0,0.0,0.0,0.0,0.0,0.0,0.0,0.0,0.0,0.0,0.0,0.0,0.0,0.0,0.0,0.0,0.0,0.0,0.0,0.0,0.0,0.0,0.0,0.0,0.0,0.0,0.0,0.0,0.0,0.0,0.0,0.0,0.0,0.0,0.0,0.0,0.0,0.0,0.0,0.0,0.0,0.0,0.0,0.0,0.0,0.0,0.0,0.0,0.0,0.0,0.0,0.0,0.0,0.0,0.0,0.0,0.0,0.0,0.0,0.0,0.0,0.0,0.0,0.0,0.0,0.0,0.0,0.0,0.0,0.0,0.0,0.0,0.0,0.0,0.0,0.0,0.0,0.0,0.0,0.0,0.0,0.0,0.0,0.0,0.0,0.0,0.0,0.0,0.0,0.0,0.0,0.0,0.0,0.0,0.0,0.0,0.0,0.0,0.0,0.0,0.0,0.0,0.0,0.0,0.0,0.0,0.0,0.0,0.0,0.0,0.0,0.0,0.0,0.0,0.0,0.0,0.0,0.0,0.0,0.0,0.0,0.0,0.0,0.0,0.0,0.0,0.0,0.0,0.0,0.0,0.0,0.0,0.0,0.0,0.0,0.0,0.0,0.0,0.0,0.0,0.0,0.0,0.0,0.0,0.0,0.0,0.0,0.0,0.0,0.0,0.0,0.0,0.0,0.0,0.0,0.0,0.0,0.0,0.0,0.0,0.0,0.0,0.0,0.0,0.0,0.0,0.0,0.0,0.0,0.0,0.0,0.0,0.0,0.0,0.0,0.0,0.0,0.0,0.0,0.0,0.0,0.0,0.0,0.0,0.0,0.0,0.0,0.0,0.0,0.0,0.0,0.0,0.0,0.0,0.0,0.0,0.0,0.0,0.0,0.0,0.0,0.0,0.0,0.0,0.0,0.0,0.0,0.0,0.0,0.0,0.0,0.0,0.0,0.0,0.0,0.0,0.0,0.0,0.0,0.0,0.0,0.0,0.0,0.0,0.0,0.0,0.0,0.0,0.0,0.0,0.0,0.0,0.0,0.0,0.0,0.0,0.0,0.0,0.0,0.0,0.0,0.0,0.0,0.0,0.0,0.0,0.0,0.0,0.0,0.0,0.0,0.0,0.0,0.0,0.0,0.0,0.0,0.0,0.0,0.0,0.0,0.0,0.0,0.0,0.0,0.0,0.0,0.0,0.0,0.0,0.0,0.0,0.0,0.0,0.0,0.0,0.0,0.0,0.0,0.0,0.0,0.0,0.0,0.0,0.0,0.0,0.0,0.0,0.0,0.0,0.0,0.0,0.0,0.0,0.0,0.0,0.0,0.0,0.0,0.0,0.0,0.0,0.0,0.0,0.0,0.0,0.0,0.0,0.0,0.0,0.0,0.0,0.0,0.0,0.0,0.0,0.0,0.0,0.0,0.0,0.0,0.0,0.0,0.0,0.0,0.0,0.0,0.0,0.0,0.0,0.0,0.0,0.0,0.0,0.0,0.0,0.0,0.0,0.0,0.0,0.0,0.0,0.0,0.0,0.0,0.0,0.0,0.0,0.0,0.0,0.0,0.0,0.0,0.0,0.0,0.0,0.0,0.0,0.0,0.0,0.0,0.0,0.0,0.0,0.0,0.0,0.0,0.0,0.0,0.0,0.0,0.0,0.0,0.0,0.0,0.0,0.0,0.0,0.0,0.0,0.0,0.0,0.0,0.0,0.0,0.0,0.0,0.0,0.0,0.0,0.0,0.0,0.0,0.0,0.0,0.0,0.0,0.0,0.0,0.0,0.0,0.0,0.0,0.0,0.0,0.0,0.0,0.0,0.0,0.0,0.0,0.0,0.0,0.0,0.0,0.0,0.0,0.0,0.0,0.0,0.0,0.0,0.0,0.0,0.0,0.0,0.0,0.0,0.0,0.0,0.0,0.0,0.0,0.0,0.0,0.0,0.0,0.0,0.0,0.0,0.0,0.0,0.0,0.0,0.0,0.0,0.0,0.0,0.0,0.0,0.0,0.0,0.0,0.0,0.0,0.0,0.0,0.0,0.0,0.0,0.0,0.0,0.0,0.0,0.0,0.0,0.0,0.0,0.0,0.0,0.0,0.0,0.0,0.0,0.0,0.0,0.0,0.0,0.0,0.0,0.0,0.0,0.0,0.0,0.0,0.0,0.0,0.0,0.0,0.0,0.0,0.0,0.0,0.0,0.0,0.0,0.0,0.0,0.0,0.0,0.0,0.0,0.0,0.0,0.0,0.0,0.0,0.0,0.0,0.0,0.0,0.0,0.0,0.0,0.0,0.0,0.0,0.0,0.0,0.0,0.0,0.0,0.0,0.0,0.0,0.0,0.0,0.0,0.0,0.0,0.0,0.0,0.0,0.0,0.0,0.0,0.0,0.0,0.0,0.0,0.0,0.0,0.0,0.0,0.0,0.0,0.0,0.0,0.0,0.0,0.0,0.0,0.0,0.0,0.0,0.0,0.0,0.0,0.0,0.0,0.0,0.0,0.0,0.0,0.0,0.0,0.0,0.0,0.0,0.0,0.0,0.0,0.0,0.0,0.0,0.0,0.0,0.0,0.0,0.0,0.0,0.0,0.0,0.0,0.0,0.0,0.0,0.0,0.0,0.0,0.0,0.0,0.0,0.0,0.0,0.0,0.0,0.0,0.0,0.0,0.0,0.0,0.0,0.0,0.0,0.0,0.0,0.0,0.0,0.0,0.0,0.0,0.0,0.0,0.0,0.0,0.0,0.0,0.0,0.0,0.0,0.0,0.0,0.0,0.0,0.0,0.0,0.0,0.0,0.0,0.0,0.0,0.0,0.0,0.0,0.0,0.0,0.0,0.0,0.0,0.0,0.0,0.0,0.0,0.0,0.0,0.0,0.0,0.0,0.0,0.0,0.0,0.0,0.0,0.0,0.0,0.0,0.0,0.0,0.0,0.0,0.0,0.0,0.0,0.0,0.0,0.0,0.0,0.0,0.0,0.0,0.0,0.0,0.0,0.0,0.0,0.0,0.0,0.0,0.0,0.0,0.0,0.0,0.0,0.0,0.0,0.0,0.0,0.0,0.0,0.0,0.0,0.0,0.0,0.0,0.0,0.0,0.0,0.0,0.0,0.0,0.0,0.0,0.0,0.0,0.0,0.0,0.0,0.0,0.0,0.0,0.0,0.0,0.0,0.0,0.0,0.0,0.0,0.0,0.0,0.0,0.0,0.0,0.0,0.0,0.0,0.0,0.0,0.0,0.0,0.0,0.0,0.0,0.0,0.0,0.0,0.0,0.0,0.0,0.0,0.0,0.0,0.0,0.0,0.0,0.0,0.0,0.0,0.0,0.0,0.0,0.0,0.0,0.0,0.0,0.0,0.0,0.0,0.0,0.0,0.0,0.0,0.0,0.0,0.0,0.0,0.0,0.0,0.0,0.0,0.0,0.0,0.0,0.0,0.0,0.0,0.0,0.0,0.0,0.0,0.0,0.0,0.0,0.0,0.0,0.0,0.0,0.0,0.0,0.0,0.0,0.0,0.0,0.0,0.0,0.0,0.0,0.0,0.0,0.0,0.0,0.0,0.0,0.0,0.0,0.0,0.0,0.0,0.0,0.0,0.0,0.0,0.0,0.0,0.0,0.0,0.0,0.0,0.0,0.0,0.0,0.0,0.0,0.0,0.0,0.0,0.0,0.0,0.0,0.0,0.0,0.0,0.0,0.0,0.0,0.0,0.0,0.0,0.0,0.0,0.0,0.0,0.0,0.0,0.0,0.0,0.0,0.0,0.0,0.0,0.0,0.0,0.0,0.0,0.0,0.0,0.0,0.0,0.0,0.0,0.0,0.0,0.0,0.0,0.0,0.0,0.0,0.0,0.0,0.0,0.0,0.0,0.0,0.0,0.0,0.0,0.0,-0.07,-0.1875,0.0,0.0,0.0,0.0,0.0,0.0,0.0,0.0,0.0,0.0,0.0,0.0,0.0,0.0,0.0,0.0,0.0,0.0,0.0,0.0,0.0,0.0,0.0,0.0,0.0,0.0,0.0,0.0,0.0,0.0,0.0,0.0,0.0,0.0,-0.1592,-0.1592,-0.1592,-0.1592,-0.1592,-0.139,-0.0985,-0.0985,-0.0555,0.0202,0.0,0.0,0.0,0.0,0.0,0.0,0.0,0.0,0.0,0.0,0.0,0.0,0.0,0.0,0.0,0.0,0.0,0.0,0.0,0.0,0.0,0.0,0.0,0.0,0.0,0.0,0.0,0.0,0.0,0.0,0.0,0.0,0.0,0.0,0.0,0.0,0.0,0.0,0.0,0.0,0.0,0.0,0.0,0.0,0.0,0.0,0.0,0.0,0.0,0.0,0.0,0.0,0.0,0.0,0.0,0.0,0.0,0.0,0.0,0.0,0.0,0.0,0.0,0.0,0.0,0.0,0.0,0.0,0.0,0.0,0.014,-0.1147,0.0,0.0,0.0,0.0,0.0,0.0,0.0,0.0,0.0,0.0,0.0,0.0,0.0,0.0,0.0,0.0,0.0,0.0,0.0,0.0,0.0,0.0,0.0,-0.2321,-0.207,-0.1642,-0.1592,-0.1592,0.0,0.0,0.0,0.0,0.0,-0.1592,-0.1592,-0.1592,-0.1592,-0.1592,-0.1465,-0.139,-0.139,-0.139,-0.1035,-0.0429,-0.1237,0.0,0.0,0.0,0.0,0.0,0.0,0.0,0.0,0.0,0.0,0.0,0.0,0.0,0.0,0.0,0.0,0.0,0.0,0.0,0.0,0.0,0.0,0.0,0.0,0.0,0.0,0.0,0.0,0.0,0.0,0.0,0.0,0.0,0.0,0.0,0.0,0.0,0.0,0.0,0.0,0.0,0.0,0.0,0.0,0.0,0.0,0.0,0.0,0.0,0.0,0.0,0.0,0.0,0.0,0.0,0.0,0.0,0.0,0.0,0.0,0.0,0.0,0.0,0.3531,0.3503,0.3503,0.311,0.2831,0.2553,0.1288,-0.0224,-0.1903,-0.3106,0.0,0.0,0.0,0.0,0.0,0.0,0.0,0.0,0.0,0.0,0.0,0.0,0.0,0.0,0.0,0.0,0.0,0.0,0.0,0.0,0.0,-0.1994,-0.1667,-0.1617,-0.1592,-0.1592,-0.1592,0.0,-0.1592,-0.1592,-0.1592,-0.1592,-0.1592,-0.1592,-0.1592,-0.1592,-0.0909,-0.0556,-0.0556,-0.0556,-0.0505,-0.0429,-0.1237,-0.1592,-0.1642,0.0,0.0,0.0,0.0,0.0,0.0,0.0,0.0,0.0,0.0,0.0,0.0,0.0,0.0,0.0,0.0,0.0,0.0,0.0,0.0,0.0,0.0,0.0,0.0,0.0,0.0,0.0,0.0,0.0,0.0,0.0,0.0,0.0,0.0,0.0,0.0,0.0,0.0,0.0,0.0,0.0,0.3587,0.3587,0.0,0.0,0.0,0.0,0.0,0.0,0.0,0.0,0.0,0.0,0.0,0.0,0.0,0.3587,0.3587,0.3587,0.3587,0.3587,0.3306,0.3166,0.3137,0.2579,0.23,0.2244,0.1823,0.0,-0.1903,-0.3106,0.0,0.0,0.0,0.0,0.0,0.0,0.0,0.0,0.0,0.0,0.0,0.0,0.0,0.0,0.0,0.0,0.0,0.0,0.0,0.0,0.0,-0.2019,-0.1919,-0.1617,-0.1592,-0.1592,-0.1592,-0.1592,-0.1592,-0.1592,-0.1592,-0.1592,-0.1592,-0.1592,-0.1592,-0.1592,-0.1237,-0.1086,-0.1086,-0.1086,-0.1086,-0.1086,-0.144,-0.1592,-0.1642,-0.217,0.0,0.0,0.0,0.0,0.0,0.0,0.0,0.0,0.0,0.0,0.0,0.0,0.0,0.0,0.0,0.0,0.0,0.0,0.0,0.0,0.0,0.0,0.0,0.0,0.0,0.0,0.0,0.0,0.0,0.0,0.0,0.0,0.0,0.0,0.0,0.0,0.0,0.0,0.0,0.3587,0.3587,0.3587,0.3587,0.3587,0.0,0.0,0.0,0.0,0.0,0.0,0.0,0.0,0.0,0.3587,0.3587,0.3587,0.3587,0.3587,0.3587,0.3587,0.3446,0.3278,0.3081,0.2664,0.2384,0.2188,0.1908,0.0813,-0.084,-0.1372,-0.2296,-0.3388,0.0,0.0,0.0,0.0,-0.2883,-0.2939,0.0,0.0,0.0,0.0,0.0,0.0,0.0,0.0,0.0,0.0,0.0,0.0,-0.1843,-0.2044,-0.2044,-0.1642,-0.1592,-0.1592,-0.1592,-0.1592,-0.1592,-0.1592,-0.1592,-0.1592,-0.1592,-0.1592,-0.1592,-0.1592,-0.1592,-0.1592,-0.1592,-0.1592,-0.1592,-0.1592,-0.1625,-0.1624,-0.1642,-0.217,-0.2503,-0.2716,0.0,0.0,0.0,0.0,0.0,0.0,0.0,0.0,0.0,0.0,0.0,0.0,0.0,0.0,0.0,0.0,0.0,0.0,0.0,0.0,0.0,0.0,0.0,0.0,0.0,0.0,0.0,0.0,0.0,0.0,0.0,0.0,0.0,0.0,0.0,0.0,0.0,0.3587,0.3587,0.3587,0.3587,0.3587,0.0,0.0,0.0,0.0,0.0,0.0,0.3587,0.3587,0.3587,0.3587,0.3587,0.3587,0.3587,0.3587,0.3587,0.3587,0.3503,0.3307,0.2999,0.2692,0.2413,0.2076,0.1879,0.129,0.0449,0.014,-0.07,-0.1791,-0.1791,-0.1847,-0.1875,-0.1792,-0.1849,-0.1961,0.0,0.0,0.0,0.0,0.0,0.0,0.0,0.0,0.0,0.0,0.0,-0.1818,-0.2296,-0.1919,-0.1617,-0.1592,-0.1592,-0.1592,-0.1592,-0.1592,-0.1592,-0.1592,-0.1592,-0.1592,-0.1592,-0.1592,-0.1592,-0.1592,-0.1592,-0.1592,-0.1592,-0.1592,-0.1592,-0.1593,-0.1673,-0.1669,-0.1642,-0.217,-0.2776,-0.3331,-0.3277,0.0,0.0,0.0,0.0,0.0,0.0,0.0,0.0,0.0,0.0,0.0,0.0,0.0,0.0,0.0,0.0,0.0,0.0,0.0,0.0,0.0,0.0,0.0,0.0,0.0,0.0,0.0,0.0,0.0,0.0,0.0,0.0,0.0,0.0,0.0,0.0,0.0,0.0,0.3587,0.3587,0.0,0.0,0.0,0.0,0.3587,0.3587,0.3587,0.3587,0.3587,0.3587,0.3587,0.3587,0.3587,0.3587,0.3587,0.3587,0.3587,0.3278,0.2971,0.2721,0.2384,0.2076,0.1823,0.1795,0.1767,0.1627,0.0477,-0.07,-0.1791,-0.1791,-0.1959,-0.2044,-0.0897,-0.0841,-0.1206,0.0,0.0,0.0,0.0,0.0,0.0,0.0,0.0,-0.3253,-0.2749,-0.2649,-0.246,-0.2003,-0.2081,-0.2039,-0.1697,-0.1673,-0.1673,-0.1673,-0.1656,-0.1672,-0.1672,-0.1627,-0.1626,-0.1671,-0.1664,-0.1673,-0.1673,-0.1673,-0.1673,-0.1673,-0.1673,-0.1673,-0.1673,-0.1684,-0.1683,-0.1673,-0.1855,-0.2097,-0.2371,-0.3064,-0.3591,0.0,0.0,0.0,0.0,0.0,0.0,0.0,0.0,0.0,0.0,0.0,0.0,0.0,0.0,0.0,0.0,0.0,0.0,0.0,0.0,0.0,0.0,0.0,0.0,0.0,0.0,0.0,0.0,0.0,0.0,0.0,0.0,0.0,0.0,0.0,0.0,0.0,0.3587,0.3587,0.0,0.3587,0.3587,0.3587,0.3587,0.3587,0.3587,0.3587,0.3587,0.3587,0.3587,0.3587,0.3587,0.3587,0.3587,0.3503,0.3278,0.3166,0.2859,0.2384,0.2244,0.2048,0.1795,0.1795,0.1795,0.1767,0.1346,0.0897,0.0504,0.028,0.014,0.0056,0.0112,-0.0028,-0.0168,0.0,0.0,0.0,0.0,0.0,0.0,0.0,0.0,-0.3285,-0.2771,-0.2699,-0.2515,-0.2013,-0.212,-0.2077,-0.1729,-0.1704,-0.1704,-0.1704,-0.1713,-0.1702,-0.1702,-0.1657,-0.1656,-0.1702,-0.1695,-0.1704,-0.1704,-0.1704,-0.1704,-0.1704,-0.1704,-0.1704,-0.1705,-0.1715,-0.1747,-0.1747,-0.1947,-0.2026,-0.2095,-0.3015,-0.3418,-0.354,0.0,0.0,0.0,0.0,0.0,0.0,0.0,0.0,0.0,0.0,0.0,0.0,0.0,0.0,0.0,0.0,0.0,0.0,0.0,0.0,0.0,0.0,0.0,0.0,0.0,0.0,0.0,0.0,0.0,0.0,0.0,0.0,0.0,0.0,0.4117,0.3587,0.3587,0.3587,0.3755,0.4173,0.3838,0.3783,0.4173,0.3838,0.3587,0.3587,0.3587,0.3587,0.3587,0.3587,0.3587,0.3587,0.3587,0.3418,0.3109,0.3109,0.2774,0.2188,0.2188,0.2048,0.1795,0.1795,0.1795,0.1795,0.1795,0.1739,0.1598,0.1374,0.1234,0.1093,0.0589,0.0336,0.0252,0.0,0.0,0.0,0.0,0.0,0.0,0.0,-0.2777,-0.2667,-0.3229,-0.2387,-0.1909,-0.2422,-0.2026,-0.1706,-0.1707,-0.1707,-0.1707,-0.1707,-0.1706,-0.1705,-0.1704,-0.1705,-0.1705,-0.1705,-0.1707,-0.1707,-0.1707,-0.1707,-0.1707,-0.1707,-0.1707,-0.1707,-0.1708,-0.1765,-0.1806,-0.1835,-0.2424,-0.264,-0.2651,-0.3195,-0.3447,-0.3548,0.0,0.0,0.0,0.0,0.0,0.0,0.0,0.0,0.0,0.0,0.0,0.0,0.0,0.0,0.0,0.0,0.0,0.0,0.0,0.0,0.0,0.0,0.0,0.0,0.0,0.0,0.0,0.0,0.0,0.0,0.0,0.0,0.0,0.3726,0.3671,0.3671,0.3699,0.3698,0.4173,0.5343,0.4397,0.4201,0.5371,0.4367,0.3698,0.3698,0.3671,0.3643,0.3643,0.3615,0.3587,0.3587,0.3587,0.3418,0.3109,0.3081,0.2774,0.2188,0.2188,0.2048,0.1795,0.1795,0.1795,0.1795,0.1795,0.1598,0.129,0.129,0.1121,0.0841,0.0505,0.0224,0.0,0.0,0.0,0.0,0.0,0.0,0.0,0.0,-0.3697,-0.3556,-0.3338,-0.2701,-0.2211,-0.2005,-0.1872,-0.1774,-0.1768,-0.177,-0.177,-0.177,-0.1776,-0.1754,-0.1705,-0.1752,-0.1764,-0.1764,-0.1786,-0.177,-0.177,-0.177,-0.177,-0.177,-0.177,-0.177,-0.177,-0.1779,-0.181,-0.1811,-0.1988,-0.2294,-0.273,-0.3324,-0.3548,-0.3589,0.0,0.0,0.0,0.0,0.0,0.0,0.0,0.0,0.0,0.0,0.0,0.0,0.0,0.0,0.0,0.0,0.0,0.0,0.0,0.0,0.0,0.0,0.0,0.0,0.0,0.0,0.0,0.0,0.0,0.0,0.0,0.7088,0.7143,0.6253,0.5423,0.5202,0.6031,0.6142,0.6281,0.6586,0.6336,0.6281,0.6614,0.6336,0.6142,0.6142,0.5341,0.4897,0.4897,0.4061,0.3587,0.3587,0.3587,0.3418,0.3109,0.2915,0.2608,0.2188,0.1992,0.1879,0.1795,0.1795,0.1795,0.1795,0.1795,0.1598,0.129,0.1093,0.0813,0.0505,0.0224,0.0056,0.0,0.0,0.0,0.0,0.0,0.0,0.0,0.0,-0.4039,-0.3542,-0.288,-0.2112,-0.1382,-0.0744,-0.0994,-0.122,-0.1205,-0.157,-0.1795,-0.1795,-0.1806,-0.1788,-0.1743,-0.1787,-0.1796,-0.1796,-0.1814,-0.1795,-0.1795,-0.1795,-0.1795,-0.1795,-0.1795,-0.1795,-0.1795,-0.1795,-0.1795,-0.1823,-0.2076,-0.2524,-0.3113,-0.3449,-0.3587,-0.3643,-0.4176,-0.3895,-0.325,-0.3501,-0.3277,-0.2912,-0.3248,0.0,0.0,0.0,0.0,0.0,0.0,0.0,0.0,0.0,0.0,0.0,0.0,0.0,0.0,0.0,0.0,0.0,0.0,0.0,0.0,0.0,0.0,0.0,0.0,0.7695,0.8085,0.7891,0.6838,0.6366,0.7027,0.711,0.7307,0.7805,0.739,0.7307,0.7808,0.739,0.711,0.711,0.6478,0.6116,0.6116,0.4979,0.4341,0.4341,0.3726,0.3222,0.2915,0.2655,0.2353,0.2041,0.1913,0.1833,0.1833,0.1833,0.1833,0.1833,0.1833,0.1575,0.1115,0.0,0.0,0.0,0.0,0.0,0.0,0.0,0.0,0.0,0.0,0.0,0.0,0.0,-0.3948,-0.2898,-0.2201,-0.1012,0.0028,0.0812,0.0196,-0.0252,-0.0252,-0.1093,-0.1683,-0.1795,-0.1711,-0.1683,-0.1795,-0.1795,-0.1795,-0.1795,-0.1795,-0.1795,-0.1795,-0.1795,-0.1795,-0.1795,-0.1795,-0.1795,-0.1795,-0.1795,-0.1795,-0.1823,-0.2384,-0.2945,-0.3475,-0.339,-0.3446,-0.3699,-0.4596,-0.3921,-0.2548,-0.2994,-0.2463,-0.1567,-0.1623,0.0,0.0,0.0,0.0,0.0,0.0,0.0,0.0,0.0,0.0,0.0,0.0,0.0,0.0,0.0,0.0,0.0,0.0,0.0,0.0,0.0,0.0,0.0,0.0,0.7498,0.7888,0.8947,0.8168,0.7498,0.7498,0.7498,0.7916,0.9003,0.814,0.7943,0.9034,0.8112,0.7498,0.7498,0.739,0.0,0.0,0.0,0.5613,0.5596,0.425,0.3352,0.2934,0.2663,0.2277,0.1847,0.1874,0.1886,0.1886,0.1886,0.1886,0.1886,0.1856,0.1444,0.0852,0.0797,0.0618,0.0336,0.0084,0.0,0.0,0.0,0.0,0.0,0.0,0.0,0.0,0.0,-0.3475,-0.2275,-0.2126,-0.0497,0.0726,0.0869,0.0757,0.0645,0.0645,-0.0168,-0.0981,-0.1739,-0.1093,-0.1009,-0.1767,-0.1795,-0.1795,-0.1795,-0.1795,-0.1795,-0.1795,-0.1795,-0.1795,-0.1795,-0.1795,-0.1795,-0.1795,-0.1795,-0.1795,-0.1795,-0.1936,-0.2328,-0.2806,-0.2045,-0.2492,-0.3503,-0.2492,-0.1736,-0.1177,-0.0588,-0.0224,-0.0084,-0.0532,-0.0532,-0.042,-0.0839,-0.0699,0.0,0.0,0.0,0.0,0.0,0.0,0.0,0.0,0.0,0.0,0.0,0.0,0.0,0.0,0.0,0.0,0.0,0.0,0.0,0.9856,0.9998,1.008,1.0331,1.0162,0.9998,0.9998,0.9998,1.0107,1.0331,1.0135,1.0107,1.0331,1.0135,0.9998,0.9998,0.9085,0.8638,0.8777,0.7627,0.6964,0.6854,0.6563,0.5695,0.4309,0.4033,0.0,0.22,0.2001,0.1886,0.1886,0.1886,0.1886,0.1885,0.162,0.109,0.047,0.0259,0.0142,0.0084,0.0028,0.0,0.0,0.0,0.0,0.0,0.0,0.0,0.0,0.0,-0.2118,-0.1067,-0.0662,0.0668,0.1737,0.2214,0.1821,0.1541,0.1541,0.0757,0.0056,-0.0421,0.0,0.0028,-0.0421,-0.0449,-0.0449,-0.0449,-0.0449,-0.0449,-0.0449,-0.0449,-0.0673,-0.1093,-0.1093,-0.1346,-0.1767,-0.1318,-0.1206,-0.1346,-0.1177,-0.1261,-0.1541,-0.1372,-0.1512,-0.1735,-0.1286,-0.0643,0.0056,0.0504,0.1037,0.1514,0.1233,0.1233,0.1316,0.1147,0.1203,0.1457,0.0,0.0,0.0,0.0,0.0,0.0,0.0,0.0,0.0,0.0,0.0,0.0,0.0,0.0,0.7507,0.8671,0.0,1.0001,1.061,1.0692,1.0692,1.0692,1.0692,1.0692,1.0692,1.0692,1.0692,1.0692,1.0692,1.0692,1.0692,1.0777,1.0858,1.0858,1.0347,1.0028,0.9967,0.8823,0.808,0.7854,0.7121,0.6331,0.5487,0.4562,0.375,0.3068,0.2314,0.1961,0.1961,0.1961,0.1841,0.166,0.1146,0.075,0.0417,0.0118,0.0,0.0,0.0,0.0,0.0,0.0,0.0,0.0,0.0,0.0,0.0,0.0,-0.0759,0.0165,0.081,0.1819,0.2772,0.3531,0.2913,0.2408,0.2212,0.1737,0.1262,0.0925,0.1065,0.1065,0.0897,0.0897,0.0897,0.0897,0.0897,0.0897,0.0897,0.0897,0.0533,-0.014,-0.014,-0.0561,-0.1234,-0.0477,-0.0336,-0.0617,-0.0364,-0.0252,-0.028,-0.0644,-0.0336,0.0308,0.0,0.0364,0.1092,0.1259,0.1961,0.2776,0.2776,0.2834,0.2917,0.3138,0.3055,0.2917,0.3138,0.3055,0.0,0.0,0.0,0.0,0.0,0.0,0.0,0.0,0.0,0.6063,0.7224,0.8226,0.8978,0.9199,1.0029,1.0692,1.0692,1.0692,1.0692,1.0692,1.0692,1.0704,1.0741,1.0712,1.0708,1.0745,1.0772,1.0761,1.0794,1.0964,1.1045,1.1045,1.109,1.1005,1.0784,0.9793,0.9137,0.8844,0.7658,0.6921,0.6597,0.5311,0.4411,0.3871,0.2852,0.2222,0.2008,0.1946,0.1698,0.1359,0.0741,0.046,0.0364,0.0091,0.0,0.0,0.0,0.0,0.0,0.0,0.0,0.0,0.0,0.0,0.0,0.0,0.0,0.081,0.0895,0.238,0.3475,0.3587,0.3503,0.3109,0.2268,0.2885,0.2606,0.1009,0.1625,0.1709,0.0925,0.0897,0.0897,0.0897,0.0897,0.0897,0.0897,0.0897,0.0841,0.0757,0.0757,0.0701,0.0589,0.0701,0.0561,0.0252,0.0308,0.0308,0.0364,0.0813,0.1234,0.1682,0.2381,0.2269,0.1794,0.2577,0.2941,0.3054,0.3054,0.325,0.3503,0.3531,0.3531,0.3503,0.3531,0.3531,0.3503,0.3531,0.3531,0.381,0.4925,0.5204,0.5509,0.0,0.0,0.7252,0.8447,0.8809,0.9227,1.0304,1.061,1.0692,1.0692,1.0692,1.0692,1.0692,1.0692,1.078,1.0947,1.0821,1.0785,1.0951,1.0964,1.1029,1.1151,1.1155,1.1167,1.1167,1.0924,1.0833,1.0963,1.0554,1.0264,1.01,0.9949,0.9123,0.7727,0.7525,0.622,0.3897,0.3751,0.308,0.1977,0.1698,0.1359,0.1019,0.0648,0.0339,0.0062,0.0,0.0,0.0,0.0,0.0,0.0,0.0,0.0,0.0,0.0,0.0,0.0,0.0,0.0,0.0,0.2156,0.2997,0.3587,0.3587,0.3587,0.3446,0.3053,0.3362,0.3278,0.2522,0.2802,0.2857,0.2494,0.2466,0.2466,0.2466,0.2466,0.2466,0.2466,0.2466,0.2185,0.1653,0.1653,0.1373,0.0925,0.1429,0.1485,0.1234,0.1373,0.1653,0.1961,0.1877,0.2241,0.2887,0.325,0.3167,0.2887,0.325,0.339,0.0,0.339,0.3475,0.3587,0.3587,0.3587,0.3587,0.3587,0.3587,0.3755,0.4451,0.4646,0.4923,0.6089,0.6394,0.67,0.7891,0.814,0.8499,0.9695,0.9946,1.0111,1.061,1.0692,1.0692,0.0,1.0692,1.0729,1.0866,1.0882,1.0919,1.1094,1.1049,1.1033,1.111,1.1118,1.1057,1.0928,1.1031,1.1002,1.0798,1.0768,1.0707,1.0598,1.0448,1.027,1.0001,1.0004,0.9667,0.8991,0.8255,0.7307,0.6202,0.5406,0.4244,0.2745,0.1667,0.1019,0.0679,0.034,0.0123,0.0,0.0,0.0,0.0,0.0,0.0,0.0,0.0,0.0,0.0,0.0,0.0,0.0,0.0,0.0,0.0,0.0,0.339,0.3587,0.3587,0.3587,0.3587,0.3587,0.3587,0.3587,0.3587,0.3587,0.3587,0.3587,0.3587,0.3587,0.3587,0.3587,0.3587,0.3587,0.3587,0.325,0.2576,0.2576,0.2241,0.1682,0.2297,0.2437,0.2158,0.2353,0.2688,0.3053,0.2549,0.2801,0.3475,0.3475,0.3475,0.3475,0.3475,0.3531,0.3587,0.3503,0.3531,0.3587,0.3587,0.3587,0.3587,0.3587,0.3838,0.4285,0.5176,0.562,0.6146,0.7307,0.7584,0.7916,0.9113,0.9392,0.964,1.0527,1.0692,1.0692,1.0692,1.0764,1.0769,1.0769,1.0806,1.0887,1.1021,1.1065,1.1106,1.1248,1.1268,1.1259,1.1216,1.118,1.1056,1.087,1.0902,1.0826,1.0588,1.0635,1.0547,1.0304,1.0213,1.0061,0.9792,0.9792,0.9792,0.9792,0.887,0.8255,0.7858,0.6418,0.4889,0.3326,0.2004,0.108,0.0463,0.0123,0.0,0.0,0.0,0.0,0.0,0.0,0.0,0.0,0.0,0.0,0.0,0.0,0.0,0.0,0.0,0.0,0.0,0.0,0.0,0.0,0.0,0.3587,0.3587,0.3587,0.3587,0.3587,0.3587,0.3587,0.3587,0.3587,0.3587,0.3587,0.3587,0.3587,0.3587,0.3587,0.3587,0.3587,0.3559,0.3559,0.3531,0.3531,0.3559,0.3362,0.3053,0.3081,0.3081,0.3082,0.2805,0.2861,0.3109,0.3109,0.3109,0.3109,0.3109,0.3334,0.3559,0.3222,0.3334,0.3587,0.3587,0.3587,0.0,0.3587,0.4424,0.5343,0.5399,0.62,0.7335,0.853,0.884,0.9168,1.0359,1.0637,1.0665,1.0692,1.0692,1.0692,1.0692,1.0866,1.0988,1.0988,1.1098,1.1179,1.1183,1.1183,1.1285,1.1468,1.1492,1.1438,1.1302,1.1113,1.1082,1.1276,1.0989,1.0812,1.0781,1.0482,1.0304,1.0304,0.997,0.9822,0.9792,0.9792,0.9792,0.9792,0.9758,0.9083,0.7858,0.6176,0.4676,0.3357,0.274,0.1726,0.0463,0.0123,0.0,0.0,0.0,0.0,0.0,0.0,0.0,0.0,0.0,0.0,0.0,0.0,0.0,0.0,0.0,0.0,0.0,0.0,0.0,0.0,0.0,0.0,0.0,0.0,0.3587,0.3587,0.3587,0.3587,0.3587,0.3587,0.3587,0.3587,0.3587,0.3587,0.3587,0.3587,0.3587,0.3587,0.3587,0.3587,0.3587,0.3587,0.3587,0.3531,0.3418,0.3418,0.3418,0.3418,0.3335,0.3363,0.3418,0.3418,0.3418,0.339,0.0,0.3306,0.3559,0.3222,0.3334,0.3587,0.3587,0.3587,0.3755,0.4562,0.5618,0.67,0.7507,0.8005,0.8585,0.9805,1.0084,1.0194,1.061,1.0692,1.0692,1.0692,1.0817,1.0903,1.0903,1.1021,1.1139,1.1139,1.1183,1.1236,1.1386,1.1407,1.1476,1.1692,1.1713,1.1677,1.1643,1.138,1.1034,1.0664,1.0516,1.0365,1.0152,1.0031,0.9974,0.9974,0.9852,0.9792,0.9792,0.9792,0.9792,0.9792,0.9792,0.9454,0.8781,0.7373,0.5745,0.3996,0.2954,0.1602,0.0216,0.1018,0.0802,0.0093,0.0987,0.0771,0.0,0.0,0.0,0.0,0.0,0.0,0.0,0.0,0.0,0.0,0.0,0.0,0.0,0.0,0.0,0.0,0.0,0.0,0.0,0.0,0.0,0.3587,0.3587,0.3587,0.3587,0.3587,0.3475,0.3418,0.3418,0.3335,0.3281,0.3281,0.381,0.406,0.4088,0.4615,0.4838,0.4838,0.4838,0.4616,0.4257,0.4257,0.3921,0.3418,0.3418,0.3418,0.3418,0.3418,0.3503,0.0,0.3222,0.3585,0.4117,0.3361,0.3334,0.3587,0.3587,0.3895,0.4479,0.5646,0.6838,0.7919,0.8699,0.9227,0.9722,1.0496,1.0692,1.0692,1.0692,1.0772,1.0817,1.0817,1.0964,1.1062,1.1062,1.1204,1.1321,1.1321,1.1378,1.1459,1.1581,1.1598,1.1672,1.179,1.1682,1.1617,1.1617,1.1216,1.0819,1.0486,1.0274,1.0031,0.9822,0.9792,0.9792,0.9792,0.9792,0.9792,0.9792,0.9792,0.9792,0.9792,0.967,0.9518,0.9275,0.8236,0.6543,0.4363,0.3414,0.1848,0.0062,0.0925,0.0771,0.0093,0.0956,0.0771,0.0,0.0,0.0,0.0,0.0,0.0,0.0,0.0,0.0,0.0,0.0,0.0,0.0,0.0,0.0,0.0,0.0,0.0,0.0,0.0,0.0,0.0,0.3587,0.3587,0.3615,0.3699,0.339,0.3249,0.3304,0.3055,0.2917,0.2917,0.4282,0.4949,0.492,0.6362,0.7002,0.6889,0.6944,0.6339,0.526,0.526,0.4423,0.3082,0.3082,0.3081,0.3109,0.3109,0.3334,0.3643,0.3334,0.4198,0.526,0.3723,0.3445,0.3782,0.3782,0.4618,0.5787,0.6864,0.8057,0.9003,0.9003,0.9836,1.0692,1.0692,1.0692,1.0692,1.0704,1.087,1.1,1.1008,1.1118,1.1207,0.0,0.0,1.1516,1.1516,1.1692,1.1806,1.1806,1.1806,1.1806,0.0,0.0,0.0,0.0,0.0,1.0456,1.0759,1.0183,0.9792,0.9792,0.9792,0.9792,0.9792,0.9792,0.9792,0.9792,0.9792,0.9792,0.9792,0.9457,0.9305,0.9247,0.861,0.6855,0.4363,0.3967,0.2371,0.0,0.0062,0.0062,0.0,0.0062,0.0062,0.0,0.0,0.0,0.0,0.0,0.0,0.0,0.0,0.0,0.0,0.0,0.0,0.0,0.0,0.0,0.0,0.0,0.0,0.0,0.0,0.0,0.0,0.3587,0.3587,0.4005,0.4897,0.4869,0.52,0.6056,0.581,0.5674,0.5674,0.5871,0.5481,0.4618,0.5898,0.5536,0.3864,0.4756,0.4507,0.3391,0.3391,0.3169,0.2805,0.2805,0.2915,0.3109,0.3109,0.3864,0.4925,0.4841,0.5616,0.6447,0.0,0.0,0.0,0.6197,0.7033,0.806,0.8364,0.9306,1.0249,1.0249,1.0472,1.0692,1.0692,1.0692,1.0729,1.0894,1.0964,1.1033,1.1131,1.1301,1.1427,0.0,0.0,0.0,1.1707,1.1778,0.0,1.1806,1.1806,0.0,1.1806,0.0,1.1557,1.1333,1.091,1.0607,1.0425,1.0031,0.9792,0.9792,0.9792,0.9792,0.9792,0.9792,0.9792,0.9792,0.9792,0.9792,0.9792,0.9457,0.9186,0.8946,0.7561,0.5839,0.3967,0.2925,0.1541,0.0093,0.108,0.0895,0.0093,0.1111,0.0895,0.0,0.0,0.0,0.0,0.0,0.0,0.0,0.0,0.0,0.0,0.0,0.0,0.0,0.0,0.0,0.0,0.0,0.0,0.0,0.0,0.0,0.0,0.0,0.3587,0.4145,0.5343,0.5258,0.5727,0.6886,0.6642,0.6475,0.6475,0.7005,0.6922,0.6281,0.7614,0.7504,0.6223,0.6253,0.5586,0.4446,0.4446,0.378,0.0,0.0,0.4168,0.378,0.4446,0.5224,0.5982,0.0,0.0,0.0,0.0,0.0,0.7193,0.7722,0.8364,0.9003,0.953,0.0,1.0692,1.0692,1.0692,1.0692,1.0692,1.0692,1.0741,1.0956,1.1053,1.1131,1.1309,1.1492,1.1622,1.1622,1.1707,1.1806,0.0,0.0,0.0,1.1806,1.1806,1.1806,0.0,1.153,0.0,1.1303,1.0728,1.0334,1.0304,1.0001,0.9792,0.9792,0.9792,0.9792,0.9792,0.9792,0.9792,0.9792,0.9792,0.9727,0.9579,0.9278,0.8976,0.8644,0.7561,0.6208,0.4737,0.4032,0.2956,0.1756,0.2525,0.2064,0.0956,0.1696,0.1172,0.0,0.0,0.0,0.0,0.0,0.0,0.0,0.0,0.0,0.0,0.0,0.0,0.0,0.0,0.0,0.0,0.0,0.0,0.0,0.0,0.0,0.0,0.0,0.0,0.0,0.5509,0.5284,0.5753,0.7077,0.6805,0.6611,0.6611,0.7916,0.8472,0.8333,0.9778,1.0276,0.9939,0.883,0.7636,0.6523,0.6551,0.525,0.3307,0.5693,0.5889,0.4921,0.0,0.0,0.0,0.0,0.0,0.0,0.0,0.9302,0.775,0.8809,0.9144,0.9337,1.0386,1.0692,1.0692,1.0692,1.0692,1.0692,1.0692,1.0692,1.0749,1.0984,1.1118,1.1252,1.1492,0.0,1.1806,1.1806,1.1806,1.1806,1.1806,0.0,1.1806,1.1806,1.1806,1.1776,1.1742,1.122,1.094,1.1152,1.0395,0.9974,1.0213,0.9974,0.9792,0.9792,0.9792,0.9792,0.9792,0.9792,0.9792,0.9792,0.9761,0.9579,0.9305,0.8976,0.8671,0.8369,0.7872,0.7011,0.5876,0.5722,0.4983,0.3905,0.3905,0.3263,0.225,0.2065,0.1296,0.0247,0.0062,0.0,0.0,0.0,0.0,0.0,0.0,0.0,0.0,0.0,0.0,0.0,0.0,0.3251,0.3587,0.0,0.0,0.0,0.0,0.0,0.0,0.0,0.0,0.0,0.0,0.6422,0.7282,0.9227,0.8982,0.8847,0.8847,0.8847,0.8322,0.7371,0.8626,0.8174,0.6359,0.7035,0.67,0.5639,0.5864,0.5699,0.531,0.6001,0.6304,0.6357,0.0,0.0,0.0,0.0,0.0,0.0,0.0,1.0414,1.0107,1.0331,1.0386,1.0445,1.0637,1.0692,1.0692,1.0692,1.0692,1.0692,1.0692,1.0692,1.0777,1.1102,1.1171,0.0,0.0,1.1782,1.1806,1.1806,1.1806,1.1806,1.1806,1.1806,1.1806,1.1806,1.1806,1.1712,0.0,1.1273,1.1031,1.0516,1.0304,1.0126,0.9913,0.9819,0.9792,0.9792,0.9792,0.9792,0.9792,0.9792,0.9792,0.9792,0.9518,0.9366,0.9305,0.8732,0.8461,0.8339,0.6921,0.6121,0.5845,0.4737,0.4122,0.3905,0.3905,0.3784,0.3478,0.2403,0.185,0.1511,0.0401,0.0,0.0,0.0,0.0,0.0,0.0,0.0,0.0,0.0,0.2384,0.2525,0.2665,0.2945,0.3253,0.3559,0.3587,0.0,0.0,0.0,0.0,0.0,0.0,0.0,0.0,0.0,0.0,0.9096,0.9623,0.9789,0.9596,0.0,0.9071,0.8512,0.9099,0.8761,0.7667,0.7454,0.7063,0.6558,0.6836,0.6614,0.6197,0.7885,0.8165,0.0,0.0,0.0,0.0,0.0,0.0,0.0,0.0,1.0692,1.0692,1.0692,1.0692,1.0692,1.0692,1.0692,1.0692,1.0692,1.0692,1.0692,1.0692,1.0692,1.0785,1.1114,0.0,0.0,0.0,1.1806,1.1806,1.1806,1.1806,0.0,1.1806,1.1806,1.1806,1.1806,1.1651,1.1492,1.1333,1.1001,1.0637,1.0334,1.0152,0.9974,0.9822,0.9792,0.9792,0.9792,0.9792,0.9792,0.9792,0.9792,0.9731,0.9548,0.9366,0.9156,0.8824,0.8552,0.8308,0.8119,0.7319,0.695,0.6919,0.6272,0.5994,0.5933,0.5228,0.4952,0.4737,0.2773,0.2004,0.185,0.0494,0.0,0.0,0.0,0.0,0.0,0.0,0.0,0.0,0.0,0.2693,0.2721,0.2776,0.275,0.2889,0.3447,0.3503,0.3531,0.0,0.0,0.0,0.0,0.0,0.0,0.0,0.0,0.0,0.0,0.0,0.0,0.9789,0.9789,0.0,0.0,0.0,0.0,0.0,0.8512,0.7956,0.79,0.8226,0.7864,0.0,0.0,1.0001,0.0,0.0,0.0,0.0,0.0,0.0,0.0,0.0,1.0692,1.0692,1.0692,1.0692,1.0692,1.0692,1.0692,1.0692,1.0692,1.0692,1.0692,1.0692,1.0692,1.0785,1.1114,1.1195,0.0,1.1729,1.1806,1.1806,1.1806,1.1806,1.1806,0.0,1.1742,1.1682,1.1682,1.1398,1.1182,0.0,1.0607,0.0,1.0213,0.9943,0.9792,0.9792,0.9792,0.9792,0.9792,0.9792,0.9792,0.9792,0.9731,0.9579,0.9305,0.9186,0.8854,0.84,0.8339,0.815,0.7903,0.7903,0.7903,0.7903,0.7903,0.7747,0.738,0.6337,0.5722,0.523,0.2896,0.2004,0.185,0.0494,0.0,0.0,0.0,0.0,0.0,0.0,0.0,0.0,0.0,0.2693,0.2778,0.3026,0.2861,0.2805,0.311,0.3137,0.3278,0.0,0.0,0.0,0.0,0.0,0.0,0.0,0.0,0.0,0.0,0.0,0.0,0.9789,0.9789,0.0,0.0,0.0,0.0,0.0,0.0,0.9071,0.8826,0.9399,0.0,0.0,0.0,0.0,0.0,0.0,0.0,0.0,0.0,0.0,0.0,0.0,0.0,1.0692,1.0692,1.0692,1.0692,1.0692,0.0,0.0,1.0692,1.0692,1.0692,1.0692,1.0692,1.0785,1.1114,0.0,1.1296,1.1729,1.1806,1.1806,1.1806,1.1806,1.1806,0.0,1.1553,1.1363,1.1363,1.1061,1.0728,1.0425,0.0,0.0,0.9879,0.9822,0.9792,0.9792,0.9792,0.9792,0.9792,0.9792,0.9792,0.9792,0.9518,0.9335,0.9305,0.8763,0.8461,0.84,0.8089,0.7933,0.7903,0.7903,0.7903,0.7903,0.7903,0.7194,0.6059,0.5937,0.5168,0.3937,0.2557,0.2004,0.185,0.0494,0.0,0.0,0.0,0.0,0.0,0.0,0.0,0.0,0.3253,0.3083,0.2971,0.3081,0.2861,0.2805,0.3082,0.2943,0.2917,0.0,0.0,0.0,0.0,0.0,0.0,0.0,0.0,0.0,0.0,0.0,0.845,0.8727,0.9451,0.0,0.0,0.0,0.0,0.0,0.0,0.9489,0.9241,0.9623,0.0,0.0,0.0,0.0,0.0,0.0,0.0,0.0,0.0,0.0,0.0,0.0,0.0,0.0,1.0692,1.0692,0.0,0.0,1.0692,1.0692,1.0692,1.0692,1.0692,1.0692,1.0801,1.0951,1.1138,0.0,1.1401,1.1471,1.1492,1.1432,1.125,1.119,1.119,1.119,1.1095,1.1001,1.1001,1.0698,1.0456,1.0304,1.0126,0.994,0.0,0.9792,0.9792,0.9792,0.9792,0.9792,0.9792,0.9792,0.97,0.9518,0.9366,0.9126,0.8763,0.8522,0.8308,0.8089,0.7964,0.7903,0.7903,0.7903,0.7903,0.7869,0.7041,0.6396,0.5784,0.4217,0.3693,0.3692,0.1602,0.1296,0.185,0.0494,0.0,0.0,0.0,0.0,0.0,0.0,0.0,0.3587,0.3587,0.339,0.325,0.325,0.2999,0.2887,0.3082,0.2861,0.2693,0.2693,0.0,0.0,0.0,0.0,0.0,0.0,0.0,0.0,0.0,0.0,0.7814,0.8254,0.9116,0.9702,0.0,0.0,1.0005,0.9954,0.0,0.0,0.0,0.0,0.0,0.0,0.0,0.0,0.0,0.0,0.0,0.0,0.0,0.0,0.0,0.0,0.0,0.0,0.0,0.0,0.0,0.0,1.0692,1.0692,1.0692,1.0692,1.0692,1.0692,1.0862,1.1041,0.0,0.0,1.1341,1.1298,1.1212,1.1091,1.0849,1.0789,1.0789,1.0789,1.0728,1.0637,1.0637,1.0365,1.0152,1.0152,0.0,0.9792,0.9792,0.9792,0.9792,0.9792,0.9792,0.9792,0.9792,0.9792,0.964,0.9305,0.9217,0.8943,0.84,0.8308,0.8119,0.7903,0.7903,0.7903,0.7903,0.7903,0.7686,0.7255,0.6305,0.5477,0.4616,0.2773,0.228,0.2555,0.0709,0.0586,0.1296,0.0339,0.0,0.0,0.0,0.0,0.0,0.0,0.0,0.0,0.3587,0.3587,0.3587,0.3587,0.3306,0.3109,0.3109,0.2861,0.2693,0.2693,0.0,0.0,0.0,0.0,0.0,0.0,0.0,0.0,0.0,0.0,0.6563,0.8892,0.8896,0.953,1.0692,1.0692,1.0555,1.0284,0.0,0.0,0.0,0.0,0.0,0.0,0.0,0.0,0.0,0.0,0.0,0.0,0.0,0.0,0.0,0.0,0.0,0.0,0.0,1.0692,1.0692,0.0,1.0692,1.0692,1.0692,1.0692,1.0692,1.0692,1.0862,1.1041,0.0,0.0,1.1074,1.1268,1.1031,1.0789,1.0789,1.0789,1.0789,1.0789,1.0516,1.0304,1.0304,1.0035,0.9792,0.0,0.9792,0.9792,0.9792,0.9792,0.9792,0.9792,0.9792,0.9792,0.9792,0.9792,0.964,0.9305,0.9034,0.8732,0.84,0.8058,0.7903,0.7903,0.7903,0.7903,0.7903,0.7903,0.7164,0.5906,0.5906,0.4432,0.2035,0.2004,0.1234,0.0031,0.0,0.0,0.0031,0.0,0.0,0.0,0.0,0.0,0.0,0.0,0.0,0.0,0.0,0.3587,0.3587,0.3587,0.3503,0.3446,0.3446,0.3167,0.2971,0.2971,0.0,0.0,0.0,0.0,0.0,0.0,0.0,0.0,0.0,0.0,0.5759,0.6508,0.7282,0.8278,0.9475,0.9475,0.986,1.0582,1.0582,1.0417,0.0,0.0,0.0,0.0,0.0,0.0,0.0,0.0,0.0,0.0,0.0,0.0,0.0,0.0,0.0,0.0,0.0,0.0,0.0,1.0692,1.0692,1.0692,1.0692,1.0692,1.0692,1.0692,1.0691,1.0702,1.0839,1.0782,1.0718,1.0635,1.0516,1.0395,1.0152,1.0126,1.0126,1.0126,1.0031,0.9974,0.0,0.0,0.0,0.9792,0.9792,0.9792,0.9792,0.9792,0.9792,0.9792,0.9792,0.9792,0.9792,0.9579,0.9339,0.9037,0.8946,0.8638,0.8058,0.7964,0.7903,0.7903,0.7903,0.7903,0.7869,0.695,0.6305,0.5814,0.4002,0.2773,0.1942,0.1018,0.037,0.0,0.0,0.0,0.0,0.0,0.0,0.0,0.0,0.0,0.0,0.0,0.0,0.0,0.0,0.3587,0.3587,0.3587,0.3587,0.3587,0.3587,0.3418,0.3278,0.3278,0.0,0.0,0.0,0.0,0.0,0.0,0.0,0.0,0.0,0.4143,0.4812,0.5399,0.6116,0.7282,0.8892,0.8892,0.9557,1.0692,1.0692,1.061,0.0,0.0,0.0,0.0,0.0,0.0,1.0692,0.0,0.0,0.0,0.0,0.0,0.0,0.0,0.0,0.0,0.0,0.0,0.0,0.0,1.0692,1.0692,1.0692,1.0637,1.0555,1.0555,1.0437,1.0367,0.0,0.0,1.0376,1.0261,1.0144,1.0061,0.9849,0.9792,0.9792,0.9792,0.9792,0.9792,0.9792,0.0,0.0,0.9792,0.9792,0.9792,0.9792,0.9792,0.9792,0.9792,0.9792,0.9761,0.9609,0.9427,0.9126,0.8732,0.8705,0.8458,0.7903,0.7903,0.7903,0.7903,0.738,0.7136,0.7103,0.6274,0.5354,0.437,0.3202,0.2157,0.0,0.0339,0.0,0.0,0.0,0.0,0.0,0.0,0.0,0.0,0.0,0.0,0.0,0.0,0.0,0.0,0.0,0.3587,0.3587,0.3587,0.3587,0.3587,0.3587,0.3587,0.3587,0.3587,0.0,0.0,0.0,0.0,0.0,0.0,0.0,0.0,0.0,0.3082,0.378,0.5204,0.5232,0.6397,0.8616,0.8727,0.942,1.0582,1.0665,1.0692,0.0,0.0,0.0,0.0,1.0692,1.0692,0.0,0.0,0.0,0.0,0.0,0.0,0.0,0.0,0.0,0.0,0.0,0.0,0.0,0.0,0.0,0.0,0.0,1.05,1.0284,1.0257,1.0151,1.004,1.0047,0.0,0.0,1.0047,0.9924,0.9778,0.9788,0.9792,0.9792,0.9792,0.9792,0.9792,0.0,0.9792,0.0,0.0,0.9792,0.9792,0.9792,0.9792,0.9792,0.9792,0.9788,0.964,0.9308,0.9247,0.8973,0.843,0.8369,0.8214,0.7903,0.7903,0.7903,0.7869,0.6644,0.5998,0.5906,0.5814,0.437,0.2065,0.314,0.2248,0.0,0.0,0.0,0.0,0.0,0.0,0.0,0.0,0.0,0.0,0.0,0.0,0.0,0.0,0.0,0.0,0.0,0.0,0.0,0.0,0.3587,0.3587,0.3587,0.3587,0.3587,0.0,0.0,0.0,0.0,0.0,0.0,0.0,0.0,0.0,0.0,0.2806,0.2973,0.3337,0.353,0.4392,0.5864,0.7002,0.8168,0.9364,1.0276,1.0692,0.0,0.0,0.0,0.0,1.0692,1.0692,0.0,0.0,0.0,0.0,1.0692,1.0692,0.0,0.0,0.0,0.0,0.0,0.0,0.0,0.0,1.0555,1.0394,1.0394,0.0,1.0229,0.9981,0.9735,0.96,0.0,0.0,0.0,0.0,0.0,0.9693,0.9771,0.9792,0.9792,0.9792,0.9792,0.9792,0.9792,0.9792,0.0,0.9792,0.9792,0.9792,0.9792,0.9792,0.9792,0.9792,0.9548,0.9396,0.9305,0.8854,0.8552,0.84,0.815,0.7994,0.7903,0.7903,0.7903,0.7903,0.7594,0.6888,0.5876,0.4829,0.3509,0.1973,0.1233,0.0555,0.0,0.0,0.0,0.0,0.0,0.0,0.0,0.0,0.0,0.0,0.0,0.0,0.0,0.0,0.0,0.0,0.0,0.0,0.0,0.0,0.0,0.0,0.0,0.0,0.0,0.0,0.0,0.0,0.0,0.0,0.0,0.0,0.0,0.0,0.2469,0.2469,0.2553,0.2693,0.2833,0.3585,0.492,0.6276,0.7639,0.8947,1.0166,1.0692,0.0,0.0,0.0,0.0,1.0692,0.0,0.0,0.0,0.0,0.0,1.0692,1.0692,0.0,1.0692,1.0692,1.0692,0.0,0.0,0.0,0.0,1.061,1.0421,1.0147,0.9981,0.9844,0.9655,0.9379,0.9179,0.9259,0.0,0.0,0.0,0.0,0.953,0.9605,0.9618,0.9642,0.971,0.9663,0.0,0.0,0.0,0.9792,0.9792,0.9792,0.9792,0.9792,0.9792,0.9792,0.9792,0.9488,0.9244,0.9126,0.8671,0.8339,0.8183,0.7994,0.7903,0.7903,0.7903,0.7903,0.7869,0.6639,0.5688,0.4952,0.3632,0.2311,0.108,0.0956,0.0555,0.0,0.0,0.0,0.0,0.0,0.0,0.0,0.0,0.0,0.0,0.0,0.0,0.0,0.0,0.0,0.0,0.0,0.0,0.0,0.0,0.0,0.0,0.0,0.0,0.0,0.0,0.0,0.0,0.0,0.0,0.0,0.0,0.0,0.1936,0.2132,0.2132,0.2272,0.2553,0.2665,0.3335,0.4587,0.5889,0.736,0.8947,0.997,1.0527,0.0,0.0,0.0,0.0,1.0665,0.0,0.0,0.0,0.0,0.0,0.0,0.0,0.0,1.0637,1.061,1.0555,1.0555,0.0,0.0,0.0,0.0,0.0,0.9899,0.9541,0.9323,0.9323,0.9103,0.8912,0.8912,0.0,0.0,0.0,0.0,0.0,0.0,0.941,0.0,0.0,0.0,0.0,0.9557,0.968,0.9734,0.9754,0.9758,0.9768,0.9788,0.9792,0.9788,0.9731,0.9427,0.9126,0.8824,0.8522,0.8183,0.7903,0.7903,0.7903,0.7903,0.7686,0.7594,0.7564,0.5073,0.3784,0.3569,0.2495,0.1265,0.0062,0.1203,0.1049,0.0,0.0,0.0,0.0,0.0,0.0,0.0,0.0,0.0,0.0,0.0,0.0,0.0,0.0,0.0,0.0,0.0,0.0,0.0,0.0,0.0,0.0,0.0,0.0,0.0,0.0,0.0,0.0,0.0,0.0,0.0,0.0,0.2188,0.2048,0.1851,0.1851,0.1879,0.1936,0.2441,0.2806,0.3085,0.4784,0.6785,0.8923,0.9089,0.975,1.0692,0.0,0.0,1.0692,1.0445,0.0,0.0,0.0,0.0,0.0,0.0,0.0,0.0,1.0363,1.017,0.9926,0.9926,0.0,0.0,0.0,0.0,0.0,0.9541,0.9213,0.8964,0.8964,0.8937,0.8912,0.8912,0.0,0.0,0.0,0.0,0.0,0.0,0.941,0.9417,0.0,0.0,0.942,0.9441,0.9435,0.9496,0.9629,0.9642,0.969,0.9778,0.9792,0.967,0.9396,0.9126,0.8824,0.8491,0.815,0.7964,0.7903,0.7903,0.7903,0.7903,0.6766,0.6213,0.6182,0.4643,0.3324,0.2281,0.2096,0.1265,0.0,0.0216,0.0185,0.0,0.0,0.0,0.0,0.0,0.0,0.0,0.0,0.0,-0.0031,0.0,0.0,0.0,0.0,0.0,0.0,0.0,0.0,0.0,0.0,0.0,0.0,0.0,0.0,0.0,0.0,0.0,0.0,0.0,0.0,0.0,0.2216,0.2048,0.1936,0.1795,0.1936,0.1936,0.1795,0.2216,0.2441,0.2496,0.4947,0.703,0.8723,0.953,1.0111,1.0476,1.0339,1.0284,1.0229,0.0,0.0,0.0,0.0,0.0,0.0,0.0,0.0,0.0,0.0,1.0091,0.9789,0.9789,0.0,0.0,0.0,0.0,0.0,0.9461,0.9296,0.913,0.8937,0.8912,0.8912,0.8912,0.0,0.0,0.0,0.0,0.0,0.0,0.0,0.9144,0.9144,0.9276,0.9383,0.9298,0.9356,0.9439,0.9591,0.9608,0.9666,0.9775,0.9792,0.967,0.9335,0.9065,0.8763,0.843,0.8089,0.7903,0.7903,0.7903,0.7903,0.7903,0.5841,0.5168,0.5876,0.3847,0.2557,0.1973,0.1265,0.0586,0.0,0.0,0.0,0.0,0.0,0.0,0.0,0.0,0.0,0.0,0.0,-0.0123,-0.0309,0.0,0.0,0.0,0.0,0.0,0.0,0.0,0.0,0.0,0.0,0.0,0.0,0.0,0.0,0.0,0.0,0.0,0.0,0.0,0.0,0.2525,0.2132,0.1907,0.1795,0.1795,0.1992,0.202,0.1795,0.2076,0.2272,0.2467,0.4777,0.6689,0.822,0.9275,0.9974,1.0284,1.0147,0.9981,0.9816,0.0,0.0,0.0,0.0,0.0,0.0,0.0,0.0,0.0,0.0,0.0,0.0,0.0,0.0,0.0,0.9623,0.9651,0.9651,0.9351,0.9296,0.9213,0.8968,0.0,0.8912,0.8912,0.0,0.0,0.0,0.0,0.0,0.0,0.8912,0.0,0.8912,0.9102,0.9235,0.9148,0.923,0.9334,0.9486,0.9534,0.9612,0.9727,0.9711,0.9548,0.9217,0.8946,0.8644,0.8308,0.8027,0.7903,0.7903,0.7903,0.7903,0.7903,0.5226,0.4429,0.5414,0.2773,0.1542,0.1511,0.0463,0.0,0.0,0.0,0.0,0.0,0.0,0.0,0.0,0.0,0.0,0.0,0.0,-0.0216,-0.0556,0.0,0.0,0.0,0.0,0.0,0.0,0.0,0.0,0.0,0.0,0.0,0.0,0.0,0.0,0.0,0.0,0.0,0.0,0.0,0.0,0.2441,0.1851,0.1823,0.1795,0.1795,0.1823,0.1823,0.1795,0.2076,0.2495,0.3054,0.3249,0.4723,0.7193,0.706,0.8226,1.0257,0.9706,0.9596,0.9789,0.9541,0.0,0.0,0.0,0.0,0.0,0.0,0.0,0.0,0.0,0.0,0.0,0.0,0.0,0.9379,0.9047,0.9185,0.9351,0.902,0.8937,0.8937,0.8912,0.8912,0.0,0.8912,0.8912,0.0,0.8912,0.0,0.0,0.0,0.8912,0.8912,0.8912,0.8929,0.894,0.8929,0.8936,0.8997,0.9196,0.9339,0.9456,0.9608,0.9442,0.9217,0.8946,0.861,0.8305,0.7964,0.7903,0.7903,0.7903,0.7903,0.7903,0.7903,0.5226,0.3937,0.3999,0.1387,0.0154,0.0154,0.0031,0.0,0.0,0.0,0.0,0.0,0.0,0.0,0.0,0.0,0.0,0.0,0.0,-0.0216,-0.0556,0.0,0.0,0.0,0.0,0.0,0.0,0.0,0.0,0.0,0.0,0.0,0.0,0.0,0.0,0.0,0.0,0.0,0.0,0.0,0.0,0.23,0.2048,0.1879,0.1795,0.1795,0.1964,0.1964,0.1795,0.1907,0.2159,0.2551,0.3301,0.4303,0.5556,0.6891,0.7922,0.8647,0.9178,0.9351,0.9241,0.9351,0.9544,0.0,0.0,0.0,0.0,0.0,0.0,0.0,0.0,0.9185,0.8771,0.8017,0.7875,0.7959,0.7823,0.7875,0.8097,0.8743,0.8353,0.7962,0.8716,0.8325,0.0,0.0,0.7792,0.7792,0.7792,0.7792,0.0,0.0,0.0,0.8912,0.8912,0.8912,0.8912,0.8912,0.8912,0.8963,0.9162,0.9318,0.9442,0.9595,0.9409,0.9186,0.8915,0.8583,0.8244,0.7933,0.7903,0.7903,0.7903,0.7903,0.7903,0.7903,0.6057,0.4737,0.3875,0.1264,0.0,0.0,0.0,0.0,0.0,0.0,0.0,0.0,0.0,0.0,0.0,0.0,0.0,0.0,0.0,-0.034,-0.0833,0.0,0.0,0.0,0.0,0.0,0.0,0.0,0.0,0.0,0.0,0.0,0.0,0.0,0.0,0.0,0.0,0.0,0.0,0.0,0.2439,0.216,0.2076,0.1907,0.1795,0.1795,0.1992,0.1992,0.1795,0.1879,0.202,0.2216,0.3163,0.3914,0.4554,0.6056,0.6838,0.7091,0.7814,0.8208,0.8353,0.8571,0.8961,0.0,0.0,0.0,0.0,0.0,0.0,0.0,0.0,0.8823,0.8186,0.7349,0.6844,0.6563,0.6563,0.6563,0.673,0.7568,0.7457,0.7207,0.0,0.0,0.0,0.6174,0.6566,0.7096,0.7096,0.7404,0.7934,0.8743,0.0,0.8912,0.8912,0.8912,0.8912,0.8912,0.8912,0.8946,0.9104,0.9288,0.9393,0.938,0.9262,0.9065,0.8766,0.8427,0.815,0.7903,0.7903,0.7903,0.7903,0.7903,0.7903,0.7903,0.658,0.5444,0.449,0.188,0.0401,0.0,0.0,0.0,0.0,0.0,0.0,0.0,0.0,0.0,0.0,0.0,0.0,0.0,-0.0123,-0.0525,-0.1019,0.0,0.0,0.0,0.0,0.0,0.0,0.0,0.0,0.0,0.0,0.0,0.0,0.0,0.0,0.0,0.0,0.0,0.0,0.2216,0.2188,0.2076,0.1823,0.1795,0.1795,0.1795,0.1795,0.1795,0.1795,0.2076,0.2188,0.2216,0.2525,0.3334,0.4472,0.4139,0.467,0.5755,0.55,0.6061,0.7096,0.7096,0.8014,0.9406,0.0,0.0,0.0,0.0,0.0,0.0,0.0,0.8072,0.7068,0.7068,0.6283,0.5389,0.5389,0.5389,0.5389,0.5417,0.6228,0.6788,0.0,0.0,0.0,0.4137,0.5421,0.7096,0.7096,0.8072,0.8912,0.8912,0.8912,0.8912,0.8912,0.8912,0.8912,0.8912,0.8912,0.8912,0.8912,0.9198,0.9265,0.892,0.8905,0.8763,0.843,0.8089,0.7903,0.7903,0.7903,0.7903,0.7903,0.7903,0.7903,0.7903,0.6582,0.5906,0.5876,0.3265,0.1326,0.0031,0.0,0.0,0.0,0.0,0.0,0.0,0.0,0.0,0.0,0.0,0.0,-0.0031,-0.037,-0.071,-0.105,0.0,0.0,0.0,0.0,0.0,0.0,0.0,0.0,0.0,0.0,0.0,0.0,0.0,0.0,0.0,0.0,0.0,0.0,0.2216,0.202,0.1879,0.1795,0.1795,0.1795,0.1795,0.1795,0.1795,0.1795,0.1879,0.202,0.2188,0.2104,0.2355,0.2913,0.347,0.3916,0.4305,0.5083,0.6061,0.7041,0.6228,0.7174,0.8964,0.0,0.0,0.0,0.0,0.0,0.0,0.0,0.0,0.0,0.4918,0.4416,0.4137,0.4137,0.4137,0.45,0.6146,0.5644,0.0,0.6258,0.0,0.0,0.0,0.5417,0.0,0.0,0.8072,0.8912,0.8912,0.8912,0.8912,0.8912,0.8912,0.8912,0.8912,0.8912,0.8912,0.8912,0.9106,0.9176,0.8936,0.8785,0.86,0.8424,0.8089,0.7903,0.7903,0.7903,0.7903,0.7903,0.7903,0.7903,0.7903,0.7503,0.6827,0.5876,0.4154,0.2648,0.1388,0.0432,0.0,0.0,0.0,0.0,0.0,0.0,0.0,0.0,0.0,-0.0154,-0.037,-0.0463,-0.0864,-0.1361,0.0,0.0,0.0,0.0,0.0,0.0,0.0,0.0,0.0,0.0,0.3253,0.3169,0.0,0.0,0.0,0.2525,0.2216,0.0,0.0,0.0,0.1795,0.1795,0.1795,0.1795,0.1795,0.1795,0.1795,0.1795,0.1907,0.1992,0.2048,0.1992,0.1992,0.2076,0.2633,0.2884,0.2939,0.3664,0.4639,0.5644,0.4973,0.5808,0.7426,0.0,0.0,0.0,0.0,0.0,0.0,0.0,0.0,0.0,0.383,0.3274,0.2884,0.2884,0.2884,0.3191,0.4613,0.4306,0.0,0.4754,0.4641,0.4611,0.5808,0.0,0.0,0.0,0.8072,0.8912,0.8912,0.8912,0.8912,0.8912,0.8912,0.8912,0.8912,0.8912,0.8854,0.874,0.8894,0.8873,0.8581,0.8482,0.8375,0.8202,0.8025,0.7903,0.7903,0.7903,0.7903,0.7903,0.7903,0.7903,0.7903,0.7903,0.7503,0.6674,0.532,0.4,0.2679,0.0833,0.0,0.0,0.0,0.0,0.0,0.0,0.0,0.0,0.0,-0.0216,-0.0525,-0.0653,-0.1028,-0.1529,0.0,0.0,0.2272,0.2553,0.0,0.0,0.0,0.0,0.0,0.2693,0.2693,0.2693,0.0,0.0,0.0,0.216,0.1936,0.1795,0.0,0.0,0.1795,0.1795,0.1795,0.1795,0.1795,0.1795,0.1795,0.1795,0.2048,0.2048,0.1795,0.2048,0.2048,0.1795,0.1795,0.1795,0.1795,0.1795,0.2493,0.358,0.3469,0.4221,0.5389,0.5278,0.0,0.0,0.0,0.0,0.0,0.0,0.0,0.0,0.3441,0.2688,0.1795,0.1795,0.1795,0.1823,0.1935,0.0,0.0,0.2381,0.386,0.0,0.6871,0.7179,0.7263,0.7263,0.0,0.8912,0.8912,0.8912,0.8912,0.8912,0.8912,0.8912,0.8912,0.8881,0.8768,0.854,0.8572,0.8454,0.8038,0.811,0.809,0.7906,0.7897,0.7903,0.7903,0.7903,0.7903,0.7903,0.7903,0.7903,0.7903,0.7903,0.7903,0.7869,0.6552,0.5199,0.3815,0.1326,0.0123,0.0,0.0,0.0,0.0,0.0,0.0,0.0,-0.0031,-0.0247,-0.0589,-0.0944,-0.1265,-0.1615,0.0,0.0,0.1907,0.1992,0.0,0.0,0.0,0.0,0.2413,0.2665,0.2693,0.2609,0.2328,0.2244,0.0,0.1907,0.1823,0.1795,0.1795,0.0,0.1795,0.1795,0.1795,0.1795,0.1795,0.1795,0.1795,0.1795,0.1851,0.1851,0.1795,0.1851,0.1851,0.1795,0.1795,0.1795,0.1795,0.1795,0.2493,0.3525,0.2576,0.3469,0.5306,0.436,0.4582,0.0,0.0,0.0,0.0,0.0,0.0,0.0,0.2186,0.2019,0.1795,0.1795,0.1795,0.2019,0.2967,0.3413,0.0,0.0,0.5697,0.6788,0.7041,0.7823,0.8519,0.8519,0.8716,0.8912,0.8912,0.8912,0.8912,0.8912,0.8912,0.8912,0.8912,0.8712,0.8571,0.8512,0.8291,0.8055,0.7872,0.7977,0.796,0.7758,0.7851,0.7903,0.7903,0.7903,0.7903,0.7903,0.7903,0.7903,0.7903,0.7903,0.7903,0.7869,0.6552,0.5199,0.3845,0.228,0.0987,0.0,0.0,0.0,0.0,0.0,0.0,-0.0031,-0.0281,-0.0597,-0.0945,-0.1341,-0.1669,-0.1994,0.0,0.0,0.0,0.0,0.0,0.0,0.0,0.0,0.2085,0.2242,0.2272,0.2216,0.202,0.202,0.0,0.0,0.1795,0.1795,0.1795,0.1795,0.1795,0.1795,0.1795,0.1795,0.1795,0.1795,0.1795,0.1795,0.1795,0.0,0.0,0.0,0.1795,0.1795,0.1795,0.1795,0.1795,0.1795,0.2158,0.2688,0.2046,0.2549,0.3608,0.2967,0.3135,0.0,0.0,0.0,0.0,0.0,0.0,0.0,0.0,0.0,0.1795,0.1795,0.1795,0.1935,0.2576,0.0,0.0,0.578,0.0,0.7263,0.7823,0.8436,0.8912,0.8912,0.8912,0.8912,0.8912,0.8912,0.8912,0.8912,0.8912,0.8854,0.874,0.8598,0.8401,0.81,0.7909,0.7737,0.7579,0.762,0.768,0.7687,0.7758,0.7842,0.79,0.7903,0.7903,0.7903,0.7903,0.7903,0.7903,0.7903,0.7903,0.7903,0.7194,0.581,0.3845,0.191,0.0648,0.0,0.0,0.0,0.0,0.0,0.0,-0.0031,-0.0378,-0.0698,-0.1055,-0.1459,-0.1825,-0.209,0.0,0.0,0.0,0.0,0.0,0.0,0.0,0.0,0.0,0.1792,0.1795,0.1795,0.1795,0.1795,0.1795,0.0,0.0,0.0,0.1795,0.1795,0.1795,0.1795,0.1795,0.1795,0.1795,0.1795,0.1795,0.1795,0.0,0.0,0.0,0.0,0.0,0.1795,0.1795,0.1795,0.1795,0.1795,0.1795,0.1795,0.1795,0.1795,0.1795,0.1795,0.0,0.0,0.0,0.1795,0.1795,0.1795,0.0,0.0,0.0,0.0,0.1795,0.1795,0.1795,0.1851,0.2046,0.0,0.4723,0.6871,0.7404,0.0,0.866,0.8912,0.8912,0.8912,0.8912,0.8912,0.8912,0.8912,0.8912,0.8912,0.8854,0.874,0.854,0.8401,0.8156,0.7662,0.7551,0.7477,0.7296,0.7313,0.7422,0.7655,0.7706,0.7771,0.7897,0.7903,0.7903,0.7903,0.7903,0.7903,0.7903,0.7903,0.7903,0.7903,0.7655,0.6272,0.3815,0.1418,0.0216,0.0,0.0,0.0,0.0,0.0,-0.0031,-0.0126,-0.0476,-0.0801,-0.1167,-0.1546,-0.1885,-0.2121,0.0,0.0,0.0,0.0,0.0,0.0,0.0,0.0,0.0,0.0,0.1795,0.1795,0.1795,0.1795,0.1795,0.1795,0.1795,0.1795,0.1795,0.0,0.0,0.1795,0.1795,0.1795,0.1795,0.1795,0.1795,0.1795,0.0,0.0,0.0,0.0,0.0,0.1795,0.0,0.0,0.1795,0.1795,0.1795,0.1795,0.1795,0.1795,0.1795,0.0,0.0,0.0,0.0,0.0,0.1795,0.1795,0.1795,0.0,0.0,0.0,0.1795,0.1795,0.1795,0.2018,0.0,0.0,0.6957,0.0,0.866,0.8716,0.0,0.0,0.8912,0.8912,0.8912,0.8912,0.8912,0.8912,0.8912,0.8912,0.8712,0.854,0.8512,0.8045,0.769,0.7607,0.7407,0.7246,0.7204,0.7369,0.7479,0.7511,0.7733,0.7886,0.79,0.7903,0.7903,0.7903,0.7903,0.7903,0.7903,0.7903,0.7903,0.79,0.6735,0.5383,0.3844,0.2403,0.1111,0.0,0.0,0.0,0.0,0.0,-0.0158,-0.0475,-0.0876,-0.1213,-0.158,-0.1971,-0.2148,-0.2183,0.0,0.0,0.0,0.0,0.0,0.0,0.0,0.0,0.0,0.0,0.0,0.1795,0.1795,0.1795,0.1795,0.1795,0.1795,0.1795,0.1795,0.1795,0.1795,0.1795,0.1795,0.1795,0.1795,0.1795,0.1795,0.0,0.0,0.0,0.0,0.1795,0.1795,0.0,0.0,0.0,0.0,0.1795,0.1795,0.1795,0.1795,0.1795,0.0,0.0,0.0,0.0,0.0,0.0,0.0,0.0,0.1795,0.1795,0.1795,0.0,0.0,0.0,0.1795,0.2214,0.4109,0.5838,0.7404,0.0,0.8912,0.8912,0.8912,0.8912,0.8912,0.8912,0.8912,0.8912,0.8912,0.8912,0.8912,0.8912,0.8685,0.8429,0.8235,0.7854,0.7551,0.7379,0.7268,0.721,0.721,0.7315,0.7416,0.7484,0.7679,0.7834,0.79,0.7903,0.7903,0.7903,0.7903,0.7903,0.7903,0.7903,0.7903,0.7869,0.6552,0.5199,0.3844,0.2588,0.1265,0.0,0.0,0.0,0.0,0.0,-0.0191,-0.0551,-0.0951,-0.1292,-0.1635,-0.2049,-0.2188,-0.2188,0.0,0.0,0.0,0.0,0.0,0.0,0.0,0.0,0.0,0.0,0.0,0.1795,0.1795,0.0,0.0,0.0,0.1795,0.1795,0.1795,0.1795,0.1795,0.1795,0.1795,0.1795,0.1795,0.1795,0.0,0.0,0.0,0.0,0.1795,0.1795,0.1795,0.0,0.1795,0.0,0.0,0.0,0.0,0.0,0.0,0.0,0.0,0.0,0.0,0.0,0.0,0.0,0.0,0.0,0.0,0.1795,0.1795,0.1795,0.0,0.0,0.0,0.0,0.0,0.0,0.7404,0.8602,0.8912,0.8912,0.0,0.0,0.8912,0.8912,0.8912,0.8881,0.8799,0.8854,0.8881,0.8799,0.8571,0.8266,0.7937,0.766,0.7438,0.721,0.721,0.7196,0.7226,0.7312,0.7403,0.7554,0.7676,0.7782,0.7897,0.7903,0.7903,0.7903,0.7903,0.7903,0.7903,0.7903,0.7903,0.7903,0.6888,0.5535,0.3875,0.2925,0.1576,0.0,0.0,0.0,0.0,-0.0095,-0.0323,-0.0692,-0.1091,-0.1434,-0.1784,-0.2087,-0.2188,-0.2188,0.0,0.0,0.0,0.0,0.0,0.0,0.0,0.0,0.0,0.0,0.0,0.1795,0.1795,0.1795,0.1795,0.1795,0.1795,0.1795,0.1795,0.1795,0.1795,0.1795,0.1795,0.0,0.1795,0.1795,0.0,0.0,0.0,0.0,0.1795,0.1795,0.1795,0.1795,0.1795,0.1795,0.1795,0.0,0.0,0.0,0.0,0.0,0.0,0.0,0.0,0.0,0.0,0.0,0.0,0.0,0.0,0.0,0.0,0.1795,0.1795,0.0,0.0,0.0,0.0,0.6228,0.0,0.8602,0.8912,0.8912,0.0,0.8912,0.8912,0.8912,0.8912,0.8826,0.8571,0.874,0.8826,0.8571,0.8235,0.7934,0.7662,0.7379,0.721,0.721,0.721,0.7226,0.7286,0.7408,0.7559,0.7684,0.7829,0.7897,0.7903,0.7903,0.7903,0.7903,0.7903,0.7903,0.7903,0.7903,0.7903,0.7903,0.7841,0.6425,0.3905,0.3845,0.2421,0.0,0.0,0.0,-0.0032,-0.0358,-0.0724,-0.1089,-0.1438,-0.1816,-0.2155,-0.2188,-0.2188,-0.2188,0.0,0.0,0.0,0.0,0.0,0.0,0.0,0.0,0.0,0.0,0.0,0.0,0.0,0.1795,0.1795,0.1795,0.1795,0.1795,0.1795,0.1795,0.1795,0.1795,0.1795,0.1795,0.1795,0.1795,0.0,0.0,0.0,0.1795,0.1795,0.1795,0.1795,0.1795,0.1795,0.1795,0.1795,0.1795,0.0,0.0,0.0,0.0,0.0,0.0,0.0,0.0,0.0,0.0,0.0,0.0,0.0,0.0,0.0,0.0,0.0,0.0,0.0,0.0,0.0,0.0,0.0,0.8799,0.8912,0.8912,0.8912,0.8912,0.8912,0.8912,0.8768,0.8626,0.8512,0.8571,0.8543,0.8239,0.7937,0.7715,0.7607,0.7379,0.721,0.721,0.721,0.7229,0.7297,0.7419,0.757,0.7693,0.7837,0.7903,0.7903,0.7903,0.7903,0.7903,0.7903,0.7903,0.7903,0.7903,0.7903,0.7903,0.7041,0.5657,0.3876,0.3045,0.1693,0.0,0.0,-0.013,-0.0325,-0.0459,-0.0861,-0.1437,-0.1545,-0.1851,-0.2188,-0.2188,-0.2188,-0.2188,0.0,0.0,0.0,0.0,0.0,0.1795,0.0,0.0,0.0,0.0,0.0,0.0,0.0,0.0,0.1795,0.1795,0.1795,0.1795,0.1795,0.1795,0.1795,0.1795,0.1795,0.1795,0.1795,0.0,0.0,0.0,0.0,0.0,0.0,0.1795,0.1795,0.1795,0.1795,0.1795,0.0,0.0,0.0,0.1795,0.0,0.0,0.1795,0.0,0.0,0.0,0.0,0.0,0.0,0.0,0.0,0.0,0.0,0.0,0.0,0.0,0.0,0.0,0.514,0.0,0.0,0.0,0.8602,0.8633,0.8743,0.8688,0.8633,0.874,0.8543,0.8291,0.8211,0.8211,0.8128,0.7909,0.7715,0.7579,0.7465,0.7324,0.721,0.721,0.7218,0.7263,0.7357,0.7479,0.763,0.775,0.7859,0.7903,0.7903,0.7903,0.7903,0.7903,0.7903,0.7903,0.7903,0.7903,0.7903,0.7869,0.6552,0.5212,0.3845,0.2569,0.1204,-0.016,-0.0163,-0.0297,-0.0494,-0.0629,-0.1068,-0.1616,-0.175,-0.1953,-0.2188,-0.2188,-0.2188,-0.2188,0.0,0.1795,0.1795,0.1795,0.1795,0.1795,0.1795,0.0,0.0,0.0,0.0,0.0,0.0,0.0,0.0,0.1795,0.1795,0.1795,0.1795,0.1795,0.1795,0.1795,0.1795,0.1795,0.1795,0.0,0.0,0.0,0.0,0.0,0.0,0.0,0.1795,0.1795,0.1795,0.1795,0.1795,0.0,0.1795,0.1795,0.0,0.1795,0.1795,0.0,0.0,0.0,0.1795,0.1795,0.0,0.1795,0.0,0.0,0.0,0.0,0.0,0.0,0.0,0.0,0.0,0.0,0.0,0.0,0.7989,0.8072,0.8401,0.8235,0.81,0.8429,0.8211,0.7906,0.7635,0.7607,0.7579,0.7579,0.7579,0.7493,0.7238,0.721,0.7213,0.7215,0.7266,0.7357,0.7481,0.763,0.7747,0.7892,0.7903,0.7903,0.7903,0.7903,0.7903,0.7903,0.7903,0.7903,0.7903,0.7903,0.7903,0.7869,0.6493,0.5149,0.387,0.2552,0.1057,-0.0494,-0.0494,-0.0528,-0.0561,-0.097,-0.1313,-0.1649,-0.2054,-0.2188,-0.2188,-0.2188,-0.2188,-0.2188,0.1795,0.1795,0.1795,0.1795,0.1795,0.1795,0.0,0.0,0.0,0.0,0.0,0.0,0.0,0.0,0.1795,0.1795,0.1795,0.1795,0.1795,0.1795,0.1795,0.1795,0.1795,0.1795,0.1795,0.0,0.0,0.0,0.0,0.0,0.0,0.0,0.0,0.0,0.1795,0.1795,0.1795,0.1795,0.0,0.1795,0.1795,0.1795,0.0,0.0,0.0,0.0,0.0,0.1795,0.1795,0.0,0.1795,0.1795,0.0,0.0,0.0,0.0,0.0,0.0,0.5618,0.0,0.0,0.0,0.0,0.0,0.8128,0.8072,0.8017,0.8128,0.7909,0.769,0.7607,0.7438,0.7324,0.7324,0.7324,0.7296,0.721,0.721,0.7215,0.7277,0.7286,0.7389,0.763,0.7682,0.7747,0.7892,0.7903,0.7903,0.7903,0.7903,0.7903,0.7903,0.7903,0.7903,0.7903,0.7903,0.7903,0.7872,0.5565,0.4261,0.381,0.1578,0.0163,-0.0495,-0.05,-0.0803,-0.1305,-0.1411,-0.1683,-0.2054,-0.2155,-0.2188,-0.2188,-0.2188,-0.2188,-0.2188,0.1795,0.1795,0.1795,0.1795,0.1795,0.1795,0.0,0.0,0.0,0.0,0.0,0.0,0.0,0.0,0.0,0.1795,0.1795,0.1795,0.1795,0.1795,0.1795,0.1795,0.1795,0.1795,0.0,0.0,0.0,0.0,0.0,0.0,0.0,0.0,0.0,0.0,0.1795,0.1795,0.0,0.0,0.0,0.0,0.1795,0.0,0.0,0.1795,0.1795,0.0,0.0,0.0,0.1795,0.1795,0.1795,0.0,0.0,0.0,0.0,0.0,0.0,0.0,0.0,0.0,0.0,0.0,0.0,0.0,0.7798,0.774,0.7712,0.7798,0.7632,0.7438,0.7438,0.7296,0.721,0.721,0.721,0.721,0.721,0.721,0.7226,0.7294,0.7351,0.746,0.7684,0.7744,0.7832,0.7897,0.7903,0.7903,0.7903,0.7903,0.7903,0.7903,0.7903,0.7903,0.7903,0.7903,0.7618,0.7048,0.4918,0.3611,0.3048,0.0817,-0.0397,-0.0765,-0.0905,-0.1313,-0.1851,-0.1851,-0.1986,-0.2188,-0.2188,-0.2188,-0.2188,-0.2188,-0.2188,-0.2188,0.0,0.1795,0.1795,0.1795,0.1795,0.1795,0.0,0.0,0.0,0.0,0.0,0.0,0.0,0.0,0.0,0.0,0.1795,0.1795,0.1795,0.1795,0.0,0.0,0.0,0.0,0.0,0.0,0.0,0.0,0.0,0.0,0.0,0.0,0.0,0.0,0.1795,0.1795,0.1795,0.0,0.0,0.1795,0.1795,0.1795,0.0,0.0,0.1795,0.1795,0.1795,0.1795,0.1823,0.1963,0.1991,0.0,0.0,0.0,0.0,0.0,0.2938,0.0,0.0,0.0,0.0,0.0,0.721,0.0,0.7493,0.7379,0.7268,0.7493,0.7379,0.721,0.721,0.721,0.721,0.721,0.721,0.721,0.721,0.7193,0.7248,0.7313,0.7435,0.7587,0.7709,0.7842,0.7903,0.7903,0.7903,0.7903,0.7903,0.7903,0.7903,0.7903,0.7903,0.7903,0.7903,0.7916,0.7233,0.5884,0.4545,0.3239,0.1941,0.0264,-0.0732,-0.1111,-0.1447,-0.1818,-0.2188,-0.2188,-0.2188,-0.2188,-0.2188,-0.2188,-0.2188,-0.2188,-0.2188,-0.2188,0.1795,0.1795,0.1795,0.1795,0.1795,0.0,0.0,0.0,0.0,0.0,0.0,0.0,0.0,0.0,0.0,0.0,0.1795,0.1795,0.1795,0.0,0.0,0.0,0.0,0.0,0.0,0.0,0.0,0.0,0.0,0.0,0.0,0.0,0.0,0.0,0.1795,0.1795,0.1795,0.0,0.0,0.1795,0.1795,0.1795,0.1795,0.1795,0.1795,0.1795,0.1795,0.1795,0.1935,0.2912,0.3246,0.3273,0.0,0.0,0.0,0.2743,0.0,0.0,0.0,0.0,0.0,0.0,0.721,0.0,0.7265,0.7238,0.721,0.7268,0.7238,0.721,0.721,0.721,0.721,0.721,0.721,0.721,0.721,0.7239,0.7316,0.7438,0.7592,0.7712,0.7859,0.7889,0.7903,0.7903,0.7903,0.7903,0.7903,0.7903,0.7903,0.7903,0.7903,0.7903,0.7903,0.8001,0.7341,0.5886,0.4643,0.3336,0.1942,0.0267,-0.0705,-0.1111,-0.1447,-0.1818,-0.2188,-0.2188,-0.2188,-0.2188,-0.2188,-0.2188,-0.2188,-0.2188,-0.2188,-0.2188,0.1795,0.1795,0.1795,0.1795,0.0,0.0,0.0,0.0,0.0,0.0,0.0,0.0,0.0,0.0,0.0,0.0,0.0,0.0,0.0,0.0,0.0,0.0,0.0,0.0,0.0,0.0,0.0,0.0,0.0,0.0,0.0,0.0,0.0,0.0,0.0,0.0,0.0,0.0,0.1795,0.1795,0.1795,0.0,0.1795,0.1795,0.1795,0.1795,0.1795,0.1795,0.2074,0.3886,0.3692,0.0,0.4639,0.4721,0.4023,0.0,0.4165,0.5813,0.0,0.0,0.0,0.721,0.721,0.0,0.0,0.721,0.721,0.721,0.721,0.721,0.721,0.721,0.721,0.721,0.721,0.721,0.721,0.7258,0.7351,0.7476,0.7627,0.7747,0.7889,0.7903,0.7903,0.7903,0.7903,0.7903,0.7903,0.7903,0.7903,0.7903,0.7903,0.793,0.7993,0.8055,0.7066,0.4987,0.4376,0.2938,0.0732,-0.0335,-0.101,-0.138,-0.175,-0.202,-0.2188,-0.2188,-0.2188,-0.2188,-0.2188,-0.2188,-0.2188,-0.2188,-0.2188,-0.2188,0.1795,0.1795,0.1795,0.1795,0.0,0.0,0.0,0.0,0.0,0.0,0.0,0.0,0.0,0.0,0.0,0.0,0.0,0.0,0.0,0.0,0.0,0.0,0.0,0.1795,0.0,0.0,0.0,0.0,0.1795,0.0,0.0,0.0,0.0,0.0,0.0,0.0,0.0,0.0,0.0,0.1795,0.0,0.1795,0.1795,0.1795,0.1795,0.1795,0.1795,0.1795,0.213,0.4332,0.3719,0.252,0.5252,0.5224,0.0,0.0,0.0,0.0,0.0,0.0,0.0,0.0,0.0,0.721,0.0,0.0,0.0,0.721,0.721,0.721,0.721,0.721,0.721,0.721,0.721,0.7218,0.7215,0.7293,0.7378,0.7479,0.7646,0.7771,0.7892,0.7903,0.7903,0.7903,0.7903,0.7903,0.7903,0.7903,0.7903,0.7903,0.7924,0.7984,0.8083,0.7878,0.6517,0.411,0.3759,0.216,-0.0505,-0.0976,-0.1346,-0.1616,-0.202,-0.2188,-0.2188,-0.2188,-0.2188,-0.2188,-0.2188,-0.2188,-0.2188,-0.2188,-0.2188,-0.2188,0.1795,0.1795,0.1795,0.1795,0.0,0.0,0.0,0.0,0.0,0.0,0.0,0.0,0.0,0.0,0.0,0.0,0.0,0.0,0.216,0.0,0.0,0.0,0.0,0.0,0.1795,0.0,0.0,0.0,0.0,0.1795,0.0,0.0,0.0,0.0,0.1795,0.0,0.0,0.0,0.1795,0.0,0.1795,0.1795,0.0,0.1795,0.1795,0.1795,0.1795,0.1795,0.2019,0.3358,0.3412,0.3076,0.3747,0.5057,0.5641,0.2099,0.0,0.0,0.0,0.0,0.0,0.0,0.721,0.721,0.721,0.0,0.721,0.721,0.0,0.721,0.721,0.0,0.0,0.721,0.721,0.722,0.727,0.7392,0.7473,0.7487,0.7717,0.7886,0.79,0.7903,0.7903,0.7903,0.7903,0.7903,0.7903,0.7903,0.7903,0.7903,0.8006,0.8072,0.8085,0.7036,0.5699,0.4079,0.2598,0.1041,-0.0538,-0.1212,-0.1548,-0.1616,-0.202,-0.2188,-0.2188,-0.2188,-0.2188,-0.2188,-0.2188,-0.2188,-0.2188,-0.2188,-0.2188,-0.2188,0.1795,0.1795,0.1795,0.1795,0.0,0.0,0.0,0.0,0.0,0.0,0.0,0.0,0.0,0.0,0.0,0.0,0.0,0.2188,0.0,0.0,0.0,0.0,0.0,0.0,0.0,0.0,0.0,0.0,0.1795,0.0,0.1795,0.0,0.0,0.0,0.1795,0.0,0.1795,0.0,0.1795,0.0,0.0,0.1795,0.1795,0.1795,0.1795,0.1795,0.1795,0.1795,0.1991,0.3191,0.3051,0.2743,0.4947,0.5282,0.0,0.3356,0.0,0.0,0.0,0.0,0.6768,0.7099,0.7324,0.7379,0.7238,0.721,0.721,0.721,0.0,0.0,0.0,0.0,0.0,0.0,0.7242,0.7277,0.73,0.7473,0.7625,0.7625,0.7771,0.7903,0.7903,0.7903,0.7903,0.7903,0.7903,0.7903,0.7903,0.7903,0.7935,0.8006,0.8058,0.8154,0.8263,0.6725,0.5275,0.3891,0.2143,0.0437,-0.1144,-0.1447,-0.1717,-0.1953,-0.2121,-0.2188,-0.2188,-0.2188,-0.2188,-0.2188,-0.2188,-0.2188,-0.2188,-0.2188,-0.2188,-0.2188,0.1795,0.0,0.0,0.0,0.0,0.0,0.0,0.0,0.0,0.0,0.0,0.0,0.1907,0.2243,0.0,0.0,0.2328,0.23,0.0,0.0,0.1795,0.0,0.0,0.0,0.0,0.0,0.0,0.0,0.0,0.0,0.1795,0.0,0.0,0.0,0.0,0.1795,0.1795,0.0,0.1795,0.1795,0.1795,0.1795,0.1795,0.1795,0.1795,0.1795,0.1795,0.1795,0.1935,0.28,0.2465,0.2186,0.5198,0.514,0.4054,0.0,0.0,0.0,0.4611,0.5393,0.6624,0.668,0.6849,0.6935,0.6763,0.696,0.721,0.721,0.721,0.0,0.0,0.0,0.0,0.0,0.0,0.733,0.7397,0.7263,0.7277,0.7671,0.7832,0.7903,0.7903,0.7903,0.7903,0.7903,0.7903,0.7903,0.7903,0.7903,0.7957,0.808,0.7736,0.7625,0.782,0.577,0.4216,0.3187,0.1377,-0.0235,-0.1616,-0.1717,-0.1919,-0.2188,-0.2188,-0.2188,-0.2188,-0.2188,-0.2188,-0.2188,-0.2188,-0.2188,-0.2188,-0.2188,-0.2188,-0.2188,0.1795,0.1795,0.0,0.0,0.0,0.0,0.0,0.0,0.0,0.0,0.0,0.0,0.0,0.0,0.0,0.0,0.0,0.2553,0.2216,0.0,0.1795,0.0,0.0,0.1795,0.0,0.0,0.0,0.0,0.0,0.0,0.1795,0.0,0.0,0.0,0.1795,0.1795,0.1795,0.1795,0.1795,0.1795,0.1795,0.1795,0.1795,0.1795,0.1795,0.1795,0.1795,0.1795,0.1795,0.1851,0.1627,0.1598,0.3217,0.4247,0.4856,0.4882,0.575,0.6536,0.5894,0.4944,0.4329,0.5228,0.5455,0.5455,0.5455,0.6374,0.721,0.721,0.721,0.721,0.721,0.0,0.0,0.0,0.0,0.0,0.0,0.658,0.625,0.7551,0.7832,0.7903,0.7903,0.7903,0.7903,0.7903,0.7903,0.7903,0.7903,0.7903,0.7957,0.808,0.6853,0.6243,0.6372,0.3599,0.2016,0.1647,-0.0168,-0.1245,-0.1616,-0.1986,-0.2188,-0.2188,-0.2188,-0.2188,-0.2188,-0.2188,-0.2188,-0.2188,-0.2188,-0.2188,-0.2188,-0.2188,-0.2188,-0.2188,0.1795,0.0,0.0,0.0,0.0,0.0,0.0,0.1795,0.0,0.0,0.2132,0.0,0.0,0.2859,0.2999,0.0,0.0,0.2553,0.2216,0.1936,0.0,0.0,0.0,0.2186,0.0,0.0,0.0,0.0,0.0,0.0,0.1795,0.0,0.0,0.0,0.0,0.1795,0.0,0.0,0.0,0.0,0.0,0.3469,0.3998,0.2409,0.2297,0.2995,0.2995,0.3497,0.4193,0.4193,0.4109,0.4247,0.5504,0.5614,0.5331,0.5917,0.6392,0.6616,0.6225,0.6394,0.6478,0.5841,0.6262,0.6599,0.5622,0.6346,0.721,0.721,0.721,0.7207,0.7258,0.0,0.0,0.0,0.0,0.0,0.0,0.4761,0.4669,0.5127,0.521,0.5257,0.5257,0.6057,0.6211,0.5318,0.6088,0.618,0.5287,0.5246,0.5312,0.5455,0.5018,0.4829,0.4961,0.2612,0.1378,0.1243,-0.0841,-0.1885,-0.1986,-0.2155,-0.2188,-0.2188,-0.2188,-0.2188,-0.2188,-0.2188,-0.2188,-0.2188,-0.2188,-0.2188,-0.2188,-0.2188,-0.2188,-0.2188,0.1795,0.1795,0.0,0.0,0.0,0.0,0.0,0.0,0.0,0.0,0.23,0.0,0.2665,0.0,0.2999,0.0,0.2693,0.2553,0.2216,0.2354,0.0,0.3553,0.3274,0.3441,0.0,0.0,0.0,0.0,0.0,0.1795,0.0,0.0,0.0,0.0,0.0,0.1795,0.1795,0.1795,0.1795,0.0,0.0,0.4332,0.5222,0.3664,0.3553,0.4249,0.4249,0.4749,0.5389,0.5389,0.5389,0.5611,0.6733,0.6591,0.62,0.7204,0.7485,0.7426,0.7143,0.7229,0.7035,0.553,0.5671,0.5926,0.4979,0.5704,0.6692,0.7153,0.6881,0.672,0.7263,0.0,0.0,0.0,0.0,0.0,0.0,0.3212,0.3047,0.2555,0.3323,0.4091,0.4551,0.4952,0.5013,0.4643,0.4983,0.481,0.3936,0.3912,0.397,0.4083,0.3469,0.3277,0.3524,0.1377,0.0303,0.0303,-0.1245,-0.2054,-0.2188,-0.2188,-0.2188,-0.2188,-0.2188,-0.2188,-0.2188,-0.2188,-0.2188,-0.2188,-0.2188,-0.2188,-0.2188,-0.2188,-0.2188,-0.2188,0.1795,0.1796,0.1797,0.0,0.1798,0.1797,0.1797,0.2024,0.2222,0.0,0.2531,0.2729,0.2757,0.2979,0.3034,0.2757,0.2785,0.267,0.2303,0.3167,0.0,0.0,0.4804,0.5417,0.5472,0.0,0.0,0.0,0.0,0.0,0.0,0.0,0.0,0.0,0.1795,0.0,0.1795,0.1795,0.1879,0.2074,0.3302,0.4498,0.5584,0.5584,0.5584,0.5556,0.55,0.5528,0.5584,0.5584,0.5584,0.575,0.6844,0.7179,0.7404,0.8577,0.8912,0.8826,0.8488,0.7365,0.5917,0.4305,0.3805,0.367,0.3617,0.4599,0.5859,0.7064,0.6343,0.5886,0.7182,0.5381,0.0,0.0,0.0,0.0,0.0,0.1911,0.1418,0.0154,0.2186,0.4183,0.5477,0.4521,0.4306,0.5506,0.4459,0.3747,0.3711,0.3684,0.3735,0.3878,0.2172,0.1492,0.1949,-0.0101,-0.1111,-0.1144,-0.1481,-0.1818,-0.2188,-0.2188,-0.2188,-0.2188,-0.2188,-0.2188,-0.2188,-0.2188,-0.2188,-0.2188,-0.219,-0.2192,-0.2192,-0.2191,-0.219,-0.2191,0.1851,0.1813,0.1807,0.1859,0.1844,0.18,0.18,0.2108,0.2415,0.0,0.2937,0.3228,0.3491,0.3577,0.349,0.317,0.3834,0.0,0.0,0.0,0.0,0.6179,0.5697,0.5808,0.6649,0.4641,0.3608,0.3608,0.0,0.0,0.1795,0.0,0.0,0.0,0.0,0.1795,0.1795,0.1795,0.2828,0.4583,0.5727,0.6927,0.8014,0.8014,0.8014,0.7875,0.6982,0.7232,0.8014,0.8014,0.8014,0.8042,0.8353,0.8436,0.8491,0.8799,0.8912,0.8657,0.7482,0.6753,0.571,0.3261,0.3842,0.4797,0.3936,0.5425,0.7056,0.7377,0.718,0.6805,0.6257,0.5616,0.4686,0.0,0.0,0.0,0.0,0.0525,0.037,0.0031,0.037,0.0863,0.1449,0.2095,0.2218,0.1572,0.1878,0.1798,0.104,0.0541,0.0388,0.0658,-0.0067,-0.0402,-0.0269,-0.1077,-0.1481,-0.1481,-0.1851,-0.2087,-0.2188,-0.2188,-0.2188,-0.2188,-0.2188,-0.2188,-0.2188,-0.2188,-0.2188,-0.219,-0.2213,-0.2202,-0.2185,-0.2197,-0.2189,-0.2191,0.1864,0.1849,0.1866,0.1883,0.2469,0.275,0.2153,0.2489,0.2857,0.3002,0.3297,0.3796,0.4557,0.4645,0.479,0.5196,0.5603,0.0,0.5274,0.0,0.0,0.7205,0.711,0.7312,0.7878,0.6063,0.0,0.4387,0.0,0.0,0.1795,0.0,0.0,0.0,0.0,0.2576,0.2632,0.3163,0.4491,0.6322,0.6973,0.7995,0.0,0.913,0.913,0.9017,0.836,0.8454,0.8919,0.9011,0.9032,0.9045,0.911,0.913,0.913,0.913,0.8587,0.7842,0.7015,0.6046,0.4804,0.2715,0.3503,0.4588,0.3958,0.5315,0.6706,0.6725,0.6257,0.5691,0.5024,0.3978,0.2743,0.0,0.0,0.0,0.0,0.0,-0.0062,-0.0216,-0.037,-0.0494,-0.0432,0.0372,0.0839,0.0678,0.078,0.0473,-0.0382,-0.0646,-0.0786,-0.0764,-0.1139,-0.1245,-0.1111,-0.1616,-0.1784,-0.1616,-0.202,-0.2188,-0.2188,-0.2188,-0.2188,-0.2188,-0.2188,-0.2188,-0.219,-0.2203,-0.2208,-0.2211,-0.2208,-0.2195,-0.221,-0.2241,-0.2232,-0.2187,0.192,0.1892,0.1952,0.0,0.344,0.4143,0.3145,0.3464,0.3847,0.3847,0.4143,0.4734,0.5817,0.5934,0.6373,0.7485,0.7458,0.7218,0.6915,0.776,0.8113,0.7667,0.8666,0.9145,0.894,0.7763,0.6578,0.0,0.0,0.0,0.0,0.0,0.0,0.0,0.0,0.0,0.0,0.515,0.6324,0.7411,0.7598,0.8364,0.941,0.941,0.941,0.941,0.941,0.9215,0.8987,0.9169,0.9241,0.9233,0.9369,0.941,0.941,0.941,0.8352,0.7089,0.6708,0.5334,0.3699,0.2267,0.2859,0.3805,0.3813,0.4816,0.5721,0.5742,0.4701,0.3784,0.3683,0.1664,0.0,0.0,0.0,0.0,0.0,0.0,-0.0123,-0.0463,-0.0525,0.0,-0.096,-0.0721,-0.0094,0.1082,0.0317,-0.0452,-0.097,-0.0818,-0.0862,-0.1144,-0.1515,-0.1548,-0.1245,-0.1885,-0.202,-0.1683,-0.202,-0.2188,-0.2188,-0.2188,-0.2188,-0.2189,-0.2192,-0.2195,-0.2197,-0.2193,-0.2208,-0.2215,-0.2206,-0.2359,-0.2542,-0.2608,-0.2706,-0.2784,0.1948,0.1893,0.0,0.0,0.425,0.5108,0.5975,0.6425,0.6668,0.6668,0.6973,0.716,0.7102,0.7102,0.7072,0.7044,0.7741,0.8089,0.7865,0.8788,0.9265,0.9055,0.9254,0.9298,0.9148,0.7975,0.6707,0.0,0.4193,0.0,0.0,0.0,0.0,0.0,0.0,0.0,0.517,0.6487,0.719,0.7504,0.8593,0.918,0.941,0.941,0.941,0.941,0.941,0.9347,0.9306,0.9359,0.9369,0.9376,0.94,0.941,0.941,0.941,0.9004,0.8032,0.5714,0.4633,0.3564,0.1017,0.2158,0.3875,0.3895,0.4913,0.5863,0.588,0.4809,0.3558,0.2525,0.1048,0.0,0.0,0.0,0.0,0.0,0.0,-0.0123,-0.0463,-0.0741,-0.0931,-0.1006,-0.0946,-0.082,-0.0566,-0.1022,-0.1264,-0.1082,-0.1546,-0.1725,-0.1514,-0.1885,-0.2054,-0.202,-0.2121,-0.2155,-0.2087,-0.2155,-0.2188,-0.2188,-0.2188,-0.2188,-0.219,-0.2215,-0.2192,-0.2194,-0.219,-0.2217,-0.2275,-0.2281,-0.3084,-0.4267,-0.4277,-0.5066,-0.5988,0.1982,0.0,0.0,0.0,0.5132,0.6446,0.7914,0.9015,0.9195,0.7822,0.7642,0.7828,0.8316,0.8227,0.8349,0.887,0.9356,0.9542,0.9259,0.9683,0.9831,0.9507,0.95,0.9429,0.9301,0.8676,0.772,0.6446,0.5751,0.0,0.0,0.0,0.0,0.4555,0.0,0.6249,0.0,0.814,0.8474,0.8603,0.9232,0.9544,0.9608,0.9608,0.9608,0.9608,0.9608,0.9608,0.9598,0.9523,0.95,0.9513,0.9588,0.9608,0.9489,0.8828,0.7779,0.637,0.4329,0.292,0.1871,0.1187,0.2467,0.3901,0.3899,0.4952,0.5508,0.4155,0.3356,0.2525,0.1203,0.0432,0.0,0.0,0.0,0.0,0.0,0.0,-0.0125,-0.0468,-0.0629,-0.0887,-0.1212,-0.1959,-0.209,-0.1374,-0.1335,-0.1418,-0.1615,-0.1759,-0.1872,-0.1918,-0.2087,-0.2188,-0.2188,-0.2188,-0.2188,-0.2188,-0.2188,-0.2188,-0.2188,-0.2188,-0.2197,-0.2213,-0.2193,-0.2209,-0.2191,-0.2221,-0.2286,-0.2385,-0.3214,-0.402,-0.4802,-0.5597,-0.6863,-0.7984,0.2914,0.3035,0.0,0.5075,0.6477,0.7944,0.9502,1.0914,1.1069,0.8988,0.8437,0.8593,0.9505,0.9323,0.9508,1.0486,1.0577,1.0486,1.0213,1.0183,1.0043,0.9659,0.9656,0.9585,0.9432,0.9339,0.8686,0.7449,0.7247,0.657,0.5446,0.0,0.0,0.5869,0.7195,0.8338,0.924,0.9393,0.95,0.9612,0.9642,0.972,0.9792,0.9792,0.9792,0.9792,0.9792,0.9792,0.9771,0.9693,0.9656,0.9613,0.9448,0.9359,0.9052,0.7734,0.6141,0.4518,0.3169,0.1634,0.0679,0.1727,0.2956,0.3905,0.3905,0.4706,0.48,0.2466,0.1788,0.1265,0.0185,0.0,0.0,0.0,0.0,0.0,0.0,-0.0063,-0.019,-0.0476,-0.0641,-0.0937,-0.1457,-0.2909,-0.3377,-0.2246,-0.1927,-0.1875,-0.212,-0.1874,-0.1885,-0.2188,-0.2188,-0.2188,-0.2188,-0.2188,-0.2188,-0.2188,-0.2188,-0.2192,-0.2198,-0.2198,-0.2215,-0.221,-0.2217,-0.2236,-0.223,-0.229,-0.2493,-0.2951,-0.4222,-0.5093,-0.5815,-0.7044,-0.8456,-0.9615,0.5939,0.0,0.6981,0.8172,0.8766,0.9532,1.0906,1.1492,1.1716,1.147,1.1156,1.0846,1.0664,1.0365,1.0092,0.9913,0.9879,0.9879,0.9852,0.9852,0.9815,0.9771,0.9771,0.9704,0.9591,0.9574,0.8905,0.7576,0.7452,0.6765,0.5569,0.5456,0.6051,0.7278,0.8489,0.9171,0.94,0.9523,0.9598,0.9618,0.9717,0.9778,0.9792,0.9792,0.9792,0.9792,0.9792,0.9792,0.9788,0.9775,0.9771,0.9589,0.8434,0.7883,0.7362,0.602,0.5071,0.4179,0.2892,0.2187,0.185,0.1973,0.2956,0.3905,0.3905,0.3999,0.3692,0.2281,0.1018,0.0154,0.0031,0.0,0.0,0.0,0.0,0.0,0.0,-0.0255,-0.0451,-0.0483,-0.1096,-0.1523,-0.1576,-0.3189,-0.4197,-0.4046,-0.4026,-0.3461,-0.2251,-0.2153,-0.2155,-0.2188,-0.2188,-0.2188,-0.2188,-0.2188,-0.2188,-0.2188,-0.2188,-0.2203,-0.2196,-0.2196,-0.2212,-0.2208,-0.2271,-0.2298,-0.2288,-0.2291,-0.3166,-0.4476,-0.4657,-0.6395,-0.8891,-0.9036,-1.0053,-1.1364,0.6829,0.6995,0.7521,0.8851,0.9326,0.9999,1.1486,1.1927,1.2031,1.1818,1.1344,1.094,1.0819,1.0304,0.994,0.9822,0.9792,0.9792,0.9792,0.9792,0.9792,0.9792,0.9792,0.9765,0.9707,0.9652,0.9341,0.8803,0.8662,0.8359,0.7867,0.7815,0.8079,0.8622,0.9114,0.9403,0.9527,0.9676,0.9707,0.971,0.9768,0.9792,0.9792,0.9792,0.9792,0.9792,0.9792,0.9792,0.9697,0.893,0.8653,0.8562,0.8072,0.7121,0.5929,0.4584,0.3753,0.2984,0.1664,0.1048,0.0987,0.1788,0.2372,0.2772,0.2772,0.2772,0.2372,0.1079,0.037,0.0,0.0,0.0,0.0,0.0,0.0,0.0,0.0,-0.013,-0.0196,-0.0196,-0.0461,-0.0829,-0.1268,-0.353,-0.4771,-0.4332,-0.43,-0.4066,-0.3497,-0.2658,-0.2188,-0.2188,-0.2188,-0.2188,-0.2188,-0.2188,-0.2188,-0.2189,-0.2207,-0.2188,-0.2201,-0.2184,-0.2209,-0.2275,-0.2303,-0.2286,-0.2369,-0.335,-0.4113,-0.4875,-0.6721,-0.8203,-0.9399,-1.0344,-1.1074,-1.1584,0.8449,0.8549,0.8959,0.9988,1.0308,1.0787,1.1919,1.2129,1.2055,1.183,1.1208,1.0766,1.0715,1.0192,0.9839,0.9795,0.9792,0.9792,0.9792,0.9792,0.9792,0.9792,0.9792,0.9792,0.9792,0.9694,0.9673,0.9673,0.952,0.9449,0.9449,0.943,0.9434,0.9449,0.9449,0.9534,0.968,0.9748,0.9792,0.9792,0.9792,0.9792,0.9792,0.9792,0.9792,0.9792,0.9792,0.9792,0.9606,0.8316,0.7581,0.7093,0.6693,0.5684,0.4399,0.2957,0.2188,0.1572,0.0617,0.0185,0.0309,0.1665,0.2004,0.2004,0.2004,0.2004,0.1634,0.0278,0.0,0.0,0.0,0.0,0.0,0.0,0.0,0.0,0.0,-0.0099,-0.0298,-0.0729,-0.0969,-0.1311,-0.1849,-0.4194,-0.5299,-0.4367,-0.43,-0.43,-0.43,-0.3362,-0.2625,-0.2222,-0.2188,-0.2188,-0.2188,-0.2188,-0.2193,-0.2202,-0.219,-0.2209,-0.2228,-0.2222,-0.2247,-0.2304,-0.2287,-0.2551,-0.3096,-0.4222,-0.5236,-0.6286,-0.8456,-0.9582,-1.0125,-1.1217,-1.1584,-1.1584,1.1509,1.202,1.2237,1.2268,1.2268,1.2273,1.2304,1.202,1.1799,1.1799,1.1229,1.0721,1.0529,1.0201,0.9954,0.9805,0.9792,0.9792,0.9792,0.9792,0.9792,0.9792,0.9792,0.9792,0.9792,0.9788,0.9788,0.9788,0.9676,0.9605,0.9605,0.9452,0.9462,0.9605,0.9605,0.9686,0.9788,0.9792,0.9792,0.9792,0.9792,0.9792,0.9792,0.9792,0.9792,0.9792,0.9792,0.9792,0.9606,0.8316,0.6787,0.5197,0.3879,0.3202,0.2618,0.1018,0.0309,0.0031,0.0,0.0,0.0309,0.1665,0.2004,0.2004,0.2004,0.2004,0.1634,0.0278,0.0,0.0,0.0,0.0,0.0,0.0,0.0,0.0,0.0,-0.03,-0.1042,-0.2483,-0.3324,-0.3762,-0.3762,-0.5366,-0.58,-0.44,-0.43,-0.43,-0.43,-0.43,-0.363,-0.2256,-0.2188,-0.2188,-0.2188,-0.2188,-0.2204,-0.22,-0.22,-0.2232,-0.2291,-0.2283,-0.2295,-0.2296,-0.2296,-0.3205,-0.4657,-0.4693,-0.6503,-0.9255,-0.9291,-1.0236,-1.1584,-1.1584,-1.1584,-1.1584,1.229,1.2419,1.2446,1.2328,1.2402,1.2415,1.2126,1.2132,1.195,1.1461,1.1199,1.0943,1.0528,1.0326,1.0144,0.9957,0.9947,0.99,0.9798,0.9792,0.9792,0.9792,0.9792,0.9792,0.9792,0.9792,0.9792,0.9792,0.9744,0.9724,0.9721,0.9605,0.9615,0.9717,0.9652,0.969,0.9792,0.9792,0.9792,0.9792,0.9792,0.9792,0.9792,0.9792,0.9792,0.9792,0.9792,0.9083,0.7975,0.6632,0.5104,0.3478,0.1911,0.1357,0.1172,0.0648,0.0278,0.0,0.0,0.0,0.0093,0.0525,0.0648,0.0648,0.0648,0.0622,0.0501,0.0094,0.0,0.0,0.0,0.0,0.0,0.0,0.0,0.0,0.0,-0.0101,-0.0673,-0.2117,-0.1849,-0.2418,-0.4663,-0.56,-0.6368,-0.7171,-0.8107,-0.7374,-0.4467,-0.3396,-0.2658,-0.2222,-0.2188,-0.2199,-0.2185,-0.2186,-0.2201,-0.2196,-0.197,-0.1889,-0.1957,-0.1964,-0.2078,-0.2369,-0.3459,-0.4222,-0.4875,-0.6974,-0.8422,-0.9399,-1.0452,-1.1181,-1.1584,-1.1584,-1.1584,-1.1584,1.2621,1.2596,1.2584,1.2511,1.25,1.2405,1.2141,1.1972,1.1714,1.1247,1.1082,1.0915,1.0621,1.0497,1.0361,1.0123,1.0106,1.0038,0.9886,0.9876,0.9849,0.9792,0.9792,0.9792,0.9792,0.9792,0.9792,0.9792,0.9792,0.9792,0.9788,0.97,0.9707,0.9788,0.9697,0.9707,0.9792,0.9792,0.9792,0.9792,0.9792,0.9792,0.9792,0.9792,0.9792,0.9792,0.9792,0.8772,0.7207,0.5837,0.4244,0.2556,0.0987,0.0401,0.0309,0.0309,0.0154,0.0,0.0,0.0,0.0,0.0,0.0,0.0,0.0,0.0,0.0,0.0,0.0,0.0,0.0,0.0,0.0,0.0,0.0,0.0,0.0,-0.0471,-0.1378,-0.292,-0.3022,-0.3859,-0.6166,-0.6569,-0.7005,-0.7702,-0.8107,-0.714,-0.4434,-0.3964,-0.3294,-0.2222,-0.2199,-0.2112,-0.1959,-0.2004,-0.1953,-0.1803,-0.1755,-0.1772,-0.1822,-0.1932,-0.2441,-0.3241,-0.4258,-0.5345,-0.6576,-0.8494,-0.9654,-1.0272,-1.1217,-1.1584,-1.1584,-1.1584,-1.1584,-1.1584,1.2617,1.2617,1.2637,1.2775,1.2507,1.2276,1.2276,1.1648,1.1181,1.1185,1.0883,1.0688,1.0688,1.0688,1.0609,1.0334,1.0332,1.0229,1.0045,1.0035,0.9964,0.9812,0.9805,0.9802,0.9792,0.9792,0.9792,0.9792,0.9792,0.9792,0.9792,0.9792,0.9792,0.9792,0.9792,0.9792,0.9792,0.9792,0.9792,0.9792,0.9792,0.9792,0.9792,0.9792,0.9792,0.9792,0.9792,0.8742,0.7146,0.5806,0.406,0.2218,0.0896,0.0247,0.0,0.0,0.0,0.0,0.0,0.0,0.0,0.0,0.0,0.0,0.0,0.0,0.0,0.0,0.0,0.0,0.0,0.0,0.0,0.0,0.0,0.0,0.0,-0.1211,-0.2754,-0.4558,-0.5999,-0.7174,-0.8043,-0.8043,-0.7641,-0.6767,-0.5401,-0.4536,-0.4406,-0.5575,-0.4972,-0.2258,-0.2151,-0.1961,-0.1586,-0.1641,-0.145,-0.1075,-0.1522,-0.175,-0.1786,-0.2114,-0.3168,-0.4693,-0.4802,-0.654,-0.9291,-0.9399,-1.0308,-1.1584,-1.1584,-1.1584,-1.1584,-1.1584,-1.1584,-1.1584,1.2738,1.2738,1.2755,1.2795,1.2507,1.221,1.1945,1.1516,1.1115,1.0853,1.0754,1.0688,1.0688,1.0688,1.0657,1.0622,1.051,1.0382,1.0236,1.0226,1.0158,0.9971,0.9964,0.991,0.9792,0.9792,0.9792,0.9792,0.9792,0.9792,0.9792,0.9792,0.9792,0.9792,0.9792,0.9792,0.9792,0.9792,0.9792,0.9792,0.9792,0.9792,0.9792,0.9792,0.9792,0.9792,0.9792,0.8593,0.6813,0.5468,0.3722,0.1884,0.0532,0.0063,0.0,0.0,0.0,0.0,0.0,0.0,0.0,0.0,0.0,0.0,0.0,0.0,0.0,0.0,0.0,0.0,0.0,0.0,0.0,0.0,0.0,0.0,0.0,-0.1211,-0.2687,-0.4226,-0.4964,-0.6372,-0.9056,-0.8515,-0.8476,-0.9613,-0.8374,-0.6966,-0.5581,-0.4805,-0.3583,-0.1813,-0.151,-0.1319,-0.1205,-0.1244,-0.1076,-0.0726,-0.1129,-0.135,-0.1349,-0.175,-0.295,-0.4766,-0.5958,-0.7551,-0.9399,-1.0563,-1.1257,-1.1584,-1.1584,-1.1584,-1.1584,-1.1584,-1.1584,-1.1584,1.2803,1.2803,1.2737,1.2605,1.2276,1.1945,1.1582,1.1214,1.092,1.0721,1.0688,1.0688,1.0688,1.0688,1.0688,1.0688,1.0643,1.0534,1.0385,1.0378,1.031,1.013,1.0154,1.0052,0.9896,0.9893,0.9859,0.9792,0.9792,0.9792,0.9792,0.9792,0.9792,0.9792,0.9792,0.9792,0.9792,0.9792,0.9792,0.9792,0.9792,0.9792,0.9792,0.9792,0.9792,0.9788,0.964,0.841,0.667,0.5171,0.348,0.1779,0.0413,0.0,0.0,0.0,0.0,0.0,0.0,0.0,0.0,0.0,0.0,0.0,0.0,0.0,0.0,0.0,0.0,0.0,0.0,0.0,0.0,0.0,0.0,0.0,0.0,-0.1781,-0.3391,-0.4194,-0.5635,-0.7379,-0.9495,-0.9156,-0.9316,-1.0585,-0.9266,-0.7668,-0.5981,-0.4307,-0.2771,-0.1422,-0.1186,-0.1023,-0.0823,-0.0684,-0.0507,-0.0328,-0.164,-0.2258,-0.2295,-0.3601,-0.5124,-0.6865,-0.7695,-0.8928,-1.0416,-1.1253,-1.1584,-1.1584,-1.1584,-1.1584,-1.1584,-1.1584,-1.1584,-1.1584,1.2803,1.277,1.2638,1.2342,1.1978,1.1578,1.1247,1.092,1.0688,1.0688,1.0688,1.0688,1.0688,1.0688,1.0688,1.0688,1.0688,1.0666,1.0534,1.0527,1.0463,1.0352,1.0346,1.0243,1.0059,1.0055,0.9988,0.989,0.9836,0.9825,0.9822,0.9802,0.9792,0.9792,0.9792,0.9792,0.9792,0.9792,0.9792,0.9792,0.9792,0.9792,0.9792,0.9792,0.9792,0.9761,0.9427,0.8394,0.6976,0.5287,0.3653,0.209,0.0741,0.0162,0.0,0.0,0.0,0.0,0.0,0.0,0.0,0.0,0.0,0.0,0.0,0.0,0.0,0.0,0.0,0.0,0.0,0.0,-0.0067,-0.0269,-0.0135,-0.0168,-0.0572,-0.2752,-0.4395,-0.4596,-0.6976,-0.8856,-0.9561,-0.9661,-0.9933,-1.0518,-0.9109,-0.7472,-0.5848,-0.3936,-0.2285,-0.0988,-0.0926,-0.0895,-0.0789,-0.0472,-0.051,-0.0802,-0.2875,-0.389,-0.3998,-0.6063,-0.784,-0.9291,-0.9291,-1.0161,-1.1584,-1.1584,-1.1584,-1.1584,-1.1584,-1.1584,-1.1584,-1.1584,-1.1584,-1.1619,1.2803,1.2572,1.2375,1.2309,1.1743,1.128,1.1214,1.092,1.0688,1.0688,1.0688,1.0688,1.0688,1.0688,1.0688,1.0688,1.0688,1.0677,1.0654,1.0683,1.0616,1.0466,1.046,1.0392,1.0249,1.0246,1.0232,1.0209,1.0045,0.9984,0.9981,0.9849,0.9792,0.9792,0.9792,0.9792,0.9792,0.9792,0.9792,0.9792,0.9792,0.9792,0.9792,0.9792,0.9792,0.9761,0.9427,0.9014,0.8432,0.6815,0.5138,0.3537,0.2187,0.0952,0.0,0.0,0.0,0.0,0.0,0.0,0.0,0.0,0.0,0.0,0.0,0.0,0.0,0.0,0.0,0.0,0.0,0.0,-0.0404,-0.158,-0.0773,-0.084,-0.3289,-0.4025,-0.473,-0.5938,-0.7581,-0.8753,-0.9153,-0.9492,-0.9774,-0.9912,-0.8852,-0.7293,-0.5235,-0.3729,-0.2076,-0.0218,-0.018,-0.0755,-0.1996,-0.1964,-0.2765,-0.4399,-0.509,-0.5634,-0.5958,-0.668,-0.784,-0.9291,-0.9291,-1.0161,-1.1584,-1.1584,-1.1584,-1.1584,-1.1584,-1.1584,-1.1584,-1.1584,-1.1584,-1.1655,1.2539,1.2276,1.1945,1.1747,1.1413,1.1148,1.0953,1.0787,1.0688,1.0688,1.0688,1.0688,1.0688,1.0688,1.0688,1.0688,1.0688,1.0688,1.0688,1.0688,1.0654,1.0619,1.0616,1.0544,1.0395,1.0352,1.0312,1.0312,1.0209,1.0175,1.0171,1.01,1.007,1.007,1.007,1.007,1.0063,0.9947,0.9913,0.9907,0.9822,0.9792,0.9792,0.9792,0.9792,0.9741,0.9303,0.9066,0.8733,0.7015,0.5404,0.3851,0.2518,0.1132,0.0,0.0,0.0,0.0,0.0,0.0,0.0,0.0,0.0,0.0,0.0,0.0,0.0,0.0,0.0,0.0,0.0,0.0,-0.0202,-0.0874,-0.0437,-0.074,-0.2821,-0.3792,-0.483,-0.6241,-0.7715,-0.872,-0.9084,-0.9253,-0.9506,-0.9774,-0.9234,-0.8132,-0.6333,-0.5525,-0.4302,-0.2585,-0.1702,-0.1593,-0.2293,-0.3346,-0.4326,-0.5233,-0.668,-0.7476,-0.7693,-0.8925,-0.987,-1.0527,-1.0527,-1.0926,-1.1584,-1.1584,-1.1584,-1.1584,-1.1584,-1.1584,-1.1584,-1.1584,-1.1727,-1.1943,1.2177,1.1912,1.1549,1.1247,1.1148,1.0982,1.0754,1.0688,1.0688,1.0688,1.0688,1.0688,1.0688,1.0688,1.0688,1.0688,1.0688,1.0688,1.0688,1.0688,1.0688,1.0688,1.0688,1.0666,1.0548,1.0439,1.0382,1.0382,1.0348,1.0363,1.0359,1.0297,1.0312,1.0312,1.0312,1.0312,1.0305,1.0154,1.0072,1.0062,0.9944,0.9927,0.9896,0.9801,0.977,0.9695,0.9125,0.8935,0.8738,0.7273,0.5828,0.4468,0.3413,0.1882,0.0505,0.0505,0.0269,0.0,0.0,0.0,0.0,0.0,0.0,0.0,0.0,0.0,0.0,0.0,0.0,0.0,0.0,0.0,-0.0101,-0.0437,-0.0202,-0.0606,-0.2352,-0.3591,-0.483,-0.6241,-0.7715,-0.8698,-0.8993,-0.9093,-0.9294,-0.9625,-0.9596,-0.886,-0.7329,-0.7083,-0.629,-0.4767,-0.3493,-0.302,-0.3383,-0.4979,-0.5994,-0.6465,-0.8345,-0.9285,-0.943,-1.0926,-1.1584,-1.1584,-1.1584,-1.1584,-1.1584,-1.1584,-1.1584,-1.1584,-1.1584,-1.1584,-1.1619,-1.1727,-1.1943,-1.223,1.1846,1.1516,1.1214,1.1214,1.0949,1.0721,1.0688,1.0688,1.0688,1.0688,1.0688,1.0688,1.0688,1.0688,1.0688,1.0688,1.0688,1.0688,1.0688,1.0688,1.0688,1.0688,1.0688,1.0714,1.0704,1.0694,1.0654,1.0654,1.0548,1.0477,1.0473,1.0373,1.0312,1.0312,1.0312,1.0312,1.0312,1.0266,1.0295,1.0295,1.0281,1.0246,1.0214,0.9856,0.9691,0.963,0.8947,0.8805,0.8847,0.841,0.736,0.6199,0.6105,0.4163,0.195,0.195,0.1009,0.0,0.0,0.0,0.0,0.0,0.0,0.0,0.0,0.0,0.0,0.0,0.0,0.0,0.0,0.0,-0.0437,-0.1748,-0.0841,-0.0975,-0.3758,-0.4227,-0.483,-0.6241,-0.7715,-0.8667,-0.8812,-0.9095,-0.9262,-0.916,-0.9468,-0.8914,-0.7108,-0.7012,-0.629,-0.4767,-0.4584,-0.5201,-0.6652,-0.7157,-0.8314,-1.0128,-1.0606,-1.1041,-1.14,-1.1544,-1.1584,-1.1584,-1.1584,-1.1584,-1.1584,-1.1584,-1.1584,-1.1584,-1.1584,-1.1584,-1.1655,-1.2015,-1.2158,-1.2302,1.1413,1.1152,1.0883,1.0883,1.0787,1.0718,1.0813,1.083,1.086,1.0985,1.0995,1.0995,1.0995,1.0995,1.0995,1.0995,1.0914,1.083,1.083,1.0738,1.0688,1.0688,1.0688,1.0688,1.0688,1.0688,1.0688,1.0688,1.0663,1.0633,1.0633,1.0578,1.0555,1.0555,1.0555,1.0555,1.0544,1.0453,1.0412,1.0437,1.0317,1.0312,1.0248,0.9853,0.9691,0.9608,0.9024,0.8862,0.8851,0.8596,0.7583,0.641,0.641,0.4431,0.1916,0.1042,0.0404,0.0,0.0,0.0,0.0,0.0,0.0,0.0,0.0,0.0,0.0,0.0,0.0,0.0,0.0,0.0,-0.0168,-0.0706,-0.0336,-0.0673,-0.2653,-0.3725,-0.4847,-0.6352,-0.7817,-0.875,-0.8835,-0.8984,-0.9055,-0.9087,-0.924,-0.9075,-0.8463,-0.8432,-0.814,-0.7559,-0.7559,-0.7378,-0.7016,-0.8605,-0.9765,-1.0527,-1.1077,-1.144,-1.1584,-1.1584,-1.1584,-1.1584,-1.1584,-1.1584,-1.1584,-1.1584,-1.1584,-1.1584,-1.1584,-1.1763,-1.1979,-1.2122,-1.2477,-1.2936,1.1049,1.0853,1.0688,1.0688,1.0728,1.0792,1.0897,1.0951,1.105,1.1186,1.1196,1.1196,1.1196,1.1196,1.1196,1.1196,1.1073,1.0982,1.0982,1.0917,1.0819,1.0691,1.0688,1.0688,1.0688,1.0688,1.0688,1.0688,1.0688,1.0688,1.0688,1.0688,1.0688,1.0688,1.0688,1.0688,1.0681,1.0609,1.0565,1.0555,1.046,1.0354,1.0225,0.9832,0.9632,0.9448,0.8961,0.8799,0.8777,0.8659,0.7917,0.7078,0.7078,0.5101,0.2519,0.1076,0.0336,0.0,0.0,0.0,0.0,0.0,0.0,0.0,0.0,0.0,0.0,0.0,0.0,0.0,0.0,0.0,0.0,0.0,0.0,-0.0339,-0.132,-0.3121,-0.4741,-0.5821,-0.7653,-0.8875,-0.8962,-0.8973,-0.9022,-0.9144,-0.9152,-0.9187,-0.9299,-0.9304,-0.9304,-0.9304,-0.9413,-0.8974,-0.7921,-0.9621,-1.0563,-1.0675,-1.1293,-1.1584,-1.1584,-1.1584,-1.1584,-1.1584,-1.1584,-1.1584,-1.1584,-1.1584,-1.1584,-1.1619,-1.1727,-1.1943,-1.223,-1.2442,-1.2868,-1.3325,1.0688,1.0688,1.0688,1.0688,1.0816,1.0917,1.0884,1.1073,1.12,1.12,1.12,1.12,1.12,1.12,1.12,1.12,1.12,1.12,1.1196,1.1196,1.1067,1.0738,1.0688,1.0688,1.0688,1.0688,1.0688,1.0688,1.0688,1.0688,1.0688,1.0688,1.0688,1.0688,1.0688,1.0688,1.0688,1.0688,1.0688,1.0688,1.0688,1.0489,1.016,0.9827,0.9455,0.905,0.872,0.8587,0.8587,0.8587,0.8587,0.8587,0.8587,0.6606,0.4026,0.252,0.111,0.0,0.0,0.0,0.0,0.0,0.0,0.0,0.0,0.0,0.0,0.0,0.0,0.0,0.0,0.0,0.0,0.0,0.0,0.0,0.0,-0.2602,-0.451,-0.451,-0.7096,-0.8965,-0.9087,-0.91,-0.9147,-0.9296,-0.9304,-0.9304,-0.9304,-0.9304,-0.9304,-0.9304,-0.9699,-0.9915,-0.9915,-1.0311,-1.0675,-1.1008,-1.1404,-1.1584,-1.1584,-1.1584,-1.1584,-1.1584,-1.1584,-1.1584,-1.1584,-1.1584,-1.1584,-1.1655,-1.2051,-1.2194,-1.2302,-1.3043,-1.3325,-1.3396,1.0688,1.0772,1.0846,1.0846,1.1002,1.1134,1.1243,1.1297,1.1362,1.1467,1.1484,1.1484,1.1484,1.1484,1.1484,1.1484,1.1385,1.1312,1.1203,1.1196,1.1159,1.107,1.0934,1.0796,1.0688,1.0688,1.0688,1.0688,1.0688,1.0688,1.0688,1.0688,1.0688,1.0688,1.0688,1.0688,1.0688,1.0688,1.0555,1.0356,1.0356,1.016,0.9794,0.9422,0.922,0.905,0.872,0.8587,0.8587,0.8587,0.8587,0.842,0.7381,0.6475,0.5302,0.2822,0.1815,0.1244,0.0269,0.0,0.0,0.0,0.0,0.0,0.0,0.0,0.0,0.0,0.0,0.0,0.0,0.0,0.0,0.0,0.0,0.0,0.0,-0.2583,-0.4527,-0.464,-0.7232,-0.909,-0.9242,-0.9253,-0.9266,-0.9302,-0.9304,-0.9304,-0.9304,-0.9304,-0.9304,-0.9304,-0.9699,-1.0023,-1.0311,-1.0678,-1.0897,-1.1008,-1.1404,-1.1584,-1.1584,-1.1584,-1.1584,-1.1584,-1.1584,-1.1584,-1.1584,-1.1584,-1.1584,-1.1655,-1.2051,-1.237,-1.2828,-1.4347,-1.5057,-1.5447,1.0775,1.0897,1.1033,1.1033,1.1155,1.1319,1.1379,1.1443,1.1514,1.1606,1.1584,1.1584,1.1584,1.1584,1.1584,1.1584,1.1535,1.1443,1.1348,1.1345,1.1314,1.1291,1.1168,1.1053,1.09,1.0894,1.0867,1.0775,1.0775,1.0745,1.0688,1.0688,1.0688,1.0688,1.0688,1.0688,1.0688,1.0688,1.0522,1.0193,1.0193,0.9891,0.9422,0.9183,0.9017,0.8884,0.8687,0.8587,0.8587,0.8587,0.8587,0.8454,0.7548,0.6878,0.6073,0.4297,0.299,0.1916,0.1076,0.0439,0.0,0.0,0.0,0.0,0.0,0.0,0.0,0.0,0.0,0.0,0.0,0.0,0.0,0.0,0.0,0.0,0.0,-0.2658,-0.4597,-0.4706,-0.7366,-0.9193,-0.9296,-0.9304,-0.9304,-0.9304,-0.9304,-0.9304,-0.9304,-0.9304,-0.9304,-0.9304,-0.9843,-1.0239,-1.0491,-1.1002,-1.1224,-1.1224,-1.1476,-1.1584,-1.1584,-1.1584,-1.1584,-1.1584,-1.1584,-1.1584,-1.1584,-1.1584,-1.1691,-1.1943,-1.2932,-1.3535,-1.4133,-1.6035,-1.6846,-1.7127,1.0934,1.1084,1.122,1.122,1.1346,1.1413,1.1413,1.1531,1.1584,1.1584,1.1584,1.1584,1.1584,1.1584,1.1584,1.1584,1.1584,1.1584,1.1584,1.1584,1.1558,1.1416,1.1413,1.1345,1.124,1.121,1.1097,1.0934,1.0934,1.0857,1.0708,1.0708,1.0698,1.0688,1.0688,1.0688,1.0688,1.0654,1.0455,1.016,1.0123,0.9688,0.905,0.905,0.8853,0.8587,0.8587,0.8587,0.8587,0.8587,0.8587,0.8587,0.8587,0.7681,0.6579,0.6451,0.4473,0.2256,0.2158,0.109,0.0,0.0,0.0,0.0,0.0,0.0,0.0,0.0,0.0,0.0,0.0,0.0,0.0,0.0,0.0,0.0,0.0,-0.2711,-0.4693,-0.4693,-0.7415,-0.9304,-0.9304,-0.9304,-0.9304,-0.9304,-0.9304,-0.9304,-0.9304,-0.9304,-0.9304,-0.9304,-1.0095,-1.0491,-1.0491,-1.1217,-1.1584,-1.1584,-1.1584,-1.1584,-1.1584,-1.1724,-1.1796,-1.1796,-1.1936,-1.2008,-1.2008,-1.2043,-1.2259,-1.2792,-1.4551,-1.5464,-1.6035,-1.7889,-1.8594,-1.8629,1.1118,1.1236,1.1376,1.1376,1.1467,1.1569,1.1569,1.1563,1.1584,1.1584,1.1584,1.1584,1.1584,1.1584,1.1584,1.1584,1.1584,1.1584,1.1584,1.1584,1.1606,1.1572,1.1569,1.1555,1.1521,1.1322,1.1183,1.1118,1.1118,1.1043,1.0867,1.0867,1.0799,1.0688,1.0688,1.0688,1.0688,1.0422,1.0127,0.9794,0.9455,0.9086,0.872,0.872,0.8653,0.8587,0.8587,0.8587,0.8587,0.8587,0.8587,0.8587,0.8587,0.8387,0.7901,0.6868,0.5253,0.359,0.2559,0.1148,0.0,0.0,0.0,0.0,0.0,0.0,0.0,0.0,0.0,0.0,0.0,0.0,0.0,0.0,0.0,0.0,0.0,-0.2726,-0.4693,-0.4693,-0.7415,-0.9304,-0.9304,-0.9304,-0.9304,-0.9304,-0.9304,-0.9304,-0.9304,-0.9304,-0.9304,-0.9304,-1.0095,-1.0491,-1.0491,-1.1217,-1.1584,-1.1584,-1.1584,-1.1584,-1.1655,-1.2856,-1.3389,-1.3456,-1.4618,-1.511,-1.5146,-1.5455,-1.5668,-1.5809,-1.6826,-1.7248,-1.7564,-1.9431,-2.0138,-2.0347,1.1305,1.1396,1.1501,1.1501,1.1565,1.1584,1.1584,1.1584,1.1584,1.1584,1.1584,1.1584,1.1584,1.1584,1.1584,1.1584,1.1584,1.1584,1.1584,1.1584,1.1584,1.1584,1.1584,1.1584,1.1584,1.1463,1.1345,1.1305,1.1305,1.1196,1.105,1.105,1.1009,1.0928,1.0826,1.0725,1.0551,1.0285,0.9891,0.9389,0.9183,0.8884,0.8587,0.8587,0.8587,0.8587,0.8587,0.8587,0.8587,0.8587,0.8628,0.8707,0.8707,0.8715,0.8601,0.7905,0.6122,0.4227,0.3525,0.1724,0.0,0.0,0.0,0.0,0.0,0.0,0.0,0.0,0.0,0.0,0.0,0.0,0.0,0.0,0.0,0.0,0.0,-0.2731,-0.4693,-0.4693,-0.7415,-0.9304,-0.9304,-0.9304,-0.9304,-0.9304,-0.9304,-0.9304,-0.9304,-0.9304,-0.9377,-0.959,-1.0167,-1.0563,-1.075,-1.1293,-1.1972,-1.2717,-1.2717,-1.2717,-1.2753,-1.4267,-1.4933,-1.5004,-1.5778,-1.6096,-1.6131,-1.6545,-1.6826,-1.7112,-1.8404,-1.9002,-1.9356,-2.1079,-2.1767,-2.2017,1.143,1.1531,1.1584,1.1584,1.1584,1.1584,1.1584,1.1584,1.1584,1.1584,1.1584,1.1584,1.1584,1.1584,1.1584,1.1584,1.1584,1.1584,1.1584,1.1584,1.1584,1.1584,1.1584,1.1584,1.1584,1.1584,1.1523,1.1323,1.1323,1.1246,1.1029,1.1029,1.1016,1.0986,1.0835,1.0608,1.032,1.0116,0.9689,0.9115,0.9059,0.8851,0.8587,0.8587,0.8587,0.8587,0.8587,0.86,0.8622,0.8641,0.8717,0.8802,0.8802,0.8663,0.8499,0.852,0.6417,0.4106,0.4116,0.2096,0.0,0.0,0.0,0.0,0.0,0.0,0.0,0.0,0.0,0.0,0.0,0.0,0.0,0.0,0.0,0.0,0.0,-0.2731,-0.4693,-0.4693,-0.7415,-0.9304,-0.9304,-0.9304,-0.9304,-0.9304,-0.9304,-0.9304,-0.9304,-0.9304,-0.9485,-0.9879,-1.0275,-1.0675,-1.1008,-1.1652,-1.2646,-1.3915,-1.4409,-1.4516,-1.4338,-1.5818,-1.6484,-1.6519,-1.6836,-1.6977,-1.7012,-1.7458,-1.7844,-1.8309,-1.9953,-2.0762,-2.116,-2.2466,-2.314,-2.3372,1.1589,1.1606,1.1584,1.1584,1.1584,1.1584,1.1584,1.1584,1.1584,1.1584,1.1584,1.1584,1.1584,1.1584,1.1584,1.1584,1.1584,1.1584,1.1584,1.1584,1.1584,1.1584,1.1584,1.1584,1.1584,1.1584,1.143,1.1051,1.1051,1.0795,1.0341,1.0341,1.0273,1.0159,1.0141,1.0097,1.0019,0.9612,0.9352,0.9239,0.8831,0.8653,0.8587,0.8587,0.8587,0.8587,0.8587,0.8688,0.8795,0.8832,0.8878,0.8892,0.8892,0.799,0.693,0.705,0.487,0.2462,0.2562,0.1343,0.0,0.0,0.0,0.0,0.0,0.0,0.0,0.0,0.0,0.0,0.0,0.0,0.0,0.0,0.0,0.0,0.0,-0.2731,-0.4693,-0.4693,-0.7415,-0.9304,-0.9304,-0.9304,-0.9304,-0.9304,-0.9304,-0.9304,-0.9304,-0.9304,-0.9485,-0.9879,-1.0275,-1.0675,-1.1008,-1.2713,-1.3706,-1.3915,-1.6534,-1.7092,-1.5849,-1.7373,-1.8086,-1.8191,-1.9802,-2.0503,-2.0572,-2.1258,-2.1568,-2.1672,-2.2304,-2.2544,-2.2652,-2.309,-2.3454,-2.3783,1.1584,1.1584,1.1584,1.1584,1.1584,1.1584,1.1584,1.1584,1.1584,1.1584,1.1584,1.1584,1.1584,1.1584,1.1584,1.1584,1.1584,1.1584,1.1584,1.1584,1.1584,1.1584,1.1584,1.1584,1.1584,1.1584,1.1293,1.0711,1.0897,1.0868,1.0626,1.0444,1.0336,1.0275,1.017,0.9996,0.9815,0.9544,0.9282,0.907,0.8847,0.8757,0.8757,0.8757,0.8757,0.8757,0.8757,0.8792,0.8843,0.8897,0.8962,0.9019,0.9019,0.7993,0.683,0.6907,0.4685,0.224,0.2289,0.1166,0.0,0.0,0.0,0.0,0.0,0.0,0.0,0.0,0.0,0.0,0.0,0.0,0.0,0.0,0.0,0.0,0.0,-0.2731,-0.5347,-0.705,-0.8468,-0.9304,-0.9304,-0.9304,-0.9304,-0.9304,-0.9304,-0.9304,-0.9304,-0.9304,-0.959,-1.0203,-1.0419,-1.1172,-1.2606,-1.3456,-1.4764,-1.6428,-1.777,-1.8051,-1.7449,-1.8966,-1.9675,-1.975,-2.0757,-2.1214,-2.1248,-2.2001,-2.231,-2.2345,-2.2756,-2.3,-2.316,-2.346,-2.3761,-2.4028]},{"header":{"parameterUnit":"m.s-1","parameterCategory":1,"la1":30.6,"la2":28.766,"lo1":-90.7593,"lo2":-88.6598,"dy":0.0162,"dx":0.0183,"nx":116,"ny":114,"refTime":"2024-02-25T18:00:00:Z","depth":0,"parameterNumber":3,"parameterNumberName":"V-component_of_WINDS"},"data":[0.0,0.0,0.0,0.0,0.0,0.0,0.0,0.0,0.0,0.0,0.0,0.0,0.0,0.0,0.0,0.0,0.0,0.0,0.0,0.0,0.0,0.0,0.0,0.0,0.0,0.0,0.0,0.0,0.0,0.0,0.0,0.0,0.0,0.0,0.0,0.0,0.0,0.0,0.0,0.0,0.0,0.0,0.0,0.0,0.0,0.0,0.0,0.0,0.0,0.0,0.0,0.0,0.0,0.0,0.0,0.0,0.0,0.0,0.0,0.0,0.0,0.0,0.0,0.0,0.0,0.0,0.0,0.0,0.0,0.0,0.0,0.0,0.0,0.0,0.0,0.0,0.0,0.0,0.0,0.0,0.0,0.0,0.0,0.0,0.0,0.0,0.0,0.0,0.0,0.0,0.0,0.0,0.0,0.0,0.0,0.0,0.0,0.0,0.0,0.0,0.0,0.0,0.0,0.0,0.0,0.0,0.0,0.0,0.0,0.0,0.0,0.0,0.0,0.0,0.0,0.0,0.0,0.0,0.0,0.0,0.0,0.0,0.0,0.0,0.0,0.0,0.0,0.0,0.0,0.0,0.0,0.0,0.0,0.0,0.0,0.0,0.0,0.0,0.0,0.0,0.0,0.0,0.0,0.0,0.0,0.0,0.0,0.0,0.0,0.0,0.0,0.0,0.0,0.0,0.0,0.0,0.0,0.0,0.0,0.0,0.0,0.0,0.0,0.0,0.0,0.0,0.0,0.0,0.0,0.0,0.0,0.0,0.0,0.0,0.0,0.0,0.0,0.0,0.0,0.0,0.0,0.0,0.0,0.0,0.0,0.0,0.0,0.0,0.0,0.0,0.0,0.0,0.0,0.0,0.0,0.0,0.0,0.0,0.0,0.0,0.0,0.0,0.0,0.0,0.0,0.0,0.0,0.0,0.0,0.0,0.0,0.0,0.0,0.0,0.0,0.0,0.0,0.0,0.0,0.0,0.0,0.0,0.0,0.0,0.0,0.0,0.0,0.0,0.0,0.0,0.0,0.0,0.0,0.0,0.0,0.0,0.0,0.0,0.0,0.0,0.0,0.0,0.0,0.0,0.0,0.0,0.0,0.0,0.0,0.0,0.0,0.0,0.0,0.0,0.0,0.0,0.0,0.0,0.0,0.0,0.0,0.0,0.0,0.0,0.0,0.0,0.0,0.0,0.0,0.0,0.0,0.0,0.0,0.0,0.0,0.0,0.0,0.0,0.0,0.0,0.0,0.0,0.0,0.0,0.0,0.0,0.0,0.0,0.0,0.0,0.0,0.0,0.0,0.0,0.0,0.0,0.0,0.0,0.0,0.0,0.0,0.0,0.0,0.0,0.0,0.0,0.0,0.0,0.0,0.0,0.0,0.0,0.0,0.0,0.0,0.0,0.0,0.0,0.0,0.0,0.0,0.0,0.0,0.0,0.0,0.0,0.0,0.0,0.0,0.0,0.0,0.0,0.0,0.0,0.0,0.0,0.0,0.0,0.0,0.0,0.0,0.0,0.0,0.0,0.0,0.0,0.0,0.0,0.0,0.0,0.0,0.0,0.0,0.0,0.0,0.0,0.0,0.0,0.0,0.0,0.0,0.0,0.0,0.0,0.0,0.0,0.0,0.0,0.0,0.0,0.0,0.0,0.0,0.0,0.0,0.0,0.0,0.0,0.0,0.0,0.0,0.0,0.0,0.0,0.0,0.0,0.0,0.0,0.0,0.0,0.0,0.0,0.0,0.0,0.0,0.0,0.0,0.0,0.0,0.0,0.0,0.0,0.0,0.0,0.0,0.0,0.0,0.0,0.0,0.0,0.0,0.0,0.0,0.0,0.0,0.0,0.0,0.0,0.0,0.0,0.0,0.0,0.0,0.0,0.0,0.0,0.0,0.0,0.0,0.0,0.0,0.0,0.0,0.0,0.0,0.0,0.0,0.0,0.0,0.0,0.0,0.0,0.0,0.0,0.0,0.0,0.0,0.0,0.0,0.0,0.0,0.0,0.0,0.0,0.0,0.0,0.0,0.0,0.0,0.0,0.0,0.0,0.0,0.0,0.0,0.0,0.0,0.0,0.0,0.0,0.0,0.0,0.0,0.0,0.0,0.0,0.0,0.0,0.0,0.0,0.0,0.0,0.0,0.0,0.0,0.0,0.0,0.0,0.0,0.0,0.0,0.0,0.0,0.0,0.0,0.0,0.0,0.0,0.0,0.0,0.0,0.0,0.0,0.0,0.0,0.0,0.0,0.0,0.0,0.0,0.0,0.0,0.0,0.0,0.0,0.0,0.0,0.0,0.0,0.0,0.0,0.0,0.0,0.0,0.0,0.0,0.0,0.0,0.0,0.0,0.0,0.0,0.0,0.0,0.0,0.0,0.0,0.0,0.0,0.0,0.0,0.0,0.0,0.0,0.0,0.0,0.0,0.0,0.0,0.0,0.0,0.0,0.0,0.0,0.0,0.0,0.0,0.0,0.0,0.0,0.0,0.0,0.0,0.0,0.0,0.0,0.0,0.0,0.0,0.0,0.0,0.0,0.0,0.0,0.0,0.0,0.0,0.0,0.0,0.0,0.0,0.0,0.0,0.0,0.0,0.0,0.0,0.0,0.0,0.0,0.0,0.0,0.0,0.0,0.0,0.0,0.0,0.0,0.0,0.0,0.0,0.0,0.0,0.0,0.0,0.0,0.0,0.0,0.0,0.0,0.0,0.0,0.0,0.0,0.0,0.0,0.0,0.0,0.0,0.0,0.0,0.0,0.0,0.0,0.0,0.0,0.0,0.0,0.0,0.0,0.0,0.0,0.0,0.0,0.0,0.0,0.0,0.0,0.0,0.0,0.0,0.0,0.0,0.0,0.0,0.0,0.0,0.0,0.0,0.0,0.0,0.0,0.0,0.0,0.0,0.0,0.0,0.0,0.0,0.0,0.0,0.0,0.0,0.0,0.0,0.0,0.0,0.0,0.0,0.0,0.0,0.0,0.0,0.0,0.0,0.0,0.0,0.0,0.0,0.0,0.0,0.0,0.0,0.0,0.0,0.0,0.0,0.0,0.0,0.0,0.0,0.0,0.0,0.0,0.0,0.0,0.0,0.0,0.0,0.0,0.0,0.0,0.0,0.0,0.0,0.0,0.0,0.0,0.0,0.0,0.0,0.0,0.0,0.0,0.0,0.0,0.0,0.0,0.0,0.0,0.0,0.0,0.0,0.0,0.0,0.0,0.0,0.0,0.0,0.0,0.0,0.0,0.0,0.0,0.0,0.0,0.0,0.0,0.0,0.0,0.0,0.0,0.0,0.0,0.0,0.0,0.0,0.0,0.0,0.0,0.0,0.0,0.0,0.0,0.0,0.0,0.0,0.0,0.0,0.0,0.0,0.0,0.0,0.0,0.0,0.0,0.0,0.0,0.0,0.0,0.0,0.0,0.0,0.0,0.0,0.0,0.0,0.0,0.0,0.0,0.0,0.0,0.0,0.0,0.0,0.0,0.0,0.0,0.0,0.0,0.0,0.0,0.0,0.0,0.0,0.0,0.0,0.0,0.0,0.0,0.0,0.0,0.0,0.0,0.0,0.0,0.0,0.0,0.0,0.0,0.0,0.0,0.0,0.0,0.0,0.0,0.0,0.0,0.0,0.0,0.0,0.0,0.0,0.0,0.0,0.0,0.0,0.0,0.0,0.0,0.0,0.0,0.0,0.0,0.0,0.0,0.0,0.0,0.0,0.0,0.0,0.0,0.0,0.0,0.0,0.0,0.0,0.0,0.0,0.0,0.0,0.0,0.0,0.0,0.0,0.0,0.0,0.0,0.0,0.0,0.0,0.0,0.0,0.0,0.0,0.0,0.0,0.0,0.0,0.0,0.0,0.0,0.0,0.0,0.0,0.0,0.0,0.0,0.0,0.0,0.0,0.0,0.0,0.0,0.0,0.0,0.0,0.0,0.0,0.0,0.0,0.0,0.0,0.0,0.0,0.0,0.0,0.0,0.0,0.0,0.0,0.0,0.0,0.0,0.0,0.0,0.0,0.0,0.0,0.0,0.0,0.0,0.0,0.0,0.0,0.0,0.0,0.0,0.0,0.0,0.0,0.0,0.0,0.0,0.0,0.0,0.0,0.0,0.0,0.0,0.0,0.0,0.0,0.0,0.0,0.0,0.0,0.0,0.0,0.0,0.0,0.0,0.0,0.0,0.0,0.0,0.0,0.0,0.0,0.0,0.0,0.0,0.0,0.0,0.0,0.0,0.0,0.0,0.0,0.0,0.0,0.0,0.0,0.0,0.0,0.0,0.0,0.0,0.0,0.0,0.0,0.0,0.0,0.0,0.0,0.0,0.0,0.0,0.0,0.0,0.0,0.0,0.0,0.0,0.0,0.0,0.0,0.0,0.0,0.0,0.0,0.0,0.0,0.0,0.0,0.0,0.0,0.0,0.0,0.0,0.0,0.0,0.0,0.0,0.0,0.0,0.0,0.0,0.0,0.0,0.0,0.0,0.0,0.0,0.0,0.0,0.0,0.0,0.0,0.0,0.0,0.0,0.0,0.0,0.0,0.0,0.0,0.0,0.0,0.0,0.0,0.0,0.0,0.0,0.0,0.0,0.0,0.0,0.0,0.0,0.0,0.0,0.0,0.0,0.0,0.0,0.0,0.0,0.0,0.0,0.0,0.0,0.0,0.0,0.0,0.0,0.0,0.0,0.0,0.0,0.0,0.0,0.0,0.0,0.0,0.0,0.0,0.0,0.0,0.0,0.0,0.0,0.0,0.0,0.0,0.0,0.0,0.0,0.0,0.0,0.0,0.0,0.0,0.0,0.0,0.0,0.0,0.0,0.0,0.0,0.0,0.0,0.0,0.0,0.0,0.0,0.0,0.0,0.0,0.0,0.0,0.0,0.0,0.0,0.0,0.0,0.0,0.0,0.0,0.0,0.0,0.0,0.0,0.0,0.0,0.0,0.0,0.0,0.0,0.0,0.0,0.0,0.0,0.0,0.0,0.0,0.0,0.0,0.0,0.0,0.0,0.0,0.0,0.0,0.0,0.0,0.0,0.0,0.0,0.0,0.0,0.0,0.0,0.0,0.0,0.0,0.0,0.0,0.0,0.0,0.0,0.0,0.0,0.0,0.0,0.0,0.0,0.0,0.0,0.0,0.0,0.0,0.0,0.0,0.0,0.0,0.0,0.0,0.0,0.0,0.0,0.0,0.0,0.0,0.0,0.0,0.0,0.0,0.0,0.0,0.0,0.0,0.0,0.0,0.0,0.0,0.0,0.0,0.0,0.0,0.0,0.0,0.0,0.0,0.0,0.0,0.0,0.0,0.0,0.0,0.0,0.0,0.0,0.0,0.0,0.0,0.0,0.0,0.0,0.0,0.0,0.0,0.0,0.0,0.0,0.0,0.0,0.0,0.0,0.0,0.0,0.0,0.0,0.0,0.0,0.0,0.0,0.0,0.0,0.0,0.0,0.0,0.0,0.0,0.0,0.0,0.0,0.0,0.0,0.0,0.0,0.0,0.0,0.0,0.0,0.0,0.0,0.0,0.0,0.0,0.0,0.0,0.0,0.0,0.0,0.0,0.0,0.0,0.0,0.0,0.0,0.0,0.0,0.0,0.0,0.0,0.0,0.0,0.0,0.0,0.0,0.0,0.0,0.0,0.0,0.0,0.0,0.0,0.0,0.0,0.0,0.0,0.0,0.0,0.0,0.0,0.0,0.0,0.0,0.0,0.0,0.0,0.0,0.0,0.0,0.0,0.0,0.0,0.0,0.0,0.0,0.0,0.0,0.0,0.0,0.0,0.0,0.0,0.0,0.0,0.0,0.0,0.0,0.0,0.0,0.0,0.0,0.0,0.0,0.0,0.0,0.0,0.0,0.0,0.0,0.0,0.0,0.0,0.0,0.0,0.0,0.0,0.0,0.0,0.0,0.0,0.0,0.0,0.0,0.0,0.0,0.0,0.0,0.0,0.0,0.0,0.0,0.0,0.0,0.0,0.0,0.0,0.0,0.0,0.0,0.0,0.0,0.0,0.0,0.0,0.0,0.0,0.0,0.0,0.0,0.0,0.0,0.0,0.0,0.0,0.0,0.0,0.0,0.0,0.0,0.0,0.0,0.0,0.0,0.0,5.1304,5.1274,0.0,0.0,0.0,0.0,0.0,0.0,0.0,0.0,0.0,0.0,0.0,0.0,0.0,0.0,0.0,0.0,0.0,0.0,0.0,0.0,0.0,0.0,0.0,0.0,0.0,0.0,0.0,0.0,0.0,0.0,0.0,0.0,0.0,0.0,4.6301,4.6301,4.6301,4.6301,4.6301,4.6307,4.6298,4.6298,4.6286,4.6249,0.0,0.0,0.0,0.0,0.0,0.0,0.0,0.0,0.0,0.0,0.0,0.0,0.0,0.0,0.0,0.0,0.0,0.0,0.0,0.0,0.0,0.0,0.0,0.0,0.0,0.0,0.0,0.0,0.0,0.0,0.0,0.0,0.0,0.0,0.0,0.0,0.0,0.0,0.0,0.0,0.0,0.0,0.0,0.0,0.0,0.0,0.0,0.0,0.0,0.0,0.0,0.0,0.0,0.0,0.0,0.0,0.0,0.0,0.0,0.0,0.0,0.0,0.0,0.0,0.0,0.0,0.0,0.0,0.0,0.0,5.1328,5.1296,0.0,0.0,0.0,0.0,0.0,0.0,0.0,0.0,0.0,0.0,0.0,0.0,0.0,0.0,0.0,0.0,0.0,0.0,0.0,0.0,0.0,0.0,0.0,4.6211,4.6243,4.6299,4.6301,4.6301,0.0,0.0,0.0,0.0,0.0,4.6301,4.6301,4.6301,4.6301,4.6301,4.6305,4.6307,4.6307,4.6307,4.6297,4.6306,4.6292,0.0,0.0,0.0,0.0,0.0,0.0,0.0,0.0,0.0,0.0,0.0,0.0,0.0,0.0,0.0,0.0,0.0,0.0,0.0,0.0,0.0,0.0,0.0,0.0,0.0,0.0,0.0,0.0,0.0,0.0,0.0,0.0,0.0,0.0,0.0,0.0,0.0,0.0,0.0,0.0,0.0,0.0,0.0,0.0,0.0,0.0,0.0,0.0,0.0,0.0,0.0,0.0,0.0,0.0,0.0,0.0,0.0,0.0,0.0,0.0,0.0,0.0,0.0,5.1304,5.1306,5.1306,5.1312,5.1348,5.1401,5.1331,5.1308,5.1293,5.1234,0.0,0.0,0.0,0.0,0.0,0.0,0.0,0.0,0.0,0.0,0.0,0.0,0.0,0.0,0.0,0.0,0.0,0.0,0.0,0.0,0.0,4.6246,4.6298,4.63,4.6301,4.6301,4.6301,0.0,4.6301,4.6301,4.6301,4.6301,4.6301,4.6301,4.6301,4.6301,4.63,4.6305,4.6305,4.6305,4.6306,4.6306,4.6292,4.6301,4.6299,0.0,0.0,0.0,0.0,0.0,0.0,0.0,0.0,0.0,0.0,0.0,0.0,0.0,0.0,0.0,0.0,0.0,0.0,0.0,0.0,0.0,0.0,0.0,0.0,0.0,0.0,0.0,0.0,0.0,0.0,0.0,0.0,0.0,0.0,0.0,0.0,0.0,0.0,0.0,0.0,0.0,5.13,5.13,0.0,0.0,0.0,0.0,0.0,0.0,0.0,0.0,0.0,0.0,0.0,0.0,0.0,5.13,5.13,5.13,5.13,5.13,5.13,5.1309,5.1291,5.1361,5.1394,5.1396,5.1393,0.0,5.1293,5.1234,0.0,0.0,0.0,0.0,0.0,0.0,0.0,0.0,0.0,0.0,0.0,0.0,0.0,0.0,0.0,0.0,0.0,0.0,0.0,0.0,0.0,4.6245,4.6269,4.63,4.6301,4.6301,4.6301,4.6301,4.6301,4.6301,4.6301,4.6301,4.6301,4.6301,4.6301,4.6301,4.6292,4.6296,4.6296,4.6296,4.6296,4.6296,4.6306,4.6301,4.6299,4.6238,0.0,0.0,0.0,0.0,0.0,0.0,0.0,0.0,0.0,0.0,0.0,0.0,0.0,0.0,0.0,0.0,0.0,0.0,0.0,0.0,0.0,0.0,0.0,0.0,0.0,0.0,0.0,0.0,0.0,0.0,0.0,0.0,0.0,0.0,0.0,0.0,0.0,0.0,0.0,5.13,5.13,5.13,5.13,5.13,0.0,0.0,0.0,0.0,0.0,0.0,0.0,0.0,0.0,5.13,5.13,5.13,5.13,5.13,5.13,5.13,5.129,5.1301,5.1294,5.1376,5.139,5.1399,5.141,5.138,5.1341,5.1329,5.1296,5.1255,0.0,0.0,0.0,0.0,5.1267,5.1263,0.0,0.0,0.0,0.0,0.0,0.0,0.0,0.0,0.0,0.0,0.0,0.0,4.6272,4.6244,4.6244,4.6299,4.6301,4.6301,4.6301,4.6301,4.6301,4.6301,4.6301,4.6301,4.6301,4.6301,4.6301,4.6301,4.6301,4.6301,4.6301,4.6301,4.6301,4.6301,4.6534,4.6515,4.6299,4.6238,4.6319,4.6483,0.0,0.0,0.0,0.0,0.0,0.0,0.0,0.0,0.0,0.0,0.0,0.0,0.0,0.0,0.0,0.0,0.0,0.0,0.0,0.0,0.0,0.0,0.0,0.0,0.0,0.0,0.0,0.0,0.0,0.0,0.0,0.0,0.0,0.0,0.0,0.0,0.0,5.13,5.13,5.13,5.13,5.13,0.0,0.0,0.0,0.0,0.0,0.0,5.13,5.13,5.13,5.13,5.13,5.13,5.13,5.13,5.13,5.13,5.1306,5.1319,5.1338,5.1375,5.1408,5.1403,5.1391,5.1409,5.1404,5.1406,5.1362,5.1297,5.1297,5.1295,5.1294,5.1316,5.1334,5.133,0.0,0.0,0.0,0.0,0.0,0.0,0.0,0.0,0.0,0.0,0.0,4.6273,4.6212,4.6269,4.63,4.6301,4.6301,4.6301,4.6301,4.6301,4.6301,4.6301,4.6301,4.6301,4.6301,4.6301,4.6301,4.6301,4.6301,4.6301,4.6301,4.6301,4.6301,4.634,4.7177,4.706,4.6299,4.6238,4.6636,4.7265,4.6506,0.0,0.0,0.0,0.0,0.0,0.0,0.0,0.0,0.0,0.0,0.0,0.0,0.0,0.0,0.0,0.0,0.0,0.0,0.0,0.0,0.0,0.0,0.0,0.0,0.0,0.0,0.0,0.0,0.0,0.0,0.0,0.0,0.0,0.0,0.0,0.0,0.0,0.0,5.13,5.13,0.0,0.0,0.0,0.0,5.13,5.13,5.13,5.13,5.13,5.13,5.13,5.13,5.13,5.13,5.13,5.13,5.13,5.1301,5.134,5.1393,5.139,5.1403,5.1393,5.1394,5.1395,5.14,5.1404,5.1362,5.1297,5.1297,5.1291,5.1307,5.1379,5.1399,5.1392,0.0,0.0,0.0,0.0,0.0,0.0,0.0,0.0,4.6155,4.6188,4.6213,4.6458,4.7047,4.7083,4.73,4.786,4.79,4.79,4.79,4.7412,4.7138,4.7138,4.6593,4.6554,4.7119,4.7647,4.79,4.79,4.79,4.79,4.79,4.79,4.79,4.792,4.8232,4.8193,4.79,4.7874,4.804,4.8262,4.7949,4.7971,0.0,0.0,0.0,0.0,0.0,0.0,0.0,0.0,0.0,0.0,0.0,0.0,0.0,0.0,0.0,0.0,0.0,0.0,0.0,0.0,0.0,0.0,0.0,0.0,0.0,0.0,0.0,0.0,0.0,0.0,0.0,0.0,0.0,0.0,0.0,0.0,0.0,5.13,5.13,0.0,5.13,5.13,5.13,5.13,5.13,5.13,5.13,5.13,5.13,5.13,5.13,5.13,5.13,5.13,5.1306,5.1301,5.1309,5.1346,5.139,5.1396,5.1404,5.1394,5.1394,5.1394,5.1395,5.1408,5.1398,5.1365,5.1366,5.1367,5.1367,5.1386,5.1406,5.1406,0.0,0.0,0.0,0.0,0.0,0.0,0.0,0.0,4.6251,4.6558,4.6641,4.7003,4.7907,4.7961,4.8178,4.8758,4.8798,4.8798,4.8798,4.829,4.7997,4.7997,4.7451,4.7412,4.7997,4.8525,4.8798,4.8798,4.8798,4.8798,4.8798,4.8798,4.8798,4.8818,4.9111,4.9246,4.9266,4.9551,4.9509,4.9213,4.8852,4.8884,4.9091,0.0,0.0,0.0,0.0,0.0,0.0,0.0,0.0,0.0,0.0,0.0,0.0,0.0,0.0,0.0,0.0,0.0,0.0,0.0,0.0,0.0,0.0,0.0,0.0,0.0,0.0,0.0,0.0,0.0,0.0,0.0,0.0,0.0,0.0,5.1241,5.13,5.13,5.13,5.1288,5.1236,5.1263,5.1286,5.1236,5.1263,5.13,5.13,5.13,5.13,5.13,5.13,5.13,5.13,5.13,5.1292,5.1292,5.1292,5.1331,5.1399,5.1399,5.1404,5.1394,5.1394,5.1394,5.1394,5.1394,5.1396,5.1401,5.1407,5.1391,5.1395,5.1403,5.1405,5.1406,0.0,0.0,0.0,0.0,0.0,0.0,0.0,4.6225,4.6525,4.7292,4.7538,4.7931,4.8748,4.8845,4.8857,4.8876,4.8876,4.8876,4.8876,4.8857,4.8837,4.8798,4.8837,4.8837,4.8837,4.8876,4.8876,4.8876,4.8876,4.8876,4.8876,4.8876,4.8876,4.8915,4.9754,5.0143,5.0201,5.1036,5.0908,5.0066,4.9154,4.9294,4.9952,0.0,0.0,0.0,0.0,0.0,0.0,0.0,0.0,0.0,0.0,0.0,0.0,0.0,0.0,0.0,0.0,0.0,0.0,0.0,0.0,0.0,0.0,0.0,0.0,0.0,0.0,0.0,0.0,0.0,0.0,0.0,0.0,0.0,5.1271,5.1294,5.1294,5.1292,5.1273,5.1236,5.1108,5.1218,5.1234,5.1105,5.1201,5.1273,5.1273,5.1294,5.1296,5.1296,5.1298,5.13,5.13,5.13,5.1292,5.1292,5.1294,5.1331,5.1399,5.1399,5.1404,5.1394,5.1394,5.1394,5.1394,5.1394,5.1401,5.1409,5.1409,5.1394,5.1399,5.1404,5.1406,5.1406,0.0,0.0,0.0,0.0,0.0,0.0,0.0,4.665,4.7151,4.7363,4.8029,4.8798,4.9647,4.973,5.0008,5.0633,5.0692,5.0692,5.0692,5.0086,4.9461,4.8837,4.9402,4.9734,4.9734,5.0359,5.0692,5.0692,5.0692,5.0692,5.0692,5.0692,5.0692,5.0692,5.0945,5.1042,5.1062,5.1309,5.1257,5.1021,5.0711,5.0735,5.0928,0.0,0.0,0.0,0.0,0.0,0.0,0.0,0.0,0.0,0.0,0.0,0.0,0.0,0.0,0.0,0.0,0.0,0.0,0.0,0.0,0.0,0.0,0.0,0.0,0.0,0.0,0.0,0.0,0.0,0.0,0.0,5.0836,5.0828,5.0926,5.106,5.1103,5.0953,5.094,5.0923,5.0884,5.0916,5.0923,5.088,5.0916,5.094,5.094,5.1089,5.1153,5.1153,5.1245,5.13,5.13,5.13,5.1292,5.1292,5.1343,5.1379,5.1399,5.1407,5.1391,5.1394,5.1394,5.1394,5.1394,5.1394,5.1401,5.139,5.1395,5.14,5.1404,5.1406,5.1406,5.1406,0.0,0.0,0.0,0.0,0.0,0.0,0.0,4.7053,4.7661,4.8391,4.8997,4.9688,5.0541,5.0635,5.0845,5.1353,5.1402,5.1394,5.1394,5.0925,5.0417,4.9911,5.0378,5.0632,5.0632,5.114,5.1394,5.1394,5.1394,5.1394,5.1394,5.1394,5.1394,5.1394,5.1394,5.1394,5.1393,5.1403,5.1383,5.1351,5.1329,5.13,5.1296,5.1275,5.1278,5.1303,5.1267,5.1282,5.1284,5.1264,0.0,0.0,0.0,0.0,0.0,0.0,0.0,0.0,0.0,0.0,0.0,0.0,0.0,0.0,0.0,0.0,0.0,0.0,0.0,0.0,0.0,0.0,0.0,0.0,5.0728,5.0687,5.0718,5.087,5.0932,5.0805,5.0794,5.0786,5.0711,5.0773,5.0786,5.0731,5.0773,5.0794,5.0794,5.0918,5.0962,5.0962,5.1125,5.1223,5.1223,5.1271,5.1305,5.1343,5.1748,5.1939,5.1952,5.2328,5.2487,5.2487,5.2487,5.2487,5.2487,5.2487,5.2496,5.2429,0.0,0.0,0.0,0.0,5.1406,5.1406,0.0,0.0,0.0,0.0,0.0,0.0,0.0,4.7512,4.8253,4.9795,5.0146,5.0547,5.1322,5.1406,5.1406,5.1406,5.1395,5.1398,5.1394,5.1397,5.1398,5.1394,5.1394,5.1394,5.1394,5.1394,5.1394,5.1394,5.1394,5.1394,5.1394,5.1394,5.1394,5.1394,5.1394,5.1394,5.1393,5.139,5.1361,5.1308,5.1294,5.129,5.1292,5.124,5.1256,5.1304,5.1241,5.1269,5.1304,5.1302,0.0,0.0,0.0,0.0,0.0,0.0,0.0,0.0,0.0,0.0,0.0,0.0,0.0,0.0,0.0,0.0,0.0,0.0,0.0,0.0,0.0,0.0,0.0,0.0,5.0738,5.0698,5.0582,5.0674,5.0738,5.0738,5.0738,5.0694,5.0572,5.0678,5.069,5.0586,5.0683,5.0738,5.0738,5.0773,0.0,0.0,0.0,5.1256,5.1356,5.1485,5.1571,5.1674,5.2452,5.2822,5.2878,5.3659,5.401,5.401,5.401,5.401,5.401,5.3991,5.4004,5.3841,5.2181,5.1481,5.1405,5.1406,5.1406,5.1406,0.0,0.0,0.0,0.0,0.0,0.0,0.0,4.8548,4.9616,4.9955,5.0662,5.1206,5.1379,5.1401,5.1402,5.1402,5.1406,5.1397,5.1396,5.1395,5.1396,5.1395,5.1394,5.1394,5.1394,5.1394,5.1394,5.1394,5.1394,5.1394,5.1394,5.1394,5.1394,5.1394,5.1394,5.1394,5.1394,5.1409,5.1392,5.1388,5.1326,5.1307,5.1306,5.1287,5.1318,5.1373,5.1364,5.1367,5.1367,5.1325,5.1306,5.1287,5.1243,5.1265,0.0,0.0,0.0,0.0,0.0,0.0,0.0,0.0,0.0,0.0,0.0,0.0,0.0,0.0,0.0,0.0,0.0,0.0,0.0,5.0413,5.0405,5.0388,5.0357,5.0372,5.0405,5.0405,5.0405,5.0383,5.0357,5.0377,5.0383,5.0357,5.0377,5.0405,5.0405,5.0557,5.0933,5.1583,5.1805,5.2233,5.2957,5.2974,5.3074,5.3263,5.3481,0.0,5.3744,5.3928,5.401,5.401,5.401,5.401,5.399,5.3999,5.3993,5.3904,5.2851,5.2011,5.1406,5.1406,5.1406,5.1406,0.0,0.0,0.0,0.0,0.0,0.0,0.0,4.9134,5.0164,5.0581,5.105,5.1357,5.1358,5.1354,5.1344,5.1344,5.1381,5.1406,5.1404,5.1406,5.1406,5.1404,5.1404,5.1404,5.1404,5.1404,5.1404,5.1404,5.1404,5.1402,5.1395,5.1395,5.1408,5.1395,5.1409,5.1392,5.1408,5.1393,5.1371,5.1344,5.131,5.1306,5.1299,5.1253,5.1285,5.1348,5.1345,5.1376,5.1384,5.1352,5.1352,5.1331,5.1276,5.1294,5.1346,0.0,0.0,0.0,0.0,0.0,0.0,0.0,0.0,0.0,0.0,0.0,0.0,0.0,0.0,5.0796,5.063,0.0,5.0424,5.0319,5.0302,5.0302,5.0302,5.0302,5.0302,5.0302,5.0302,5.0302,5.0302,5.0302,5.0302,5.0302,5.0703,5.0946,5.0946,5.143,5.1891,5.2341,5.2546,5.2882,5.3351,5.3414,5.3494,5.3607,5.4183,5.448,5.4562,5.5068,5.5297,5.5297,5.5297,5.5301,5.5307,5.53,5.5034,5.4608,5.4179,5.3476,5.2695,5.2695,5.2695,5.2695,0.0,0.0,0.0,0.0,0.0,0.0,0.0,4.9682,5.0507,5.1204,5.1296,5.1292,5.1304,5.1304,5.1291,5.13,5.1357,5.1391,5.1398,5.1395,5.1395,5.1398,5.1398,5.1398,5.1398,5.1398,5.1398,5.1398,5.1398,5.1403,5.1406,5.1406,5.1403,5.1391,5.1404,5.1405,5.1402,5.1405,5.1366,5.1327,5.1324,5.1327,5.1308,5.123,5.1268,5.1316,5.1293,5.133,5.137,5.137,5.1387,5.1362,5.131,5.1335,5.1362,5.131,5.1335,0.0,0.0,0.0,0.0,0.0,0.0,0.0,0.0,0.0,5.0988,5.0797,5.0684,5.0596,5.0557,5.0418,5.0302,5.0302,5.0302,5.0302,5.0302,5.0302,5.0359,5.0531,5.0397,5.0378,5.055,5.0544,5.0627,5.0779,5.1442,5.1824,5.1824,5.2454,5.291,5.3155,5.3327,5.3522,5.375,5.3853,5.3933,5.3973,5.4841,5.5273,5.5353,5.6178,5.6558,5.6605,5.6607,5.6595,5.6605,5.6597,5.6189,5.5546,5.5547,5.5117,5.4453,5.4121,5.4004,5.4004,0.0,0.0,0.0,0.0,0.0,0.0,0.0,0.0,5.1185,5.1281,5.1292,5.1308,5.13,5.1306,5.1292,5.1297,5.1306,5.134,5.1396,5.1341,5.1339,5.1398,5.1398,5.1398,5.1398,5.1398,5.1398,5.1398,5.1398,5.1399,5.1401,5.1401,5.1401,5.1403,5.1401,5.1403,5.1406,5.1405,5.1405,5.1385,5.14,5.1391,5.1379,5.1312,5.1336,5.1375,5.1322,5.1302,5.1315,5.1315,5.1303,5.1306,5.1304,5.1304,5.1306,5.1304,5.1304,5.1306,5.1304,5.1304,5.1265,5.115,5.1122,5.1071,0.0,0.0,5.0793,5.0648,5.0606,5.0551,5.0363,5.0319,5.0302,5.0302,5.0302,5.0302,5.0302,5.0302,5.0583,5.1366,5.0774,5.0602,5.1385,5.1442,5.1748,5.2461,5.262,5.2677,5.2677,5.2808,5.3245,5.4036,5.4137,5.455,5.5336,5.5363,5.5446,5.5638,5.5744,5.5944,5.6173,5.6281,5.642,5.6606,5.6595,5.6605,5.6592,5.6598,5.6542,5.6445,5.6445,5.6387,5.6113,5.457,5.4004,5.4004,0.0,0.0,0.0,0.0,0.0,0.0,0.0,0.0,0.0,5.1302,5.1299,5.13,5.13,5.13,5.129,5.1296,5.1296,5.1301,5.1344,5.133,5.1307,5.1346,5.1347,5.1347,5.1347,5.1347,5.1347,5.1347,5.1347,5.134,5.134,5.134,5.1368,5.1398,5.1367,5.1365,5.1391,5.1368,5.134,5.1349,5.1333,5.1338,5.1345,5.1303,5.1328,5.1345,5.1303,5.1294,0.0,5.1294,5.1308,5.13,5.13,5.13,5.13,5.13,5.13,5.1288,5.1193,5.1176,5.1131,5.0966,5.0928,5.0889,5.0718,5.0678,5.0619,5.0464,5.0435,5.0402,5.0319,5.0302,5.0302,0.0,5.0302,5.0474,5.0984,5.106,5.1372,5.2193,5.1983,5.1907,5.227,5.2308,5.2441,5.2827,5.3324,5.3629,5.3671,5.4135,5.4605,5.5004,5.5032,5.5245,5.5651,5.5671,5.571,5.5784,5.5858,5.597,5.6064,5.6146,5.6285,5.6496,5.6577,5.6592,5.6597,5.66,5.6601,5.6601,5.6601,5.6601,5.6504,5.5781,5.5508,5.5508,0.0,0.0,0.0,0.0,0.0,0.0,0.0,0.0,0.0,0.0,5.1294,5.13,5.13,5.13,5.13,5.13,5.13,5.13,5.13,5.13,5.13,5.13,5.13,5.13,5.13,5.13,5.13,5.13,5.13,5.1303,5.1302,5.1302,5.1338,5.1379,5.1316,5.1329,5.1361,5.1313,5.1297,5.1296,5.1323,5.131,5.1308,5.1308,5.1308,5.1308,5.1308,5.1304,5.13,5.1306,5.1304,5.13,5.13,5.13,5.13,5.13,5.1263,5.1227,5.1125,5.1059,5.0978,5.0786,5.0745,5.0694,5.0552,5.0521,5.0474,5.0337,5.0302,5.0302,5.0302,5.0506,5.0665,5.0665,5.0837,5.1219,5.1849,5.192,5.2251,5.3059,5.3155,5.3256,5.3485,5.3313,5.3299,5.3576,5.4188,5.4581,5.4628,5.5196,5.5551,5.5596,5.5613,5.564,5.5708,5.5708,5.5708,5.5708,5.5803,5.5858,5.5915,5.6059,5.6233,5.6406,5.6507,5.6572,5.66,5.6601,5.6601,5.6601,5.6601,5.6601,5.6601,5.6601,5.6601,5.6601,0.0,0.0,0.0,0.0,0.0,0.0,0.0,0.0,0.0,0.0,0.0,0.0,0.0,5.13,5.13,5.13,5.13,5.13,5.13,5.13,5.13,5.13,5.13,5.13,5.13,5.13,5.13,5.13,5.13,5.13,5.1302,5.1302,5.1304,5.1304,5.1302,5.1296,5.1296,5.1294,5.1294,5.1314,5.1369,5.1366,5.1292,5.1292,5.1292,5.1292,5.1292,5.1298,5.1302,5.1305,5.1298,5.13,5.13,5.13,0.0,5.13,5.1215,5.1108,5.1102,5.0952,5.0782,5.0634,5.062,5.0542,5.0352,5.0314,5.0308,5.0302,5.0302,5.0302,5.0302,5.0984,5.1557,5.1557,5.2212,5.2734,5.2753,5.2753,5.3091,5.3951,5.4065,5.4396,5.5242,5.4623,5.447,5.5268,5.5405,5.546,5.5466,5.5543,5.5596,5.5596,5.5657,5.5703,5.5708,5.5708,5.5708,5.5708,5.5695,5.5769,5.5915,5.6106,5.6271,5.6404,5.6398,5.6477,5.66,5.6601,5.6601,5.6601,5.6601,5.6601,5.6601,5.6601,5.6601,5.6601,0.0,0.0,0.0,0.0,0.0,0.0,0.0,0.0,0.0,0.0,0.0,0.0,0.0,0.0,0.0,0.0,5.13,5.13,5.13,5.13,5.13,5.13,5.13,5.13,5.13,5.13,5.13,5.13,5.13,5.13,5.13,5.13,5.13,5.13,5.13,5.1304,5.1292,5.1292,5.1292,5.1292,5.1317,5.1316,5.1292,5.1292,5.1292,5.1294,0.0,5.13,5.1302,5.1305,5.1298,5.13,5.13,5.13,5.1288,5.1184,5.1039,5.0889,5.0796,5.072,5.0625,5.0442,5.0407,5.0385,5.0319,5.0302,5.0302,5.0302,5.0755,5.1156,5.1156,5.1849,5.2403,5.2403,5.2614,5.3002,5.3569,5.3664,5.3989,5.4861,5.4957,5.5084,5.5371,5.5166,5.5157,5.5508,5.5556,5.5585,5.5624,5.5646,5.5676,5.5676,5.5698,5.5708,5.5708,5.5708,5.5708,5.5708,5.5708,5.5747,5.5837,5.6001,5.6132,5.6264,5.6368,5.6481,5.6601,5.6553,5.6557,5.6601,5.6554,5.6557,5.6601,5.6601,5.6601,5.6601,0.0,0.0,0.0,0.0,0.0,0.0,0.0,0.0,0.0,0.0,0.0,0.0,0.0,0.0,0.0,0.0,0.0,5.13,5.13,5.13,5.13,5.13,5.1308,5.1292,5.1292,5.1317,5.134,5.134,5.1265,5.1226,5.1224,5.114,5.1119,5.1119,5.1119,5.1159,5.123,5.123,5.1256,5.1292,5.1292,5.1292,5.1292,5.1292,5.1306,0.0,5.1305,5.1261,5.1241,5.1277,5.1298,5.13,5.13,5.1278,5.1191,5.1036,5.087,5.0713,5.0625,5.0551,5.0458,5.0323,5.0302,5.0302,5.0302,5.0544,5.0755,5.0755,5.1442,5.204,5.204,5.2709,5.3263,5.3263,5.3531,5.3913,5.4486,5.4562,5.4766,5.532,5.5403,5.5396,5.5396,5.5439,5.5498,5.5562,5.5602,5.5646,5.5703,5.5708,5.5708,5.5708,5.5708,5.5708,5.5708,5.5708,5.5708,5.5708,5.573,5.5756,5.5797,5.594,5.6065,5.6218,5.6322,5.6454,5.6601,5.6555,5.6557,5.6601,5.6554,5.6557,5.6601,5.6601,5.6601,5.6601,0.0,0.0,0.0,0.0,0.0,0.0,0.0,0.0,0.0,0.0,0.0,0.0,0.0,0.0,0.0,0.0,0.0,0.0,5.13,5.13,5.1298,5.1292,5.1294,5.1284,5.1261,5.1335,5.1362,5.1362,5.1188,5.1108,5.1092,5.0893,5.0828,5.0824,5.0817,5.0935,5.1117,5.1117,5.1196,5.1314,5.1314,5.1294,5.1292,5.1292,5.1298,5.1296,5.1298,5.1195,5.1117,5.1232,5.1271,5.1267,5.1267,5.1179,5.104,5.0847,5.0692,5.0572,5.0572,5.0456,5.0302,5.0302,5.0302,5.0302,5.0359,5.1003,5.1614,5.1652,5.2308,5.2868,0.0,0.0,5.418,5.418,5.4861,5.5396,5.5396,5.5396,5.5396,0.0,0.0,0.0,0.0,0.0,5.5568,5.551,5.5618,5.5708,5.5708,5.5708,5.5708,5.5708,5.5708,5.5708,5.5708,5.5708,5.5708,5.5708,5.5766,5.5792,5.5821,5.5943,5.6086,5.6218,5.6286,5.6415,5.6601,5.6601,5.6601,5.6601,5.6601,5.6601,5.6601,5.6601,5.6601,5.6601,0.0,0.0,0.0,0.0,0.0,0.0,0.0,0.0,0.0,0.0,0.0,0.0,0.0,0.0,0.0,0.0,0.0,0.0,5.13,5.13,5.125,5.1153,5.1155,5.1084,5.093,5.0998,5.1033,5.1033,5.103,5.1074,5.1179,5.1027,5.1068,5.1241,5.1146,5.1189,5.1314,5.1314,5.1348,5.1369,5.1369,5.1343,5.1292,5.1292,5.1241,5.115,5.1158,5.102,5.0902,0.0,0.0,0.0,5.0933,5.0844,5.0711,5.0662,5.0517,5.0374,5.0374,5.0348,5.0302,5.0302,5.0302,5.0474,5.1117,5.1442,5.1767,5.2365,5.3168,5.376,0.0,0.0,0.0,5.5078,5.5263,0.0,5.5396,5.5396,0.0,5.5396,0.0,5.5409,5.5395,5.548,5.5539,5.5573,5.5646,5.5708,5.5708,5.5708,5.5708,5.5708,5.5708,5.5708,5.5708,5.5708,5.5708,5.5708,5.5766,5.5831,5.589,5.6015,5.6142,5.6286,5.6408,5.6502,5.6601,5.6552,5.6555,5.6601,5.6551,5.6555,5.6601,5.6601,5.6601,5.6601,0.0,0.0,0.0,0.0,0.0,0.0,0.0,0.0,0.0,0.0,0.0,0.0,0.0,0.0,0.0,0.0,0.0,0.0,0.0,5.13,5.1239,5.1108,5.1097,5.1008,5.0805,5.0877,5.0898,5.0898,5.0848,5.0859,5.0923,5.076,5.0777,5.091,5.0926,5.1004,5.1135,5.1135,5.1247,0.0,0.0,5.1178,5.1247,5.1135,5.1042,5.1018,0.0,0.0,0.0,0.0,0.0,5.0782,5.0724,5.0662,5.0572,5.0495,0.0,5.0302,5.0302,5.0302,5.0302,5.0302,5.0302,5.0531,5.1404,5.1862,5.2365,5.3206,5.4065,5.4677,5.4677,5.5078,5.5396,0.0,0.0,0.0,5.5396,5.5396,5.5396,0.0,5.5434,0.0,5.5402,5.5516,5.559,5.5596,5.5651,5.5708,5.5708,5.5708,5.5708,5.5708,5.5708,5.5708,5.5708,5.5708,5.57,5.5745,5.5816,5.5885,5.5957,5.6015,5.6122,5.6266,5.634,5.6407,5.6476,5.6428,5.6466,5.6554,5.6517,5.6531,5.6601,5.6601,5.6601,5.6601,0.0,0.0,0.0,0.0,0.0,0.0,0.0,0.0,0.0,0.0,0.0,0.0,0.0,0.0,0.0,0.0,0.0,0.0,0.0,0.0,0.0,5.1071,5.1075,5.0985,5.0759,5.0835,5.0861,5.0861,5.0694,5.0624,5.0647,5.0448,5.0369,5.0396,5.0563,5.0717,5.0833,5.0829,5.102,5.1319,5.0952,5.095,5.1111,0.0,0.0,0.0,0.0,0.0,0.0,0.0,5.0498,5.072,5.0606,5.0567,5.0531,5.0346,5.0302,5.0302,5.0302,5.0302,5.0302,5.0302,5.0302,5.0569,5.1538,5.2308,5.3078,5.4065,0.0,5.5396,5.5396,5.5396,5.5396,5.5396,0.0,5.5396,5.5396,5.5396,5.5403,5.539,5.5458,5.5474,5.5432,5.5579,5.5676,5.5613,5.5676,5.5708,5.5708,5.5708,5.5708,5.5708,5.5708,5.5708,5.5708,5.5714,5.5745,5.5792,5.5885,5.5933,5.5999,5.6012,5.6087,5.6197,5.6213,5.6244,5.629,5.629,5.637,5.6479,5.6486,5.6548,5.6581,5.6601,5.6601,5.6601,0.0,0.0,0.0,0.0,0.0,0.0,0.0,0.0,0.0,0.0,5.1323,5.13,0.0,0.0,0.0,0.0,0.0,0.0,0.0,0.0,0.0,0.0,5.0925,5.0809,5.0551,5.0615,5.0659,5.0659,5.0659,5.0748,5.0835,5.0697,5.0713,5.0874,5.0863,5.0889,5.0978,5.0972,5.1011,5.1053,5.0937,5.088,5.0854,0.0,0.0,0.0,0.0,0.0,0.0,0.0,5.034,5.0383,5.0357,5.0346,5.0354,5.0314,5.0302,5.0302,5.0302,5.0302,5.0302,5.0302,5.0302,5.0703,5.2231,5.2696,0.0,0.0,5.5282,5.5396,5.5396,5.5396,5.5396,5.5396,5.5396,5.5396,5.5396,5.5396,5.5396,0.0,5.5408,5.5456,5.5556,5.5596,5.5649,5.5687,5.5684,5.5708,5.5708,5.5708,5.5708,5.5708,5.5708,5.5708,5.5708,5.5756,5.5782,5.5792,5.5924,5.5985,5.6004,5.6118,5.6171,5.6201,5.6266,5.6294,5.629,5.629,5.6318,5.6358,5.6453,5.6513,5.6523,5.658,5.6601,5.6601,0.0,0.0,0.0,0.0,0.0,0.0,0.0,5.139,5.1403,5.1396,5.1361,5.1342,5.1302,5.13,0.0,0.0,0.0,0.0,0.0,0.0,0.0,0.0,0.0,0.0,5.0615,5.0537,5.0505,5.0542,0.0,5.0639,5.0696,5.0634,5.0654,5.0732,5.0823,5.0859,5.0888,5.0851,5.088,5.0933,5.0679,5.0655,0.0,0.0,0.0,0.0,0.0,0.0,0.0,0.0,5.0302,5.0302,5.0302,5.0302,5.0302,5.0302,5.0302,5.0302,5.0302,5.0302,5.0302,5.0302,5.0302,5.0741,5.2429,0.0,0.0,0.0,5.5396,5.5396,5.5396,5.5396,0.0,5.5396,5.5396,5.5396,5.5396,5.5409,5.5403,5.5395,5.5462,5.5533,5.559,5.5624,5.5676,5.5703,5.5708,5.5708,5.5708,5.5708,5.5708,5.5708,5.5708,5.5719,5.5751,5.5782,5.5836,5.5909,5.5971,5.6008,5.5996,5.6067,5.6094,5.6098,5.6135,5.6146,5.6152,5.6222,5.6247,5.6266,5.6436,5.6507,5.6513,5.658,5.6601,5.6601,0.0,0.0,0.0,0.0,0.0,0.0,0.0,5.1394,5.1393,5.137,5.1391,5.1364,5.131,5.1306,5.1304,0.0,0.0,0.0,0.0,0.0,0.0,0.0,0.0,0.0,0.0,0.0,0.0,5.0505,5.0505,0.0,0.0,0.0,0.0,0.0,5.0696,5.0767,5.0776,5.0684,5.0722,0.0,0.0,5.0424,0.0,0.0,0.0,0.0,0.0,0.0,0.0,0.0,5.0302,5.0302,5.0302,5.0302,5.0302,5.0302,5.0302,5.0302,5.0302,5.0302,5.0302,5.0302,5.0302,5.0741,5.2429,5.2811,0.0,5.5033,5.5396,5.5396,5.5396,5.5396,5.5396,0.0,5.539,5.5403,5.5403,5.5402,5.5426,0.0,5.5539,0.0,5.5613,5.5682,5.5708,5.5708,5.5708,5.5708,5.5708,5.5708,5.5708,5.5708,5.5719,5.5745,5.5792,5.5831,5.5905,5.5994,5.6004,5.5992,5.6008,5.6008,5.6008,5.6008,5.6008,5.601,5.6059,5.6167,5.6213,5.6242,5.643,5.6507,5.6513,5.658,5.6601,5.6601,0.0,0.0,0.0,0.0,0.0,0.0,0.0,5.1394,5.139,5.1317,5.1366,5.1369,5.1312,5.1291,5.1301,0.0,0.0,0.0,0.0,0.0,0.0,0.0,0.0,0.0,0.0,0.0,0.0,5.0505,5.0505,0.0,0.0,0.0,0.0,0.0,0.0,5.0639,5.0702,5.0559,0.0,0.0,0.0,0.0,0.0,0.0,0.0,0.0,0.0,0.0,0.0,0.0,0.0,5.0302,5.0302,5.0302,5.0302,5.0302,0.0,0.0,5.0302,5.0302,5.0302,5.0302,5.0302,5.0741,5.2429,0.0,5.3288,5.5033,5.5396,5.5396,5.5396,5.5396,5.5396,0.0,5.539,5.5389,5.5389,5.545,5.5516,5.5573,0.0,0.0,5.5673,5.5703,5.5708,5.5708,5.5708,5.5708,5.5708,5.5708,5.5708,5.5708,5.5756,5.5787,5.5792,5.5919,5.5985,5.5994,5.6001,5.6003,5.6008,5.6008,5.6008,5.6008,5.6008,5.6064,5.6178,5.6191,5.6247,5.6308,5.6446,5.6507,5.6513,5.658,5.6601,5.6601,0.0,0.0,0.0,0.0,0.0,0.0,5.1342,5.1333,5.134,5.1294,5.1366,5.1369,5.1314,5.1341,5.1362,0.0,0.0,0.0,0.0,0.0,0.0,0.0,0.0,0.0,0.0,0.0,5.0667,5.062,5.053,0.0,0.0,0.0,0.0,0.0,0.0,5.0582,5.0628,5.0537,0.0,0.0,0.0,0.0,0.0,0.0,0.0,0.0,0.0,0.0,0.0,0.0,0.0,0.0,5.0302,5.0302,0.0,0.0,5.0302,5.0302,5.0302,5.0302,5.0302,5.0302,5.0678,5.1385,5.2543,0.0,5.3925,5.5148,5.5403,5.5415,5.5452,5.5464,5.5464,5.5464,5.5463,5.5462,5.5462,5.5522,5.5568,5.5596,5.5649,5.5662,0.0,5.5708,5.5708,5.5708,5.5708,5.5708,5.5708,5.5708,5.5724,5.5756,5.5782,5.5841,5.5919,5.5976,5.6008,5.6001,5.5999,5.6008,5.6008,5.6008,5.6008,5.5993,5.6083,5.6141,5.6207,5.6327,5.6344,5.6324,5.6481,5.6548,5.6513,5.658,5.6601,5.6601,0.0,0.0,0.0,0.0,0.0,5.13,5.13,5.1294,5.1303,5.1303,5.1338,5.1345,5.1314,5.1366,5.1394,5.1394,0.0,0.0,0.0,0.0,0.0,0.0,0.0,0.0,0.0,0.0,5.0769,5.068,5.0571,5.0502,0.0,0.0,5.0443,5.0473,0.0,0.0,0.0,0.0,0.0,0.0,0.0,0.0,0.0,0.0,0.0,0.0,0.0,0.0,0.0,0.0,0.0,0.0,0.0,0.0,0.0,0.0,5.0302,5.0302,5.0302,5.0302,5.0302,5.0302,5.0965,5.1805,0.0,0.0,5.4377,5.5223,5.542,5.5444,5.5492,5.5504,5.5504,5.5504,5.5516,5.5533,5.5533,5.5585,5.5624,5.5624,0.0,5.5708,5.5708,5.5708,5.5708,5.5708,5.5708,5.5708,5.5708,5.5708,5.5735,5.5792,5.5826,5.5871,5.5994,5.6008,5.5996,5.6008,5.6008,5.6008,5.6008,5.6008,5.6018,5.6056,5.6151,5.6238,5.6295,5.6436,5.6458,5.6407,5.6538,5.6579,5.6548,5.6581,5.6601,5.6601,0.0,0.0,0.0,0.0,0.0,0.0,5.13,5.13,5.13,5.13,5.13,5.1292,5.1292,5.1366,5.1394,5.1394,0.0,0.0,0.0,0.0,0.0,0.0,0.0,0.0,0.0,0.0,5.0926,5.0592,5.0611,5.0495,5.0302,5.0302,5.0331,5.0407,0.0,0.0,0.0,0.0,0.0,0.0,0.0,0.0,0.0,0.0,0.0,0.0,0.0,0.0,0.0,0.0,0.0,0.0,0.0,5.0302,5.0302,0.0,5.0302,5.0302,5.0302,5.0302,5.0302,5.0302,5.0965,5.1805,0.0,0.0,5.4432,5.5229,5.5456,5.5504,5.5504,5.5504,5.5504,5.5504,5.5556,5.5596,5.5596,5.5665,5.5708,0.0,5.5708,5.5708,5.5708,5.5708,5.5708,5.5708,5.5708,5.5708,5.5708,5.5708,5.5735,5.5792,5.5856,5.5924,5.5994,5.6005,5.6008,5.6008,5.6008,5.6008,5.6008,5.6008,5.6068,5.6194,5.6194,5.631,5.6506,5.6507,5.6549,5.6601,5.6601,5.6601,5.6601,5.6601,5.6601,5.6601,0.0,0.0,0.0,0.0,0.0,0.0,0.0,5.13,5.13,5.13,5.1306,5.129,5.129,5.1328,5.134,5.134,0.0,0.0,0.0,0.0,0.0,0.0,0.0,0.0,0.0,0.0,5.1043,5.0933,5.0809,5.0656,5.0506,5.0506,5.0432,5.0325,5.0325,5.0359,0.0,0.0,0.0,0.0,0.0,0.0,0.0,0.0,0.0,0.0,0.0,0.0,0.0,0.0,0.0,0.0,0.0,0.0,0.0,5.0302,5.0302,5.0302,5.0302,5.0302,5.0302,5.0302,5.0981,5.1876,5.2686,5.3594,5.4503,5.5355,5.5556,5.5579,5.5624,5.5649,5.5649,5.5649,5.5646,5.5676,0.0,0.0,0.0,5.5708,5.5708,5.5708,5.5708,5.5708,5.5708,5.5708,5.5708,5.5708,5.5708,5.5745,5.5806,5.5875,5.589,5.5919,5.6005,5.5999,5.6008,5.6008,5.6008,5.6008,5.5993,5.6094,5.6151,5.6204,5.6342,5.6436,5.649,5.6553,5.6581,5.6601,5.6601,5.6601,5.6601,5.6601,5.6601,5.6601,0.0,0.0,0.0,0.0,0.0,0.0,0.0,5.13,5.13,5.13,5.13,5.13,5.13,5.1292,5.1301,5.1301,0.0,0.0,0.0,0.0,0.0,0.0,0.0,0.0,0.0,5.1219,5.1141,5.1102,5.0962,5.0809,5.0592,5.0592,5.049,5.0302,5.0302,5.0319,0.0,0.0,0.0,0.0,0.0,0.0,5.0302,0.0,0.0,0.0,0.0,0.0,0.0,0.0,0.0,0.0,0.0,0.0,0.0,0.0,5.0302,5.0302,5.0302,5.0314,5.0331,5.0331,5.1014,5.1825,0.0,0.0,5.449,5.5028,5.5407,5.564,5.5678,5.5708,5.5708,5.5708,5.5708,5.5708,5.5708,0.0,0.0,5.5708,5.5708,5.5708,5.5708,5.5708,5.5708,5.5708,5.5708,5.5714,5.574,5.5771,5.5841,5.5924,5.5948,5.5966,5.6008,5.6008,5.6008,5.6008,5.6059,5.6091,5.6075,5.6154,5.625,5.6315,5.6393,5.6463,0.0,5.6581,5.6601,5.6601,5.6601,5.6601,5.6601,5.6601,5.6601,5.6601,0.0,0.0,0.0,0.0,0.0,0.0,0.0,5.13,5.13,5.13,5.13,5.13,5.13,5.13,5.13,5.13,0.0,0.0,0.0,0.0,0.0,0.0,0.0,0.0,0.0,5.1314,5.1247,5.1122,5.112,5.0948,5.0639,5.062,5.0516,5.0325,5.0308,5.0302,0.0,0.0,0.0,0.0,5.0302,5.0302,0.0,0.0,0.0,0.0,0.0,0.0,0.0,0.0,0.0,0.0,0.0,0.0,0.0,0.0,0.0,0.0,0.0,5.0342,5.0407,5.0412,5.1031,5.165,5.1689,0.0,0.0,5.4372,5.505,5.5631,5.5689,5.5708,5.5708,5.5708,5.5708,5.5708,0.0,5.5708,0.0,0.0,5.5708,5.5708,5.5708,5.5708,5.5708,5.5708,5.5689,5.5735,5.5811,5.5821,5.5866,5.599,5.5999,5.6002,5.6008,5.6008,5.6008,5.5993,5.6132,5.6185,5.6194,5.6204,5.6315,5.6486,5.6377,5.642,5.6601,5.6601,5.6601,5.6601,5.6601,5.6601,5.6601,5.6601,5.6601,5.6601,0.0,0.0,0.0,0.0,0.0,0.0,0.0,0.0,0.0,0.0,5.13,5.13,5.13,5.13,5.13,0.0,0.0,0.0,0.0,0.0,0.0,0.0,0.0,0.0,0.0,5.1388,5.1359,5.1337,5.1285,5.1159,5.0972,5.0828,5.0674,5.0526,5.0369,5.0302,0.0,0.0,0.0,0.0,5.0302,5.0302,0.0,0.0,0.0,0.0,5.0302,5.0302,0.0,0.0,0.0,0.0,0.0,0.0,0.0,0.0,5.0331,5.0384,5.0384,0.0,5.0418,5.0468,5.0675,5.1019,0.0,0.0,0.0,0.0,0.0,5.4972,5.5593,5.5708,5.5708,5.5708,5.5708,5.5708,5.5708,5.5708,0.0,5.5708,5.5708,5.5708,5.5708,5.5708,5.5708,5.5708,5.5751,5.5776,5.5792,5.5905,5.5971,5.5994,5.5992,5.5995,5.6008,5.6008,5.6008,5.6008,5.6031,5.6102,5.6197,5.6258,5.6356,5.6508,5.6529,5.656,5.6601,5.6601,5.6601,5.6601,5.6601,5.6601,5.6601,5.6601,5.6601,5.6601,0.0,0.0,0.0,0.0,0.0,0.0,0.0,0.0,0.0,0.0,0.0,0.0,0.0,0.0,0.0,0.0,0.0,0.0,0.0,0.0,0.0,0.0,0.0,0.0,5.1405,5.1405,5.1401,5.1394,5.1367,5.1261,5.1092,5.0884,5.0737,5.0582,5.0391,5.0302,0.0,0.0,0.0,0.0,5.0302,0.0,0.0,0.0,0.0,0.0,5.0302,5.0302,0.0,5.0302,5.0302,5.0302,0.0,0.0,0.0,0.0,5.0319,5.0379,5.0435,5.0468,5.0495,5.0551,5.0603,5.0759,5.1201,0.0,0.0,0.0,0.0,5.4049,5.4472,5.4549,5.4684,5.5068,5.4799,0.0,0.0,0.0,5.5708,5.5708,5.5708,5.5708,5.5708,5.5708,5.5708,5.5708,5.5761,5.5802,5.5841,5.5933,5.6004,5.6007,5.5995,5.6008,5.6008,5.6008,5.6008,5.5993,5.6093,5.6178,5.6247,5.6348,5.6457,5.6552,5.6554,5.6579,5.6601,5.6601,5.6601,5.6601,5.6601,5.6601,5.6601,5.6601,5.6601,5.6601,0.0,0.0,0.0,0.0,0.0,0.0,0.0,0.0,0.0,0.0,0.0,0.0,0.0,0.0,0.0,0.0,0.0,0.0,0.0,0.0,0.0,0.0,0.0,5.1409,5.1401,5.1401,5.1395,5.1401,5.1396,5.1317,5.1142,5.095,5.0758,5.0582,5.041,5.0337,0.0,0.0,0.0,0.0,5.0308,0.0,0.0,0.0,0.0,0.0,0.0,0.0,0.0,5.0314,5.0319,5.0331,5.0331,0.0,0.0,0.0,0.0,0.0,5.0484,5.0553,5.0613,5.0613,5.0653,5.0707,5.0707,0.0,0.0,0.0,0.0,0.0,0.0,5.3197,0.0,0.0,0.0,0.0,5.4203,5.4895,5.5381,5.5497,5.5516,5.5574,5.5689,5.5708,5.5689,5.5719,5.5771,5.5841,5.5909,5.5976,5.6007,5.6008,5.6008,5.6008,5.6008,5.6018,5.6031,5.6035,5.6217,5.6318,5.6332,5.6449,5.6548,5.6601,5.655,5.6553,5.6601,5.6601,5.6601,5.6601,5.6601,5.6601,5.6601,5.6601,5.6601,5.6601,0.0,0.0,0.0,0.0,0.0,0.0,0.0,0.0,0.0,0.0,0.0,0.0,0.0,0.0,0.0,0.0,0.0,0.0,0.0,0.0,0.0,0.0,5.1399,5.1404,5.1392,5.1392,5.1391,5.1409,5.1407,5.1388,5.1353,5.1144,5.0897,5.0606,5.0576,5.0453,5.0302,0.0,0.0,5.0302,5.0354,0.0,0.0,0.0,0.0,0.0,0.0,0.0,0.0,5.0371,5.041,5.0478,5.0478,0.0,0.0,0.0,0.0,0.0,5.0553,5.0633,5.0678,5.0678,5.0683,5.0707,5.0707,0.0,0.0,0.0,0.0,0.0,0.0,5.3197,5.3236,0.0,0.0,5.3255,5.3371,5.351,5.3857,5.4607,5.4684,5.4953,5.5631,5.5708,5.573,5.5776,5.5841,5.5909,5.5981,5.5992,5.5999,5.6008,5.6008,5.6008,5.6008,5.6117,5.6161,5.6165,5.6254,5.6367,5.6477,5.6484,5.6548,5.6601,5.6581,5.6582,5.6601,5.6601,5.6601,5.6601,5.6601,5.6601,5.6601,5.6601,5.6601,5.6601,0.0,0.0,0.0,0.0,0.0,0.0,0.0,0.0,0.0,0.0,0.0,0.0,0.0,0.0,0.0,0.0,0.0,0.0,0.0,0.0,0.0,5.1397,5.1404,5.1409,5.1394,5.1409,5.1409,5.1394,5.1397,5.1407,5.1385,5.1089,5.0825,5.0601,5.0495,5.0402,5.0367,5.0396,5.0407,5.0418,0.0,0.0,0.0,0.0,0.0,0.0,0.0,0.0,0.0,0.0,5.0446,5.0505,5.0505,0.0,0.0,0.0,0.0,0.0,5.0588,5.0618,5.0648,5.0683,5.0707,5.0707,5.0707,0.0,0.0,0.0,0.0,0.0,0.0,0.0,5.1856,5.1856,5.2606,5.3044,5.2563,5.289,5.353,5.4395,5.4491,5.4818,5.5612,5.5708,5.573,5.5787,5.5851,5.5919,5.599,5.6001,5.6008,5.6008,5.6008,5.6008,5.6008,5.6162,5.6247,5.6197,5.6334,5.6446,5.6508,5.6548,5.6579,5.6601,5.6601,5.6601,5.6601,5.6601,5.6601,5.6601,5.6601,5.6601,5.6601,5.6601,5.6601,5.6601,0.0,0.0,0.0,0.0,0.0,0.0,0.0,0.0,0.0,0.0,0.0,0.0,0.0,0.0,0.0,0.0,0.0,0.0,0.0,0.0,5.1403,5.1401,5.139,5.1394,5.1394,5.1407,5.1406,5.1394,5.1403,5.1395,5.1366,5.1066,5.0811,5.0646,5.0503,5.0429,5.0407,5.0435,5.0468,5.05,0.0,0.0,0.0,0.0,0.0,0.0,0.0,0.0,0.0,0.0,0.0,0.0,0.0,0.0,0.0,5.0537,5.0532,5.0532,5.0608,5.0618,5.0633,5.0697,0.0,5.0707,5.0707,0.0,0.0,0.0,0.0,0.0,0.0,5.0707,0.0,5.0707,5.1784,5.2375,5.1717,5.2178,5.2933,5.3799,5.4068,5.4511,5.5343,5.5604,5.5751,5.5826,5.589,5.5957,5.6008,5.601,5.6008,5.6008,5.6008,5.6008,5.6008,5.6203,5.6271,5.6224,5.6436,5.6522,5.6523,5.658,5.6601,5.6601,5.6601,5.6601,5.6601,5.6601,5.6601,5.6601,5.6601,5.6601,5.6601,5.6601,5.6601,5.6599,0.0,0.0,0.0,0.0,0.0,0.0,0.0,0.0,0.0,0.0,0.0,0.0,0.0,0.0,0.0,0.0,0.0,0.0,0.0,0.0,5.1407,5.1392,5.1393,5.1394,5.1394,5.1393,5.1393,5.1394,5.1403,5.1365,5.1315,5.1284,5.1091,5.0782,5.084,5.0684,5.0412,5.0521,5.0542,5.0505,5.0553,0.0,0.0,0.0,0.0,0.0,0.0,0.0,0.0,0.0,0.0,0.0,0.0,0.0,5.0603,5.0663,5.0638,5.0608,5.0668,5.0683,5.0683,5.0707,5.0707,0.0,5.0707,5.0707,0.0,5.0707,0.0,0.0,0.0,5.0707,5.0707,5.0707,5.0803,5.0861,5.0803,5.0842,5.1188,5.1986,5.2794,5.3626,5.4491,5.5313,5.5826,5.589,5.5943,5.5989,5.5999,5.6008,5.6008,5.6008,5.6008,5.6008,5.6008,5.6203,5.6308,5.6303,5.6506,5.6582,5.6582,5.6601,5.6601,5.6601,5.6601,5.6601,5.6601,5.6601,5.6601,5.6601,5.6601,5.6601,5.6601,5.6601,5.6601,5.6599,0.0,0.0,0.0,0.0,0.0,0.0,0.0,0.0,0.0,0.0,0.0,0.0,0.0,0.0,0.0,0.0,0.0,0.0,0.0,0.0,5.1394,5.1404,5.1391,5.1394,5.1394,5.1408,5.1408,5.1394,5.139,5.138,5.1362,5.1222,5.1108,5.0987,5.0844,5.0733,5.0654,5.06,5.0608,5.0628,5.0608,5.0572,0.0,0.0,0.0,0.0,0.0,0.0,0.0,0.0,5.0638,5.0712,5.0797,5.0799,5.0786,5.0827,5.0799,5.0764,5.0717,5.0763,5.0806,5.0721,5.0767,0.0,0.0,5.0812,5.0812,5.0812,5.0812,0.0,0.0,0.0,5.0707,5.0707,5.0707,5.0707,5.0707,5.0707,5.0996,5.1793,5.2678,5.3549,5.4414,5.5299,5.5831,5.5895,5.5967,5.5998,5.6003,5.6008,5.6008,5.6008,5.6008,5.6008,5.6008,5.6159,5.6266,5.6292,5.6509,5.6601,5.6601,5.6601,5.6601,5.6601,5.6601,5.6601,5.6601,5.6601,5.6601,5.6601,5.6601,5.6601,5.6601,5.6601,5.66,5.6595,0.0,0.0,0.0,0.0,0.0,0.0,0.0,0.0,0.0,0.0,0.0,0.0,0.0,0.0,0.0,0.0,0.0,0.0,0.0,5.1368,5.14,5.1403,5.139,5.1394,5.1394,5.1407,5.1407,5.1394,5.1391,5.1406,5.1397,5.125,5.1159,5.1086,5.093,5.087,5.0856,5.0769,5.0747,5.0763,5.0706,5.0659,0.0,0.0,0.0,0.0,0.0,0.0,0.0,0.0,5.0683,5.079,5.0878,5.0909,5.0926,5.0926,5.0926,5.0905,5.0826,5.0843,5.0879,0.0,0.0,0.0,5.0975,5.0946,5.0894,5.0894,5.087,5.081,5.0717,0.0,5.0707,5.0707,5.0707,5.0707,5.0707,5.0707,5.0899,5.1467,5.2505,5.3439,5.4055,5.5165,5.5851,5.5938,5.5971,5.5992,5.6008,5.6008,5.6008,5.6008,5.6008,5.6008,5.6008,5.6119,5.6221,5.6266,5.6473,5.658,5.6601,5.6601,5.6601,5.6601,5.6601,5.6601,5.6601,5.6601,5.6601,5.6601,5.6601,5.6601,5.6601,5.6601,5.6599,5.6592,0.0,0.0,0.0,0.0,0.0,0.0,0.0,0.0,0.0,0.0,0.0,0.0,0.0,0.0,0.0,0.0,0.0,0.0,5.1397,5.1399,5.1403,5.1393,5.1394,5.1394,5.1394,5.1394,5.1394,5.1394,5.1403,5.1399,5.1397,5.1403,5.1298,5.1113,5.1161,5.1135,5.1004,5.0993,5.0969,5.0894,5.0894,5.0778,5.0598,0.0,0.0,0.0,0.0,0.0,0.0,0.0,5.0788,5.0898,5.0898,5.0942,5.1005,5.1005,5.1005,5.1005,5.1002,5.0949,5.0917,0.0,0.0,0.0,5.1141,5.1041,5.0894,5.0894,5.0788,5.0707,5.0707,5.0707,5.0707,5.0707,5.0707,5.0707,5.0707,5.0707,5.0707,5.0707,5.2164,5.3223,5.3302,5.4868,5.5919,5.599,5.6001,5.6008,5.6008,5.6008,5.6008,5.6008,5.6008,5.6008,5.6008,5.6139,5.6194,5.6197,5.6409,5.6527,5.6601,5.6601,5.6601,5.6601,5.6601,5.6601,5.6601,5.6601,5.6601,5.6601,5.6601,5.6601,5.6601,5.66,5.6597,5.6592,0.0,0.0,0.0,0.0,0.0,0.0,0.0,0.0,0.0,0.0,0.0,0.0,0.0,0.0,0.0,0.0,0.0,0.0,5.1397,5.1406,5.1391,5.1394,5.1394,5.1394,5.1394,5.1394,5.1394,5.1394,5.1391,5.1406,5.1399,5.1402,5.1372,5.1304,5.123,5.1178,5.1128,5.1036,5.0969,5.0902,5.0949,5.0844,5.0678,0.0,0.0,0.0,0.0,0.0,0.0,0.0,0.0,0.0,5.1072,5.1118,5.1141,5.1141,5.1141,5.1111,5.0978,5.1017,0.0,5.0965,0.0,0.0,0.0,5.1002,0.0,0.0,5.0788,5.0707,5.0707,5.0707,5.0707,5.0707,5.0707,5.0707,5.0707,5.0707,5.0707,5.0707,5.1645,5.2544,5.322,5.4314,5.5272,5.5951,5.6001,5.6008,5.6008,5.6008,5.6008,5.6008,5.6008,5.6008,5.6008,5.6043,5.6109,5.6197,5.6312,5.6422,5.6526,5.658,5.6601,5.6601,5.6601,5.6601,5.6601,5.6601,5.6601,5.6601,5.6601,5.6601,5.66,5.66,5.6595,5.6683,0.0,0.0,0.0,0.0,0.0,0.0,0.0,0.0,0.0,0.0,5.1342,5.1348,0.0,0.0,0.0,5.1403,5.1397,0.0,0.0,0.0,5.1394,5.1394,5.1394,5.1394,5.1394,5.1394,5.1394,5.1394,5.139,5.1407,5.1404,5.1407,5.1407,5.1403,5.1319,5.1286,5.1263,5.1197,5.1098,5.1017,5.1067,5.0979,5.0827,0.0,0.0,0.0,0.0,0.0,0.0,0.0,0.0,0.0,5.1165,5.1243,5.1286,5.1286,5.1286,5.1248,5.112,5.1147,0.0,5.1127,5.1118,5.1101,5.0979,0.0,0.0,0.0,5.0788,5.0707,5.0707,5.0707,5.0707,5.0707,5.0707,5.0707,5.0707,5.0707,5.0697,5.0697,5.1424,5.2319,5.3239,5.4124,5.5011,5.5925,5.599,5.6008,5.6008,5.6008,5.6008,5.6008,5.6008,5.6008,5.6008,5.6008,5.6043,5.6128,5.6214,5.6323,5.6421,5.6556,5.6601,5.6601,5.6601,5.6601,5.6601,5.6601,5.6601,5.6601,5.6601,5.6601,5.6638,5.6988,5.71,5.7206,0.0,0.0,5.1395,5.1401,0.0,0.0,0.0,0.0,0.0,5.1394,5.1394,5.1394,0.0,0.0,0.0,5.14,5.1409,5.1394,0.0,0.0,5.1394,5.1394,5.1394,5.1394,5.1394,5.1394,5.1394,5.1394,5.1404,5.1404,5.1394,5.1404,5.1404,5.1394,5.1394,5.1394,5.1394,5.1394,5.1326,5.1203,5.1211,5.1135,5.1005,5.1017,0.0,0.0,0.0,0.0,0.0,0.0,0.0,0.0,5.1213,5.1297,5.1394,5.1394,5.1394,5.1393,5.1389,0.0,0.0,5.1331,5.1183,0.0,5.0905,5.0883,5.0871,5.0871,0.0,5.0707,5.0707,5.0707,5.0707,5.0707,5.0707,5.0707,5.0707,5.0693,5.0693,5.0692,5.1399,5.227,5.3185,5.4063,5.4954,5.581,5.5969,5.6008,5.6008,5.6008,5.6008,5.6008,5.6008,5.6008,5.6008,5.6008,5.6008,5.5993,5.6142,5.6244,5.6316,5.6508,5.6582,5.6601,5.6601,5.6601,5.6601,5.6601,5.6601,5.6601,5.6699,5.6718,5.6813,5.7687,5.7974,5.8044,0.0,0.0,5.139,5.1407,0.0,0.0,0.0,0.0,5.1408,5.1396,5.1394,5.1399,5.1392,5.1396,0.0,5.139,5.1393,5.1394,5.1394,0.0,5.1394,5.1394,5.1394,5.1394,5.1394,5.1394,5.1394,5.1394,5.1392,5.1392,5.1394,5.1392,5.1392,5.1394,5.1394,5.1394,5.1394,5.1394,5.1326,5.1207,5.1302,5.1211,5.1014,5.1123,5.1084,0.0,0.0,0.0,0.0,0.0,0.0,0.0,5.136,5.1386,5.1394,5.1394,5.1394,5.1386,5.1262,5.1214,0.0,0.0,5.0991,5.0917,5.0902,5.0827,5.0735,5.0735,5.0721,5.0707,5.0707,5.0707,5.0707,5.0707,5.0707,5.0707,5.0707,5.0702,5.0706,5.0696,5.0911,5.1404,5.2282,5.3174,5.4066,5.4983,5.564,5.6008,5.6008,5.6008,5.6008,5.6008,5.6008,5.6008,5.6008,5.6008,5.6008,5.5993,5.6142,5.6244,5.6314,5.6458,5.6554,5.6601,5.6601,5.6601,5.6601,5.6601,5.6601,5.668,5.7343,5.7614,5.7727,5.8539,5.8824,5.8951,0.0,0.0,0.0,0.0,0.0,0.0,0.0,0.0,5.0934,5.1357,5.1395,5.1397,5.1406,5.1406,0.0,0.0,5.1394,5.1394,5.1394,5.1394,5.1394,5.1394,5.1394,5.1394,5.1394,5.1394,5.1394,5.1394,5.1394,0.0,0.0,0.0,5.1394,5.1394,5.1394,5.1394,5.1394,5.1394,5.1361,5.1297,5.1365,5.1323,5.1201,5.1262,5.1252,0.0,0.0,0.0,0.0,0.0,0.0,0.0,0.0,0.0,5.1394,5.1394,5.1394,5.1389,5.1302,0.0,0.0,5.0982,0.0,5.0871,5.0827,5.0749,5.0707,5.0707,5.0707,5.0707,5.0707,5.0707,5.0707,5.0707,5.0707,5.0697,5.0697,5.0702,5.0715,5.0784,5.0834,5.1196,5.2068,5.2556,5.3376,5.4697,5.52,5.5582,5.5988,5.6008,5.6008,5.6008,5.6008,5.6008,5.6008,5.6008,5.6008,5.6008,5.6064,5.6165,5.6314,5.6471,5.6578,5.6601,5.6601,5.6601,5.6601,5.6601,5.6855,5.7265,5.7713,5.814,5.8584,5.9416,5.9718,5.9846,0.0,0.0,0.0,0.0,0.0,0.0,0.0,0.0,0.0,5.1316,5.1394,5.1394,5.1394,5.1394,5.1394,0.0,0.0,0.0,5.1394,5.1394,5.1394,5.1394,5.1394,5.1394,5.1394,5.1394,5.1394,5.1394,0.0,0.0,0.0,0.0,0.0,5.1394,5.1394,5.1394,5.1394,5.1394,5.1394,5.1394,5.1394,5.1394,5.1394,5.1394,0.0,0.0,0.0,5.1394,5.1394,5.1394,0.0,0.0,0.0,0.0,5.1394,5.1394,5.1394,5.1392,5.1365,0.0,5.1091,5.0905,5.087,0.0,5.0731,5.0707,5.0707,5.0707,5.0707,5.0707,5.0707,5.0707,5.0707,5.0707,5.0697,5.0697,5.0692,5.0715,5.0775,5.0891,5.0908,5.1175,5.1912,5.2244,5.3018,5.4465,5.4832,5.5296,5.5969,5.6008,5.6008,5.6008,5.6008,5.6008,5.6008,5.6008,5.6008,5.6008,5.6022,5.6135,5.6316,5.6506,5.6581,5.6601,5.6601,5.6601,5.6601,5.6758,5.7246,5.7929,5.8221,5.8744,5.9422,6.0293,6.0615,6.0725,0.0,0.0,0.0,0.0,0.0,0.0,0.0,0.0,0.0,0.0,5.1394,5.1394,5.1394,5.1394,5.1394,5.1394,5.1394,5.1394,5.1394,0.0,0.0,5.1394,5.1394,5.1394,5.1394,5.1394,5.1394,5.1394,0.0,0.0,0.0,0.0,0.0,5.1394,0.0,0.0,5.1394,5.1394,5.1394,5.1394,5.1394,5.1394,5.1394,0.0,0.0,0.0,0.0,0.0,5.1394,5.1394,5.1394,0.0,0.0,0.0,5.1394,5.1394,5.1394,5.1367,0.0,0.0,5.0913,0.0,5.0731,5.0721,0.0,0.0,5.0707,5.0707,5.0707,5.0707,5.0707,5.0707,5.0707,5.0707,5.0702,5.0692,5.0696,5.0793,5.0887,5.0899,5.0889,5.0952,5.1057,5.2434,5.3424,5.3656,5.5026,5.5892,5.5988,5.6008,5.6008,5.6008,5.6008,5.6008,5.6008,5.6008,5.6008,5.5988,5.6121,5.6227,5.6295,5.6453,5.6551,5.6601,5.6601,5.6601,5.666,5.7402,5.7793,5.8045,5.9505,6.0124,6.0331,6.1218,6.1525,6.1543,0.0,0.0,0.0,0.0,0.0,0.0,0.0,0.0,0.0,0.0,0.0,5.1394,5.1394,5.1394,5.1394,5.1394,5.1394,5.1394,5.1394,5.1394,5.1394,5.1394,5.1394,5.1394,5.1394,5.1394,5.1394,0.0,0.0,0.0,0.0,5.1394,5.1394,0.0,0.0,0.0,0.0,5.1394,5.1394,5.1394,5.1394,5.1394,0.0,0.0,0.0,0.0,0.0,0.0,0.0,0.0,5.1394,5.1394,5.1394,0.0,0.0,0.0,5.1394,5.1358,5.1144,5.0995,5.087,0.0,5.0707,5.0707,5.0707,5.0707,5.0707,5.0707,5.0707,5.0707,5.0707,5.0707,5.0707,5.0707,5.0707,5.071,5.0742,5.0842,5.0908,5.0893,5.0909,5.0898,5.0898,5.2047,5.2979,5.3463,5.4639,5.5524,5.5988,5.6008,5.6008,5.6008,5.6008,5.6008,5.6008,5.6008,5.6008,5.5993,5.6142,5.6244,5.6295,5.6444,5.6548,5.6601,5.6601,5.6875,5.7363,5.7734,5.8457,5.9372,6.011,6.0709,6.1169,6.1567,6.1699,6.1699,0.0,0.0,0.0,0.0,0.0,0.0,0.0,0.0,0.0,0.0,0.0,5.1394,5.1394,0.0,0.0,0.0,5.1394,5.1394,5.1394,5.1394,5.1394,5.1394,5.1394,5.1394,5.1394,5.1394,0.0,0.0,0.0,0.0,5.1394,5.1394,5.1394,0.0,5.1394,0.0,0.0,0.0,0.0,0.0,0.0,0.0,0.0,0.0,0.0,0.0,0.0,0.0,0.0,0.0,0.0,5.1394,5.1394,5.1394,0.0,0.0,0.0,0.0,0.0,0.0,5.087,5.0721,5.0707,5.0707,0.0,0.0,5.0707,5.0707,5.0707,5.0693,5.0707,5.0697,5.0693,5.0707,5.0706,5.0757,5.0829,5.0872,5.0905,5.0898,5.0898,5.0999,5.1211,5.2028,5.2883,5.3749,5.4619,5.5374,5.5969,5.6008,5.6008,5.6008,5.6008,5.6008,5.6008,5.6008,5.6008,5.6008,5.6102,5.6193,5.6292,5.6408,5.6638,5.6933,5.6933,5.7305,5.793,5.8359,5.9276,6.0426,6.0635,6.1135,6.1693,6.1703,6.1699,6.1699,0.0,0.0,0.0,0.0,0.0,0.0,0.0,0.0,0.0,0.0,0.0,5.1394,5.1394,5.1394,5.1394,5.1394,5.1394,5.1394,5.1394,5.1394,5.1394,5.1394,5.1394,0.0,5.1394,5.1394,0.0,0.0,0.0,0.0,5.1394,5.1394,5.1394,5.1394,5.1394,5.1394,5.1394,0.0,0.0,0.0,0.0,0.0,0.0,0.0,0.0,0.0,0.0,0.0,0.0,0.0,0.0,0.0,0.0,5.1394,5.1394,0.0,0.0,0.0,0.0,5.0949,0.0,5.0721,5.0707,5.0707,0.0,5.0707,5.0707,5.0707,5.0707,5.0702,5.0706,5.0697,5.0702,5.0706,5.0742,5.081,5.0891,5.0893,5.0898,5.0898,5.0898,5.1211,5.2051,5.2921,5.3788,5.4677,5.5485,5.5969,5.6008,5.6008,5.6008,5.6008,5.6008,5.6008,5.6008,5.6008,5.6008,5.6008,5.6016,5.6118,5.629,5.6314,5.6862,5.7832,5.7832,5.7851,5.8027,5.9608,6.0328,6.0478,6.1311,6.1653,6.1701,6.1699,6.1699,6.1699,0.0,0.0,0.0,0.0,0.0,0.0,0.0,0.0,0.0,0.0,0.0,0.0,0.0,5.1394,5.1394,5.1394,5.1394,5.1394,5.1394,5.1394,5.1394,5.1394,5.1394,5.1394,5.1394,5.1394,0.0,0.0,0.0,5.1394,5.1394,5.1394,5.1394,5.1394,5.1394,5.1394,5.1394,5.1394,0.0,0.0,0.0,0.0,0.0,0.0,0.0,0.0,0.0,0.0,0.0,0.0,0.0,0.0,0.0,0.0,0.0,0.0,0.0,0.0,0.0,0.0,0.0,5.0707,5.0707,5.0707,5.0707,5.0707,5.0707,5.0707,5.0693,5.0697,5.0696,5.0706,5.0711,5.0761,5.0829,5.0863,5.0899,5.0893,5.0898,5.0898,5.0898,5.1231,5.2128,5.2999,5.3865,5.4735,5.5543,5.6008,5.6008,5.6008,5.6008,5.6008,5.6008,5.6008,5.6008,5.6008,5.6008,5.6008,5.6083,5.6181,5.6312,5.6911,5.7455,5.7969,5.9043,5.9492,5.955,6.0154,6.0736,6.1272,6.1582,6.1691,6.1699,6.1699,6.1699,6.1699,0.0,0.0,0.0,0.0,0.0,5.1394,0.0,0.0,0.0,0.0,0.0,0.0,0.0,0.0,5.1394,5.1394,5.1394,5.1394,5.1394,5.1394,5.1394,5.1394,5.1394,5.1394,5.1394,0.0,0.0,0.0,0.0,0.0,0.0,5.1394,5.1394,5.1394,5.1394,5.1394,0.0,0.0,0.0,5.1394,0.0,0.0,5.1394,0.0,0.0,0.0,0.0,0.0,0.0,0.0,0.0,0.0,0.0,0.0,0.0,0.0,0.0,0.0,5.105,0.0,0.0,0.0,5.0721,5.0736,5.0717,5.0726,5.0736,5.0697,5.0711,5.0733,5.0766,5.0766,5.0779,5.0834,5.0863,5.0904,5.0901,5.0901,5.0898,5.0898,5.1153,5.1679,5.2554,5.3424,5.4291,5.5142,5.5698,5.6008,5.6008,5.6008,5.6008,5.6008,5.6008,5.6008,5.6008,5.6008,5.6008,5.5993,5.6142,5.6381,5.6764,5.7403,5.8073,5.8808,5.9922,6.0409,6.0428,6.0719,6.1182,6.1697,6.1694,6.1707,6.1699,6.1699,6.1699,6.1699,0.0,5.1394,5.1394,5.1394,5.1394,5.1394,5.1394,0.0,0.0,0.0,0.0,0.0,0.0,0.0,0.0,5.1394,5.1394,5.1394,5.1394,5.1394,5.1394,5.1394,5.1394,5.1394,5.1394,0.0,0.0,0.0,0.0,0.0,0.0,0.0,5.1394,5.1394,5.1394,5.1394,5.1394,0.0,5.1394,5.1394,0.0,5.1394,5.1394,0.0,0.0,0.0,5.1394,5.1394,0.0,5.1394,0.0,0.0,0.0,0.0,0.0,0.0,0.0,0.0,0.0,0.0,0.0,0.0,5.0801,5.0788,5.0715,5.0742,5.0784,5.071,5.0766,5.0814,5.0895,5.0899,5.0904,5.0904,5.0904,5.0897,5.0894,5.0898,5.0917,5.0937,5.1699,5.2554,5.3444,5.4291,5.5122,5.593,5.6008,5.6008,5.6008,5.6008,5.6008,5.6008,5.6008,5.6008,5.6008,5.6008,5.6008,5.5993,5.6169,5.672,5.7604,5.7717,5.874,6.0408,6.0428,6.0447,6.0505,6.134,6.1705,6.1697,6.1704,6.1699,6.1699,6.1699,6.1699,6.1699,5.1394,5.1394,5.1394,5.1394,5.1394,5.1394,0.0,0.0,0.0,0.0,0.0,0.0,0.0,0.0,5.1394,5.1394,5.1394,5.1394,5.1394,5.1394,5.1394,5.1394,5.1394,5.1394,5.1394,0.0,0.0,0.0,0.0,0.0,0.0,0.0,0.0,0.0,5.1394,5.1394,5.1394,5.1394,0.0,5.1394,5.1394,5.1394,0.0,0.0,0.0,0.0,0.0,5.1394,5.1394,0.0,5.1394,5.1394,0.0,0.0,0.0,0.0,0.0,0.0,5.1039,0.0,0.0,0.0,0.0,0.0,5.0779,5.0788,5.0797,5.0779,5.0834,5.0887,5.0899,5.0905,5.0901,5.0901,5.0901,5.0905,5.0898,5.0898,5.1134,5.1776,5.2051,5.2786,5.4291,5.4658,5.5122,5.593,5.6008,5.6008,5.6008,5.6008,5.6008,5.6008,5.6008,5.6008,5.6008,5.6008,5.6008,5.6012,5.6818,5.7342,5.7648,5.9022,5.9922,6.0447,6.1072,6.1342,6.1353,6.1605,6.1696,6.1704,6.1701,6.1699,6.1699,6.1699,6.1699,6.1699,5.1394,5.1394,5.1394,5.1394,5.1394,5.1394,0.0,0.0,0.0,0.0,0.0,0.0,0.0,0.0,0.0,5.1394,5.1394,5.1394,5.1394,5.1394,5.1394,5.1394,5.1394,5.1394,0.0,0.0,0.0,0.0,0.0,0.0,0.0,0.0,0.0,0.0,5.1394,5.1394,0.0,0.0,0.0,0.0,5.1394,0.0,0.0,5.1394,5.1394,0.0,0.0,0.0,5.1394,5.1394,5.1394,0.0,0.0,0.0,0.0,0.0,0.0,0.0,0.0,0.0,0.0,0.0,0.0,0.0,5.0851,5.084,5.0844,5.0851,5.0876,5.0905,5.0905,5.0905,5.0898,5.0898,5.0898,5.0898,5.0898,5.0898,5.1211,5.2109,5.2515,5.3289,5.4677,5.5103,5.5505,5.5969,5.6008,5.6008,5.6008,5.6008,5.6008,5.6008,5.6008,5.6008,5.6008,5.6008,5.6205,5.6633,5.7289,5.7993,5.8769,5.9897,6.0604,6.0972,6.1478,6.1705,6.1691,6.1691,6.1706,6.1699,6.1699,6.1699,6.1699,6.1699,6.1699,6.1699,0.0,5.1394,5.1394,5.1394,5.1394,5.1394,0.0,0.0,0.0,0.0,0.0,0.0,0.0,0.0,0.0,0.0,5.1394,5.1394,5.1394,5.1394,0.0,0.0,0.0,0.0,0.0,0.0,0.0,0.0,0.0,0.0,0.0,0.0,0.0,0.0,5.1394,5.1394,5.1394,0.0,0.0,5.1394,5.1394,5.1394,0.0,0.0,5.1394,5.1394,5.1394,5.1394,5.1393,5.1388,5.1387,0.0,0.0,0.0,0.0,0.0,5.1244,0.0,0.0,0.0,0.0,0.0,5.0898,0.0,5.0897,5.0893,5.0909,5.0897,5.0893,5.0898,5.0898,5.0898,5.0898,5.0898,5.0898,5.0898,5.0898,5.0979,5.1366,5.2244,5.3115,5.3981,5.4851,5.5582,5.6008,5.6008,5.6008,5.6008,5.6008,5.6008,5.6008,5.6008,5.6008,5.6008,5.6008,5.6104,5.661,5.7493,5.7751,5.8739,6.0301,6.0468,6.0972,6.1709,6.1702,6.1692,6.1699,6.1699,6.1699,6.1699,6.1699,6.1699,6.1699,6.1699,6.1699,6.1699,5.1394,5.1394,5.1394,5.1394,5.1394,0.0,0.0,0.0,0.0,0.0,0.0,0.0,0.0,0.0,0.0,0.0,5.1394,5.1394,5.1394,0.0,0.0,0.0,0.0,0.0,0.0,0.0,0.0,0.0,0.0,0.0,0.0,0.0,0.0,0.0,5.1394,5.1394,5.1394,0.0,0.0,5.1394,5.1394,5.1394,5.1394,5.1394,5.1394,5.1394,5.1394,5.1394,5.1389,5.1284,5.1245,5.1224,0.0,0.0,0.0,5.1274,0.0,0.0,0.0,0.0,0.0,0.0,5.0898,0.0,5.089,5.0894,5.0898,5.0909,5.0894,5.0898,5.0898,5.0898,5.0898,5.0898,5.0898,5.0898,5.0898,5.1505,5.2264,5.3134,5.402,5.4871,5.5698,5.5911,5.6008,5.6008,5.6008,5.6008,5.6008,5.6008,5.6008,5.6008,5.6008,5.6008,5.6008,5.6704,5.7207,5.7512,5.8997,5.9907,6.032,6.1093,6.1539,6.1709,6.1702,6.1692,6.1699,6.1699,6.1699,6.1699,6.1699,6.1699,6.1699,6.1699,6.1699,6.1699,5.1394,5.1394,5.1394,5.1394,0.0,0.0,0.0,0.0,0.0,0.0,0.0,0.0,0.0,0.0,0.0,0.0,0.0,0.0,0.0,0.0,0.0,0.0,0.0,0.0,0.0,0.0,0.0,0.0,0.0,0.0,0.0,0.0,0.0,0.0,0.0,0.0,0.0,0.0,5.1394,5.1394,5.1394,0.0,5.1394,5.1394,5.1394,5.1394,5.1394,5.1394,5.1364,5.1161,5.1195,0.0,5.1098,5.1071,5.1111,0.0,5.1139,5.1017,0.0,0.0,0.0,5.0898,5.0898,0.0,0.0,5.0898,5.0898,5.0898,5.0898,5.0898,5.0898,5.0898,5.0898,5.0898,5.0898,5.0898,5.0898,5.1641,5.2515,5.3405,5.4271,5.5122,5.5911,5.6008,5.6008,5.6008,5.6008,5.6008,5.6008,5.6008,5.6008,5.6008,5.6008,5.6201,5.6646,5.7091,5.7812,5.8851,5.9762,6.0475,6.1011,6.1483,6.1691,6.1703,6.1694,6.1705,6.1699,6.1699,6.1699,6.1699,6.1699,6.1699,6.1699,6.1699,6.1699,6.1699,5.1394,5.1394,5.1394,5.1394,0.0,0.0,0.0,0.0,0.0,0.0,0.0,0.0,0.0,0.0,0.0,0.0,0.0,0.0,0.0,0.0,0.0,0.0,0.0,5.1394,0.0,0.0,0.0,0.0,5.1394,0.0,0.0,0.0,0.0,0.0,0.0,0.0,0.0,0.0,0.0,5.1394,0.0,5.1394,5.1394,5.1394,5.1394,5.1394,5.1394,5.1394,5.1362,5.1125,5.1174,5.1305,5.1039,5.1042,0.0,0.0,0.0,0.0,0.0,0.0,0.0,0.0,0.0,5.0898,0.0,0.0,0.0,5.0898,5.0898,5.0898,5.0898,5.0898,5.0898,5.0898,5.0898,5.0956,5.1134,5.1892,5.2709,5.3424,5.4407,5.5296,5.593,5.6008,5.6008,5.6008,5.6008,5.6008,5.6008,5.6008,5.6008,5.6008,5.6162,5.6588,5.7284,5.7648,5.8623,6.0192,6.0371,6.0899,6.1697,6.1691,6.1704,6.1697,6.1705,6.1699,6.1699,6.1699,6.1699,6.1699,6.1699,6.1699,6.1699,6.1699,6.1699,6.1699,5.1394,5.1394,5.1394,5.1394,0.0,0.0,0.0,0.0,0.0,0.0,0.0,0.0,0.0,0.0,0.0,0.0,0.0,0.0,5.14,0.0,0.0,0.0,0.0,0.0,5.1394,0.0,0.0,0.0,0.0,5.1394,0.0,0.0,0.0,0.0,5.1394,0.0,0.0,0.0,5.1394,0.0,5.1394,5.1394,0.0,5.1394,5.1394,5.1394,5.1394,5.1394,5.1386,5.1238,5.1195,5.1216,5.1172,5.1059,5.0997,5.1285,0.0,0.0,0.0,0.0,0.0,0.0,5.0898,5.0898,5.0898,0.0,5.0898,5.0898,0.0,5.0898,5.0898,0.0,0.0,5.0898,5.0898,5.1173,5.1935,5.2805,5.3386,5.3482,5.4909,5.5892,5.5988,5.6008,5.6008,5.6008,5.6008,5.6008,5.6008,5.6008,5.6008,5.6008,5.6743,5.7207,5.7303,5.8897,5.9866,6.0213,6.1038,6.1534,6.1697,6.1707,6.1699,6.1697,6.1705,6.1699,6.1699,6.1699,6.1699,6.1699,6.1699,6.1699,6.1699,6.1699,6.1699,6.1699,5.1394,5.1394,5.1394,5.1394,0.0,0.0,0.0,0.0,0.0,0.0,0.0,0.0,0.0,0.0,0.0,0.0,0.0,5.1399,0.0,0.0,0.0,0.0,0.0,0.0,0.0,0.0,0.0,0.0,5.1394,0.0,5.1394,0.0,0.0,0.0,5.1394,0.0,5.1394,0.0,5.1394,0.0,0.0,5.1394,5.1394,5.1394,5.1394,5.1394,5.1394,5.1394,5.1387,5.1248,5.1257,5.1274,5.1089,5.1056,0.0,5.1199,0.0,0.0,0.0,0.0,5.0978,5.0914,5.0901,5.0893,5.0894,5.0898,5.0898,5.0898,0.0,0.0,0.0,0.0,0.0,0.0,5.1327,5.1776,5.2148,5.3386,5.4252,5.4252,5.5296,5.6008,5.6008,5.6008,5.6008,5.6008,5.6008,5.6008,5.6008,5.6008,5.624,5.6743,5.711,5.7787,5.8797,5.9602,6.0297,6.0891,6.1369,6.1639,6.1708,6.1702,6.1695,6.1707,6.1702,6.1699,6.1699,6.1699,6.1699,6.1699,6.1699,6.1699,6.1699,6.1699,6.1699,6.1699,5.1394,0.0,0.0,0.0,0.0,0.0,0.0,0.0,0.0,0.0,0.0,0.0,5.139,5.1377,0.0,0.0,5.1392,5.1394,0.0,0.0,5.1394,0.0,0.0,0.0,0.0,0.0,0.0,0.0,0.0,0.0,5.1394,0.0,0.0,0.0,0.0,5.1394,5.1394,0.0,5.1394,5.1394,5.1394,5.1394,5.1394,5.1394,5.1394,5.1394,5.1394,5.1394,5.1389,5.1291,5.1327,5.136,5.1064,5.105,5.1148,0.0,0.0,0.0,5.1101,5.1044,5.0958,5.0951,5.0948,5.0956,5.094,5.0933,5.0898,5.0898,5.0898,0.0,0.0,0.0,0.0,0.0,0.0,5.236,5.2844,5.4026,5.4812,5.4798,5.5505,5.6008,5.6008,5.6008,5.6008,5.6008,5.6008,5.6008,5.6008,5.6008,5.6394,5.7265,5.7549,5.8411,5.9902,6.0271,6.0772,6.146,6.1566,6.166,6.1697,6.1695,6.1708,6.1699,6.1699,6.1699,6.1699,6.1699,6.1699,6.1699,6.1699,6.1699,6.1699,6.1699,6.1699,6.1699,5.1394,5.1394,0.0,0.0,0.0,0.0,0.0,0.0,0.0,0.0,0.0,0.0,0.0,0.0,0.0,0.0,0.0,5.1401,5.1397,0.0,5.1394,0.0,0.0,5.1394,0.0,0.0,0.0,0.0,0.0,0.0,5.1394,0.0,0.0,0.0,5.1394,5.1394,5.1394,5.1394,5.1394,5.1394,5.1394,5.1394,5.1394,5.1394,5.1394,5.1394,5.1394,5.1394,5.1394,5.1392,5.14,5.1381,5.1227,5.1113,5.1019,5.0997,5.0966,5.093,5.0988,5.105,5.1086,5.1081,5.1096,5.1096,5.1096,5.099,5.0898,5.0898,5.0898,5.0898,5.0898,0.0,0.0,0.0,0.0,0.0,0.0,5.4821,5.486,5.4814,5.5505,5.6008,5.6008,5.6008,5.6008,5.6008,5.6008,5.6008,5.6008,5.6008,5.6394,5.7265,5.8172,5.9085,5.9994,6.1027,6.1568,6.1599,6.166,6.1706,6.1697,6.1706,6.1699,6.1699,6.1699,6.1699,6.1699,6.1699,6.1699,6.1699,6.1699,6.1699,6.1699,6.1699,6.1699,6.1699,5.1394,0.0,0.0,0.0,0.0,0.0,0.0,5.1394,0.0,0.0,5.1401,0.0,0.0,5.1346,5.1338,0.0,0.0,5.1401,5.1397,5.1409,0.0,0.0,0.0,5.136,0.0,0.0,0.0,0.0,0.0,0.0,5.1394,0.0,0.0,0.0,0.0,5.1394,0.0,0.0,0.0,0.0,0.0,5.1211,5.1152,5.133,5.1335,5.126,5.126,5.1209,5.1137,5.1137,5.1144,5.1113,5.1032,5.1,5.0991,5.0946,5.0909,5.09,5.0929,5.0928,5.0918,5.1014,5.1004,5.0981,5.1078,5.0993,5.0898,5.0898,5.0898,5.1076,5.1641,0.0,0.0,0.0,0.0,0.0,0.0,5.546,5.5821,5.58,5.6028,5.62,5.62,5.6159,5.6142,5.6194,5.6155,5.6145,5.6197,5.675,5.747,5.832,5.9221,6.0099,6.0911,6.137,6.1606,6.1608,6.1674,6.1709,6.1706,6.1701,6.1699,6.1699,6.1699,6.1699,6.1699,6.1699,6.1699,6.1699,6.1699,6.1699,6.1699,6.1699,6.1699,6.1699,5.1394,5.1394,0.0,0.0,0.0,0.0,0.0,0.0,0.0,0.0,5.1394,0.0,5.1396,0.0,5.1338,0.0,5.1394,5.1401,5.1397,5.1352,0.0,5.1205,5.1243,5.1213,0.0,0.0,0.0,0.0,0.0,5.1394,0.0,0.0,0.0,0.0,0.0,5.1394,5.1394,5.1394,5.1394,0.0,0.0,5.1125,5.1022,5.1197,5.1205,5.1132,5.1132,5.1069,5.1005,5.1005,5.1005,5.0981,5.0924,5.0923,5.0952,5.0859,5.0839,5.0827,5.0828,5.0836,5.0863,5.101,5.1014,5.1024,5.1125,5.1049,5.1047,5.1301,5.1397,5.1694,5.2508,0.0,0.0,0.0,0.0,0.0,0.0,5.6021,5.6382,5.6407,5.6347,5.6297,5.6261,5.6247,5.6242,5.6254,5.6244,5.6397,5.6738,5.7288,5.8146,5.9313,5.9939,6.0634,6.1461,6.1586,6.164,6.164,6.1687,6.1704,6.1699,6.1699,6.1699,6.1699,6.1699,6.1699,6.1699,6.1699,6.1699,6.1699,6.1699,6.1699,6.1699,6.1699,6.1699,6.1699,5.1394,5.1433,5.1472,0.0,5.1492,5.1453,5.1453,5.1503,5.1534,0.0,5.152,5.1529,5.1528,5.1476,5.1453,5.1528,5.1526,5.1493,5.1452,5.1328,0.0,0.0,5.1063,5.1002,5.0996,0.0,0.0,0.0,0.0,0.0,0.0,0.0,0.0,0.0,5.1394,0.0,5.1394,5.1394,5.1391,5.1364,5.1241,5.1091,5.0984,5.0984,5.0984,5.0987,5.0993,5.099,5.0984,5.0984,5.0984,5.0966,5.0909,5.0883,5.087,5.0745,5.0707,5.0702,5.072,5.0797,5.0946,5.1128,5.1206,5.1275,5.1318,5.1278,5.1425,5.2121,5.2371,5.268,5.3426,5.3735,0.0,0.0,0.0,0.0,0.0,5.6491,5.6525,5.6582,5.6422,5.629,5.6238,5.6264,5.6281,5.6215,5.6269,5.6693,5.7576,5.7656,5.8455,6.0168,6.0312,6.0763,6.159,6.1679,6.1709,6.1708,6.1701,6.1692,6.1699,6.1699,6.1699,6.1699,6.1699,6.1699,6.1699,6.1699,6.1699,6.1699,6.1758,6.1797,6.1816,6.1777,6.1758,6.1777,5.1392,5.1921,5.2566,5.3229,5.28,5.2371,5.2371,5.2927,5.3305,0.0,5.3259,5.3261,5.3264,5.3239,5.3245,5.3265,5.3163,0.0,0.0,0.0,0.0,5.1014,5.0991,5.0979,5.0935,5.1118,5.1201,5.1201,0.0,0.0,5.1394,0.0,0.0,0.0,0.0,5.1394,5.1394,5.1394,5.1289,5.1103,5.1008,5.0898,5.0778,5.0778,5.0778,5.0799,5.089,5.0855,5.0778,5.0778,5.0778,5.0773,5.0763,5.0749,5.074,5.0707,5.0707,5.0712,5.0819,5.0862,5.1108,5.1929,5.2085,5.2202,5.2959,5.3004,5.293,5.3123,5.3189,5.3495,5.4387,5.4575,5.4937,0.0,0.0,0.0,0.0,5.6579,5.6581,5.6601,5.6542,5.6517,5.6505,5.6465,5.646,5.6482,5.6414,5.6807,5.7764,5.8396,5.9217,6.0309,6.0996,6.1444,6.1679,6.169,6.1701,6.1701,6.1691,6.1703,6.1699,6.1699,6.1699,6.1699,6.1699,6.1699,6.1699,6.1699,6.1699,6.1758,6.2402,6.3067,6.3556,6.2911,6.2676,6.2755,5.2545,5.2936,5.3424,5.3912,5.385,5.3601,5.3316,5.3653,5.3948,5.3901,5.3903,5.387,5.3772,5.3764,5.3732,5.3655,5.3594,0.0,5.2961,0.0,0.0,5.1471,5.1405,5.1219,5.0819,5.0988,0.0,5.1101,0.0,0.0,5.1394,0.0,0.0,0.0,0.0,5.1302,5.13,5.125,5.1327,5.1488,5.1444,5.1571,0.0,5.1779,5.1779,5.1799,5.1869,5.1379,5.0745,5.1106,5.1221,5.1298,5.1664,5.1779,5.1779,5.1779,5.1833,5.1891,5.197,5.2052,5.228,5.2919,5.3009,5.3103,5.3663,5.3663,5.3645,5.4036,5.4132,5.443,5.5339,5.558,5.5831,0.0,0.0,0.0,0.0,5.6601,5.6601,5.6601,5.66,5.6599,5.66,5.6913,5.6947,5.6539,5.7202,5.7869,5.8397,5.9215,6.0073,6.0933,6.1435,6.1706,6.1709,6.1697,6.1693,6.1697,6.1705,6.1699,6.1699,6.1699,6.1699,6.1699,6.1699,6.1699,6.1738,6.2109,6.2265,6.2343,6.3223,6.3868,6.4298,6.4179,6.3906,6.3634,5.4146,5.4166,5.4203,0.0,5.4775,5.4942,5.4343,5.4206,5.416,5.416,5.4158,5.411,5.3925,5.3913,5.3843,5.368,5.3703,5.3697,5.3658,5.3522,5.3095,5.2273,5.2136,5.1697,5.0861,5.0994,5.1043,0.0,0.0,0.0,0.0,0.0,0.0,0.0,0.0,0.0,0.0,5.1147,5.1508,5.2112,5.2204,5.2621,5.3197,5.3197,5.3197,5.3197,5.3197,5.226,5.113,5.1832,5.2077,5.2197,5.2967,5.3197,5.3197,5.3197,5.3295,5.3399,5.3428,5.3563,5.374,5.3956,5.3987,5.3987,5.4104,5.4024,5.4152,5.4915,5.5112,5.5418,5.6188,5.6479,5.6601,0.0,0.0,5.6601,5.6601,5.6601,5.6601,5.66,5.6599,0.0,5.6769,5.7456,5.7539,5.6669,5.8202,5.9217,5.9269,5.9994,6.0795,6.1669,6.17,6.1699,6.1706,6.1709,6.1705,6.1696,6.1705,6.1699,6.1699,6.1699,6.1699,6.1719,6.1816,6.1875,6.1934,6.2813,6.3243,6.3418,6.4161,6.4527,6.4696,6.5456,6.5237,6.4569,5.4926,5.5065,0.0,0.0,5.5952,5.5919,5.5676,5.5587,5.5558,5.5558,5.554,5.5556,5.5583,5.5583,5.5587,5.561,5.5518,5.5152,5.4454,5.4333,5.3917,5.3041,5.2987,5.2563,5.1717,5.1812,5.1597,0.0,5.1137,0.0,0.0,0.0,0.0,0.0,0.0,0.0,5.1067,5.1665,5.1985,5.2158,5.2762,5.3079,5.3197,5.3197,5.3197,5.3197,5.3197,5.301,5.2779,5.2909,5.2967,5.3005,5.314,5.3197,5.3197,5.3197,5.3268,5.3344,5.3524,5.3628,5.3925,5.4815,5.4918,5.4981,5.5704,5.58,5.5786,5.5942,5.6024,5.6157,5.6428,5.6533,5.6601,5.6601,5.6601,5.6601,5.6601,5.6601,5.6601,5.66,5.6597,5.6887,5.7608,5.7805,5.7826,5.7653,5.8565,5.942,6.0127,6.0312,6.0796,6.1661,6.1709,6.1704,6.1705,6.1702,6.1701,6.1703,6.1701,6.1699,6.1699,6.1699,6.1699,6.1738,6.2461,6.2774,6.2833,6.3712,6.4493,6.5155,6.5312,6.5709,6.621,6.6366,6.6213,6.5959,5.5883,0.0,0.0,0.0,5.6192,5.6037,5.5868,5.574,5.5691,5.5881,5.5925,5.5919,5.5849,5.5882,5.5864,5.5803,5.5724,5.5534,5.5146,5.5093,5.4709,5.3914,5.3876,5.3472,5.2582,5.2194,5.185,5.1571,5.1221,0.0,0.0,0.0,0.0,5.1106,0.0,5.1595,0.0,5.232,5.2939,5.3374,5.3724,5.4126,5.4491,5.4491,5.4491,5.4491,5.4491,5.4491,5.4434,5.401,5.3876,5.3953,5.4376,5.4491,5.4512,5.4583,5.4703,5.4846,5.5006,5.5137,5.532,5.5808,5.5805,5.5782,5.6193,5.6247,5.6235,5.6331,5.6384,5.6428,5.653,5.658,5.6601,5.6601,5.6601,5.6601,5.6601,5.6992,5.7265,5.7264,5.7672,5.8099,5.8483,5.8874,5.8928,5.8558,5.9711,6.0432,6.0408,6.0834,6.126,6.1689,6.1703,6.1699,6.1699,6.1699,6.1699,6.1699,6.1699,6.1699,6.1699,6.1699,6.1953,6.2402,6.2813,6.3262,6.3732,6.461,6.5468,6.6226,6.6152,6.6323,6.6585,6.6483,6.6345,6.6219,5.6781,5.6735,0.0,5.6236,5.6033,5.5864,5.566,5.5499,5.5489,5.5765,5.5831,5.5827,5.5679,5.571,5.5698,5.5562,5.5545,5.5562,5.5613,5.5618,5.5366,5.478,5.4761,5.4357,5.3491,5.2794,5.243,5.2383,5.1563,5.1201,5.1274,0.0,0.0,5.1267,5.1807,5.2091,5.2236,5.3101,5.3876,5.4511,5.4684,5.5126,5.5708,5.5708,5.5708,5.5708,5.5708,5.5708,5.5593,5.4972,5.4761,5.4867,5.553,5.5743,5.5774,5.5913,5.6071,5.6225,5.6356,5.65,5.6578,5.6516,5.6407,5.629,5.629,5.6268,5.628,5.647,5.6515,5.6548,5.6582,5.6601,5.6601,5.6601,5.6758,5.6875,5.6875,5.7637,5.8183,5.8182,5.8766,5.9231,5.9357,5.9871,6.0042,5.9645,6.0887,6.1377,6.0705,6.1338,6.169,6.1699,6.1699,6.1699,6.1699,6.1699,6.1699,6.1699,6.1699,6.1797,6.1973,6.1973,6.2441,6.3282,6.3477,6.4043,6.4883,6.5565,6.6203,6.6751,6.6644,6.6563,6.6465,6.6326,6.6181,6.6062,5.7408,0.0,5.6858,5.5929,5.5741,5.5654,5.5461,5.5403,5.5416,5.5447,5.5451,5.5473,5.5508,5.5585,5.5635,5.5687,5.5673,5.5673,5.5698,5.5698,5.5665,5.5593,5.5593,5.5208,5.4395,5.4299,5.3938,5.3272,5.2402,5.2043,5.2164,5.1371,5.1363,5.1993,5.1948,5.2347,5.314,5.401,5.4434,5.4549,5.5285,5.5631,5.5708,5.5708,5.5708,5.5708,5.5708,5.5708,5.5689,5.5612,5.5593,5.5625,5.5811,5.5872,5.5924,5.6104,5.6197,5.6232,5.6352,5.6442,5.6513,5.6508,5.6407,5.629,5.629,5.6303,5.6324,5.6477,5.6553,5.6582,5.6601,5.6601,5.6601,5.6601,5.7265,5.7773,5.7773,5.8534,5.908,5.908,5.9091,5.9414,6.0194,6.0228,6.0499,6.1214,6.1431,6.1543,6.158,6.1661,6.1701,6.1699,6.1699,6.1699,6.1699,6.1699,6.1699,6.1699,6.1699,6.2109,6.2872,6.2872,6.334,6.422,6.5019,6.5819,6.6562,6.666,6.6663,6.6627,6.6595,6.6411,6.6143,6.6124,6.6036,6.5922,5.7427,5.723,5.6888,5.5885,5.6105,5.6346,5.6142,5.6569,5.6906,5.6971,5.6071,5.5474,5.5498,5.5596,5.5662,5.5703,5.5708,5.5708,5.5708,5.5708,5.5708,5.5708,5.5708,5.5555,5.5228,5.4741,5.4359,5.4053,5.3186,5.2779,5.2835,5.2488,5.2487,5.2757,5.2694,5.3159,5.403,5.4876,5.5228,5.5247,5.5574,5.5708,5.5708,5.5708,5.5708,5.5708,5.5708,5.5708,5.5705,5.5794,5.5817,5.5832,5.5885,5.5975,5.6113,5.6278,5.632,5.6347,5.6479,5.6533,5.6554,5.6515,5.6454,5.6416,5.6416,5.6416,5.6454,5.6533,5.6581,5.6601,5.6601,5.7031,5.7383,5.7383,5.8105,5.8672,5.8672,5.9394,5.9921,5.9921,6.0369,6.0795,6.1159,6.0992,6.1044,6.1468,6.149,6.1526,6.158,6.1661,6.1699,6.1699,6.1699,6.1699,6.1699,6.1699,6.1699,6.1719,6.2226,6.2657,6.3028,6.3537,6.4259,6.5136,6.5956,6.6504,6.6794,6.6713,6.665,6.6579,6.6379,6.6212,6.6093,6.6011,6.5952,6.5904,5.7606,5.7414,5.7173,5.6467,5.6826,5.7155,5.699,5.7524,5.7959,5.7985,5.6994,5.6205,5.5936,5.6014,5.5978,5.5728,5.5708,5.5708,5.5708,5.5708,5.5708,5.5708,5.5708,5.5708,5.5708,5.5151,5.4857,5.4857,5.3991,5.3587,5.3587,5.3313,5.3332,5.3587,5.3587,5.4068,5.4895,5.5458,5.5708,5.5708,5.5708,5.5708,5.5708,5.5708,5.5708,5.5708,5.5708,5.5708,5.5721,5.5849,5.5934,5.5998,5.6027,5.6139,5.6293,5.6426,5.6461,5.6482,5.6579,5.6601,5.6581,5.6518,5.6507,5.6507,5.6507,5.6507,5.6519,5.6581,5.6797,5.6973,5.6973,5.7695,5.8281,5.8281,5.9004,5.9551,5.9551,6.0254,6.0761,6.0738,6.1262,6.1646,6.1632,6.1419,6.1334,6.1486,6.149,6.149,6.149,6.1588,6.1663,6.1698,6.1699,6.1699,6.1699,6.1699,6.1836,6.209,6.2716,6.3262,6.3789,6.4649,6.5371,6.5975,6.6543,6.6787,6.6725,6.6644,6.6532,6.6422,6.6181,6.6086,6.6025,6.5927,6.5904,6.5904,5.8189,5.7946,5.7881,5.7874,5.7874,5.7893,5.7886,5.7946,5.7992,5.7992,5.8105,5.7843,5.6984,5.6945,5.6632,5.5785,5.5708,5.5708,5.5708,5.5708,5.5708,5.5708,5.5708,5.5708,5.5708,5.5689,5.5689,5.5689,5.4876,5.4472,5.4472,5.3606,5.3664,5.4472,5.4472,5.4934,5.5689,5.5708,5.5708,5.5708,5.5708,5.5708,5.5708,5.5708,5.5708,5.5708,5.5708,5.5708,5.5721,5.5849,5.6036,5.6225,5.6351,5.6393,5.6424,5.6553,5.6601,5.6601,5.6601,5.6601,5.6581,5.6518,5.6507,5.6507,5.6507,5.6507,5.6519,5.6581,5.7285,5.7871,5.7871,5.8594,5.918,5.918,5.9863,6.039,6.039,6.1132,6.1632,6.1493,6.1492,6.1506,6.1506,6.1328,6.1289,6.1483,6.149,6.149,6.149,6.149,6.1553,6.1697,6.1699,6.1699,6.1699,6.1699,6.2129,6.2989,6.2989,6.3906,6.5604,6.6406,6.6777,6.6796,6.6796,6.672,6.6595,6.6592,6.6401,6.6113,6.6108,6.6027,6.5904,6.5904,6.5904,6.5904,5.8927,5.8741,5.8555,5.8001,5.8345,5.8721,5.8782,5.9299,5.9734,5.983,5.988,5.9589,5.8771,5.8192,5.753,5.6651,5.6593,5.6324,5.5747,5.5708,5.5708,5.5708,5.5708,5.5708,5.5708,5.5708,5.5708,5.5708,5.5439,5.5324,5.5304,5.4472,5.453,5.5285,5.4741,5.4953,5.5708,5.5708,5.5708,5.5708,5.5708,5.5708,5.5708,5.5708,5.5708,5.5708,5.5708,5.5769,5.5859,5.6035,5.6214,5.6358,5.6491,5.6546,5.6531,5.6598,5.6601,5.6601,5.6601,5.6601,5.6582,5.6579,5.6578,5.6578,5.6578,5.7028,5.7459,5.748,5.8183,5.8789,5.8789,5.9453,6.0019,6.0019,6.0723,6.1289,6.1289,6.1523,6.1676,6.1585,6.1613,6.1554,6.1386,6.1307,6.1232,6.1163,6.1066,6.1158,6.1478,6.1586,6.1661,6.1698,6.1699,6.1992,6.2579,6.2598,6.3028,6.3888,6.4481,6.5344,6.6436,6.667,6.6803,6.6794,6.6707,6.6644,6.6579,6.6353,6.6205,6.6093,6.5994,6.5933,6.5904,6.5904,6.5904,6.5904,5.9217,5.9102,5.9045,5.8861,5.9282,5.9641,5.9676,6.0188,6.0617,6.0685,6.0716,6.0547,6.0044,5.9531,5.8761,5.7594,5.7497,5.7113,5.6247,5.6189,5.6035,5.5708,5.5708,5.5708,5.5708,5.5708,5.5708,5.5708,5.5708,5.5708,5.5689,5.5189,5.5228,5.5689,5.517,5.5228,5.5708,5.5708,5.5708,5.5708,5.5708,5.5708,5.5708,5.5708,5.5708,5.5708,5.5708,5.5779,5.5924,5.6123,5.6285,5.6426,5.6554,5.66,5.6601,5.6601,5.6601,5.6601,5.6601,5.6601,5.6601,5.6601,5.6855,5.7168,5.75,5.8008,5.8398,5.8398,5.9062,5.9648,5.9648,6.0332,6.0898,6.0898,6.1348,6.1699,6.1699,6.1678,6.1625,6.1493,6.1508,6.1441,6.1233,6.1211,6.1182,6.1079,6.1066,6.1186,6.1481,6.1513,6.1572,6.1698,6.2012,6.2445,6.2997,6.3328,6.3935,6.4799,6.564,6.6304,6.6791,6.6808,6.6772,6.6718,6.6641,6.6524,6.6394,6.6195,6.6076,6.6022,6.5927,6.5904,6.5904,6.5904,6.5904,6.5904,5.9198,5.9198,5.9453,6.0262,6.0458,6.0505,6.0505,6.0629,6.0697,6.0717,6.0752,6.0806,6.0806,6.0806,6.0165,5.8607,5.8409,5.8011,5.7151,5.7093,5.6689,5.5824,5.5785,5.5766,5.5708,5.5708,5.5708,5.5708,5.5708,5.5708,5.5708,5.5708,5.5708,5.5708,5.5708,5.5708,5.5708,5.5708,5.5708,5.5708,5.5708,5.5708,5.5708,5.5708,5.5708,5.5708,5.5708,5.5784,5.5932,5.6126,5.6299,5.6441,5.6633,5.6699,5.668,5.6621,5.664,5.6699,5.6699,5.6738,5.6777,5.6777,5.7383,5.8203,5.9023,5.9238,5.9277,5.9277,5.9922,6.0488,6.0488,6.1152,6.1699,6.1699,6.1699,6.1699,6.1699,6.1648,6.154,6.1335,6.125,6.1182,6.1094,6.1094,6.1126,6.117,6.1345,6.1493,6.1561,6.1407,6.1459,6.1775,6.258,6.3055,6.3183,6.3983,6.4827,6.5694,6.6447,6.6813,6.6812,6.6802,6.6722,6.6592,6.6585,6.6397,6.6108,6.6093,6.6016,6.5904,6.5904,6.5904,6.5904,6.5904,6.5904,6.5904,6.009,6.009,6.0167,6.0358,6.0458,6.0519,6.0571,6.0655,6.071,6.0777,6.0794,6.0806,6.0806,6.0806,6.0633,6.0242,5.9608,5.8877,5.805,5.7992,5.7607,5.6728,5.6689,5.6382,5.5708,5.5708,5.5708,5.5708,5.5708,5.5708,5.5708,5.5708,5.5708,5.5708,5.5708,5.5708,5.5708,5.5708,5.5708,5.5708,5.5708,5.5708,5.5708,5.5708,5.5708,5.5708,5.5708,5.5827,5.5993,5.6141,5.6322,5.6609,5.7361,5.7597,5.7461,5.6797,5.707,5.7598,5.7598,5.8086,5.8574,5.8574,5.873,5.8945,5.914,5.9687,6.0117,6.0117,6.0801,6.1387,6.1387,6.1562,6.1699,6.1699,6.1699,6.1699,6.1699,6.1648,6.1543,6.1398,6.1362,6.1271,6.1051,6.1069,6.1035,6.0906,6.103,6.1442,6.2231,6.2354,6.2495,6.2689,6.2892,6.3639,6.4969,6.5183,6.5733,6.6597,6.6787,6.6881,6.6861,6.6813,6.6732,6.6587,6.6432,6.627,6.6093,6.5996,6.594,6.5904,6.5904,6.5904,6.5904,6.5904,6.5904,6.5904,6.0396,6.0396,6.041,6.0438,6.0505,6.0571,6.0642,6.0691,6.0765,6.08,6.0806,6.0806,6.0806,6.0806,6.0806,6.0806,6.0358,5.9742,5.8896,5.8858,5.8473,5.7632,5.7588,5.719,5.6305,5.6285,5.6093,5.5708,5.5708,5.5708,5.5708,5.5708,5.5708,5.5708,5.5708,5.5708,5.5708,5.5708,5.5708,5.5708,5.5708,5.5708,5.5708,5.5708,5.5708,5.5689,5.5735,5.5855,5.6089,5.662,5.6905,5.7218,5.8182,5.8496,5.8398,5.793,5.8125,5.8496,5.8496,5.8848,5.9297,5.9668,5.9746,5.9844,6.0254,6.0683,6.0996,6.0996,6.1367,6.1699,6.1699,6.1699,6.1699,6.1699,6.1699,6.1699,6.1699,6.1595,6.1488,6.1419,6.1324,6.1197,6.1023,6.1036,6.0972,6.0804,6.1315,6.189,6.2468,6.3076,6.3455,6.3597,6.3973,6.464,6.5581,6.5992,6.6424,6.6894,6.6816,6.6759,6.6757,6.6621,6.6502,6.6364,6.6254,6.6138,6.5999,6.5921,6.5904,6.5904,6.5904,6.5904,6.5904,6.5904,6.5904,6.5904,6.0396,6.0403,6.0431,6.0492,6.0565,6.0623,6.0685,6.0765,6.0806,6.0806,6.0806,6.0806,6.0806,6.0806,6.0806,6.0806,6.0806,6.0492,5.9742,5.9704,5.9338,5.8525,5.8486,5.8088,5.7228,5.7209,5.6824,5.6088,5.5958,5.5901,5.5882,5.5766,5.5708,5.5708,5.5708,5.5708,5.5708,5.5708,5.5708,5.5708,5.5708,5.5708,5.5708,5.5708,5.5708,5.5714,5.5771,5.5956,5.6308,5.7197,5.7658,5.8048,5.9058,5.9375,5.9414,5.9531,5.957,5.9551,5.9414,5.9473,5.9746,6.043,6.0605,6.0781,6.1523,6.1699,6.1699,6.1699,6.1699,6.1699,6.1699,6.1699,6.1699,6.1698,6.1699,6.1699,6.1657,6.1501,6.1405,6.1391,6.1225,6.108,6.1013,6.0997,6.0993,6.1014,6.1872,6.2543,6.2893,6.3785,6.4412,6.468,6.5286,6.5658,6.5757,6.6502,6.6853,6.6831,6.6676,6.6586,6.656,6.6384,6.6237,6.6108,6.6108,6.6019,6.5904,6.5904,6.5904,6.5904,6.5904,6.5904,6.5904,6.5904,6.5904,6.5897,6.0396,6.0444,6.0485,6.0499,6.0591,6.0679,6.0691,6.0765,6.0806,6.0806,6.0806,6.0806,6.0806,6.0806,6.0806,6.0806,6.0806,6.0748,6.0614,6.0589,6.0204,5.9358,5.9319,5.8934,5.8127,5.8107,5.803,5.7896,5.7151,5.6805,5.6786,5.6035,5.5708,5.5708,5.5708,5.5708,5.5708,5.5708,5.5708,5.5708,5.5708,5.5708,5.5708,5.5708,5.5708,5.5714,5.5771,5.6314,5.7056,5.7311,5.7995,5.8878,5.9823,6.0168,6.0351,6.1094,6.1308,6.1152,6.041,6.0742,6.1348,6.1465,6.1504,6.1523,6.168,6.1699,6.1699,6.1699,6.1699,6.1699,6.1699,6.1699,6.1678,6.162,6.1655,6.1635,6.1474,6.1411,6.138,6.1315,6.1192,6.1075,6.1016,6.1004,6.1276,6.1926,6.2245,6.3095,6.471,6.5049,6.5592,6.6464,6.5918,6.5894,6.6513,6.6651,6.6661,6.6554,6.6524,6.648,6.6432,6.6344,6.6237,6.6108,6.6108,6.6019,6.5904,6.5904,6.5904,6.5904,6.5904,6.5904,6.5904,6.5904,6.5904,6.5891,6.0451,6.0505,6.0571,6.061,6.0654,6.0703,6.0759,6.0788,6.0806,6.0806,6.0806,6.0806,6.0806,6.0806,6.0806,6.0806,6.0806,6.0806,6.0806,6.0806,6.0614,6.0223,6.0204,5.98,5.8954,5.8525,5.8294,5.8294,5.7896,5.7703,5.7684,5.728,5.7107,5.7107,5.7107,5.7107,5.7069,5.6593,5.6401,5.6362,5.5882,5.5708,5.5708,5.5708,5.5708,5.5777,5.6346,5.684,5.7366,5.8448,5.9168,5.9759,6.0709,6.1044,6.1172,6.1582,6.1699,6.1601,6.1211,6.1387,6.1699,6.1699,6.1699,6.1699,6.1699,6.1699,6.1699,6.1699,6.1699,6.1699,6.1699,6.1699,6.1699,6.1654,6.1678,6.1656,6.1537,6.1445,6.1373,6.1304,6.1175,6.108,6.1007,6.1001,6.1318,6.2146,6.2722,6.3643,6.5024,6.5627,6.6188,6.6727,6.6384,6.6367,6.6699,6.6635,6.6559,6.6493,6.6344,6.6259,6.6234,6.6119,6.6044,6.6001,6.6001,6.5956,6.5904,6.5904,6.5904,6.5904,6.5904,6.5904,6.5904,6.5904,6.5878,6.584,6.0525,6.0578,6.0648,6.0685,6.0703,6.0734,6.0794,6.0806,6.0806,6.0806,6.0806,6.0806,6.0806,6.0806,6.0806,6.0806,6.0806,6.0806,6.0806,6.0806,6.0806,6.0806,6.0806,6.0492,5.9819,5.9204,5.8877,5.8877,5.8684,5.8583,5.8563,5.8396,5.8294,5.8294,5.8294,5.8294,5.8256,5.7588,5.7305,5.7247,5.6574,5.6299,5.6305,5.6302,5.6307,5.6419,5.7206,5.7632,5.8037,5.9498,6.0187,6.0577,6.1292,6.1592,6.1677,6.1677,6.1698,6.1699,6.1699,6.1699,6.1699,6.1699,6.1699,6.1699,6.1699,6.1699,6.1699,6.1699,6.1699,6.1699,6.1699,6.1699,6.1699,6.1678,6.1699,6.1677,6.1576,6.1458,6.1373,6.1304,6.1175,6.1162,6.1317,6.1302,6.1726,6.2762,6.3498,6.4314,6.5273,6.6008,6.6461,6.6607,6.6647,6.667,6.6633,6.6513,6.6429,6.6385,6.6175,6.6069,6.6049,6.5956,6.5904,6.5904,6.5904,6.5904,6.5904,6.5904,6.5904,6.5904,6.5904,6.5904,6.5897,6.5878,6.584,6.5787,6.0591,6.0655,6.0691,6.0691,6.074,6.08,6.0806,6.0806,6.0806,6.0806,6.0806,6.0806,6.0806,6.0806,6.0806,6.0806,6.0806,6.0806,6.0806,6.0806,6.0806,6.0806,6.0806,6.0762,6.0704,6.0646,6.0614,6.0614,5.9819,5.9415,5.9396,5.864,5.8294,5.8294,5.8294,5.8294,5.8294,5.8223,5.8198,5.8198,5.8121,5.8107,5.8113,5.8115,5.8104,5.8133,5.8341,5.8916,5.964,5.9841,6.0491,6.123,6.1298,6.1461,6.161,6.161,6.1652,6.1699,6.1699,6.1699,6.1699,6.1699,6.1699,6.1699,6.1699,6.1699,6.1699,6.1699,6.1699,6.1699,6.1699,6.1699,6.1678,6.1616,6.1654,6.1633,6.1448,6.1417,6.1373,6.1304,6.1175,6.1423,6.2211,6.2249,6.2915,6.4667,6.48,6.5233,6.6241,6.6369,6.6461,6.6607,6.66,6.6555,6.6425,6.6353,6.6218,6.6044,6.6029,6.5977,6.5916,6.5891,6.5904,6.5904,6.5904,6.5904,6.5904,6.5904,6.5904,6.5904,6.5904,6.5904,6.5891,6.5826,6.58,6.5773,6.0654,6.0723,6.0752,6.0752,6.0788,6.0979,6.1518,6.1614,6.1787,6.23,6.2358,6.2358,6.2358,6.2358,6.2358,6.2358,6.1897,6.1614,6.1614,6.1095,6.0806,6.0806,6.0806,6.0806,6.0806,6.0806,6.0806,6.0806,6.0473,6.03,6.03,5.9992,5.9858,5.9858,5.9858,5.9858,5.98,5.9281,5.905,5.9006,5.8511,5.8294,5.8305,5.8294,5.8301,5.8394,5.906,5.952,5.9896,6.0446,6.0936,6.1306,6.1306,6.1442,6.1611,6.1651,6.1678,6.1699,6.1699,6.1699,6.1699,6.1699,6.1699,6.1699,6.1699,6.1699,6.1699,6.1699,6.1699,6.1699,6.1699,6.1699,6.1699,6.1675,6.1679,6.1656,6.1544,6.145,6.1587,6.2058,6.1989,6.2259,6.3115,6.3173,6.3676,6.4914,6.4971,6.5349,6.6239,6.6282,6.6299,6.6348,6.6348,6.6368,6.6408,6.6201,6.6079,6.6001,6.5971,6.5929,6.5904,6.5904,6.5904,6.5904,6.5904,6.5904,6.5904,6.5904,6.5904,6.5904,6.5904,6.5872,6.5833,6.5807,6.572,6.5592,6.0722,6.0777,6.0806,6.0806,6.1037,6.1402,6.1999,6.2306,6.2666,6.3237,6.3295,6.3295,6.3295,6.3295,6.3295,6.3295,6.2801,6.248,6.248,6.1916,6.1358,6.0825,6.0806,6.0806,6.0806,6.0806,6.0806,6.0806,6.0806,6.0806,6.0806,6.0806,6.0806,6.0806,6.0806,6.0806,6.0768,6.0165,5.9915,5.9858,5.9319,5.91,5.9122,5.9149,5.9143,5.9232,5.9959,6.022,6.0302,6.0891,6.1169,6.1233,6.1233,6.139,6.155,6.1631,6.1679,6.1699,6.1699,6.1699,6.1699,6.1699,6.1699,6.1699,6.1699,6.1699,6.1699,6.1699,6.1699,6.1699,6.1699,6.1699,6.1699,6.1699,6.1933,6.2089,6.2056,6.2148,6.2418,6.2974,6.2895,6.3149,6.4024,6.4101,6.445,6.532,6.5378,6.5629,6.6166,6.6205,6.6205,6.6205,6.6189,6.6211,6.6306,6.61,6.5996,6.5998,6.5934,6.5904,6.5904,6.5904,6.5904,6.5904,6.5904,6.5904,6.5904,6.5904,6.5904,6.5897,6.5878,6.584,6.5787,6.5727,6.5625,6.5494,6.0806,6.0806,6.0806,6.0806,6.1537,6.2114,6.212,6.2801,6.3314,6.3314,6.3314,6.3314,6.3314,6.3314,6.3314,6.3314,6.3314,6.3314,6.3295,6.3295,6.2564,6.0896,6.0806,6.0806,6.0806,6.0806,6.0806,6.0806,6.0806,6.0806,6.0806,6.0806,6.0806,6.0806,6.0806,6.0806,6.0806,6.0806,6.0806,6.0806,6.0806,6.0841,6.0916,6.0971,6.099,6.1012,6.108,6.1099,6.1099,6.1099,6.1099,6.1099,6.1099,6.1246,6.1431,6.1569,6.165,6.1699,6.1699,6.1699,6.1699,6.1699,6.1699,6.1699,6.1699,6.1699,6.1699,6.1699,6.1699,6.1699,6.1719,6.1719,6.1719,6.1719,6.2441,6.3008,6.3008,6.3579,6.4001,6.4001,6.3825,6.4043,6.4914,6.5011,6.5339,6.6147,6.6205,6.6205,6.6205,6.6205,6.6205,6.6205,6.6128,6.6096,6.6096,6.6036,6.5998,6.6002,6.5935,6.5904,6.5904,6.5904,6.5904,6.5904,6.5904,6.5904,6.5904,6.5904,6.5904,6.5891,6.582,6.5793,6.5773,6.5571,6.5494,6.5479,6.0806,6.1287,6.171,6.171,6.2397,6.3147,6.3762,6.407,6.4436,6.5032,6.5128,6.5128,6.5128,6.5128,6.5128,6.5128,6.457,6.3948,6.3333,6.3295,6.3083,6.2583,6.2012,6.1422,6.0806,6.0806,6.0806,6.0806,6.0806,6.0806,6.0806,6.0806,6.0806,6.0806,6.0806,6.0806,6.0806,6.0806,6.0829,6.0863,6.0863,6.0916,6.0976,6.0995,6.1006,6.1012,6.108,6.1099,6.1099,6.1099,6.1099,6.1122,6.1217,6.128,6.1373,6.1556,6.1614,6.1647,6.1698,6.1699,6.1699,6.1699,6.1699,6.1699,6.1699,6.1699,6.1699,6.1699,6.1699,6.1894,6.25,6.2617,6.2812,6.3418,6.373,6.3906,6.3906,6.3952,6.4235,6.4834,6.4734,6.4933,6.576,6.5837,6.5934,6.6185,6.6205,6.6205,6.6205,6.6205,6.6205,6.6205,6.6128,6.608,6.6036,6.6017,6.6001,6.6002,6.5935,6.5904,6.5904,6.5904,6.5904,6.5904,6.5904,6.5904,6.5904,6.5904,6.5904,6.5891,6.582,6.5741,6.5613,6.5218,6.5057,6.4966,6.1306,6.1999,6.257,6.257,6.3262,6.3987,6.4532,6.4897,6.5301,6.582,6.5904,6.5904,6.5904,6.5904,6.5904,6.5904,6.5416,6.4897,6.4359,6.4339,6.4166,6.3833,6.3339,6.2685,6.182,6.1781,6.1627,6.1306,6.1306,6.1133,6.0806,6.0806,6.0806,6.0806,6.0806,6.0806,6.0806,6.0806,6.0835,6.0911,6.0911,6.0941,6.0995,6.0992,6.1017,6.1036,6.1084,6.1099,6.1099,6.1099,6.1099,6.1117,6.1196,6.1256,6.1321,6.1451,6.1548,6.1611,6.1651,6.1932,6.2207,6.2207,6.1953,6.1797,6.2148,6.2207,6.2305,6.2656,6.2734,6.289,6.3418,6.3515,6.3691,6.4219,6.459,6.4805,6.4805,6.4945,6.5229,6.575,6.5603,6.5668,6.6147,6.6205,6.6205,6.6205,6.6205,6.6205,6.6205,6.6205,6.6205,6.6205,6.6107,6.6047,6.6007,6.5964,6.5966,6.5966,6.5923,6.5904,6.5904,6.5904,6.5904,6.5904,6.5904,6.5904,6.5904,6.5904,6.5885,6.584,6.5573,6.5431,6.5264,6.4763,6.4557,6.4483,6.221,6.2858,6.3429,6.3429,6.4141,6.4724,6.4724,6.5397,6.5904,6.5904,6.5904,6.5904,6.5904,6.5904,6.5904,6.5904,6.5904,6.5904,6.5904,6.5904,6.5551,6.4743,6.4724,6.4339,6.3545,6.3372,6.2935,6.221,6.221,6.1768,6.0921,6.0921,6.0864,6.0806,6.0806,6.0806,6.0806,6.0812,6.0846,6.0916,6.0903,6.0953,6.1012,6.1012,6.1061,6.1099,6.1099,6.1099,6.1099,6.1099,6.1099,6.1099,6.1099,6.118,6.1308,6.1381,6.1556,6.1716,6.1798,6.2451,6.3125,6.3125,6.2519,6.2148,6.2949,6.3125,6.334,6.414,6.4297,6.4316,6.4394,6.4414,6.4433,6.4512,6.5195,6.5723,6.5723,6.6233,6.6592,6.6592,6.6364,6.6205,6.6205,6.6205,6.6205,6.6205,6.6205,6.6205,6.6205,6.6205,6.6205,6.6205,6.6069,6.6007,6.6007,6.5927,6.5904,6.5904,6.5904,6.5904,6.5904,6.5859,6.5846,6.5846,6.5801,6.5788,6.5788,6.5781,6.5742,6.562,6.5132,6.4882,6.4763,6.4235,6.4055,6.4045,6.3051,6.3724,6.4314,6.4314,6.5032,6.5609,6.5609,6.5788,6.5904,6.5904,6.5904,6.5904,6.5904,6.5904,6.5904,6.5904,6.5904,6.5904,6.5904,6.5904,6.582,6.5628,6.5609,6.5532,6.534,6.4006,6.3218,6.3051,6.3051,6.2627,6.1826,6.1826,6.1441,6.0806,6.0806,6.0806,6.0806,6.0852,6.0922,6.0976,6.099,6.1026,6.108,6.108,6.1089,6.1099,6.1099,6.1099,6.1099,6.1099,6.1099,6.1099,6.1099,6.1126,6.1309,6.2082,6.2396,6.2612,6.3366,6.3779,6.4023,6.4023,6.3887,6.3789,6.3984,6.4023,6.4062,6.4258,6.4297,6.4512,6.5195,6.5312,6.5547,6.623,6.6484,6.6621,6.6621,6.6604,6.6592,6.6592,6.6364,6.6205,6.6205,6.6205,6.6205,6.6205,6.6205,6.6205,6.6205,6.6205,6.6205,6.6205,6.6069,6.6007,6.6007,6.5927,6.5904,6.5904,6.5904,6.5904,6.5891,6.5568,6.5441,6.5407,6.5097,6.4965,6.4957,6.4844,6.4793,6.4758,6.4481,6.437,6.4284,6.3806,6.3627,6.3684,6.391,6.4628,6.5224,6.5224,6.559,6.5904,6.5904,6.5904,6.5904,6.5904,6.5904,6.5904,6.5904,6.5904,6.5904,6.5904,6.5904,6.5904,6.5904,6.5904,6.5904,6.5904,6.5904,6.5904,6.5904,6.5013,6.4339,6.391,6.391,6.3493,6.2666,6.2666,6.2435,6.1973,6.1595,6.1414,6.1405,6.1054,6.0941,6.1,6.0992,6.1036,6.1099,6.1099,6.1099,6.1099,6.1099,6.1099,6.1099,6.1099,6.1389,6.1713,6.1713,6.2008,6.2438,6.2963,6.322,6.3433,6.3926,6.4489,6.4922,6.4922,6.5234,6.543,6.5019,6.4922,6.5039,6.5449,6.5547,6.5683,6.6133,6.6211,6.6367,6.6836,6.6894,6.6894,6.6894,6.6721,6.6592,6.6592,6.6364,6.6205,6.6205,6.6205,6.6205,6.6205,6.6205,6.6205,6.6205,6.6205,6.6194,6.6144,6.6058,6.5996,6.6005,6.5934,6.5795,6.5615,6.5615,6.5615,6.5608,6.5195,6.5006,6.499,6.4786,6.4708,6.4699,6.4554,6.4481,6.4426,6.4049,6.3894,6.3808,6.3342,6.344,6.3829,6.482,6.5397,6.5904,6.5904,6.5904,6.5904,6.5904,6.5904,6.5904,6.5904,6.5904,6.5904,6.5904,6.5904,6.5904,6.5904,6.5904,6.5904,6.5904,6.5904,6.5904,6.5904,6.5904,6.5904,6.5904,6.5904,6.5557,6.4839,6.4839,6.4396,6.3562,6.3562,6.3485,6.3312,6.2644,6.2346,6.2295,6.1478,6.1171,6.122,6.107,6.1041,6.1099,6.1099,6.1099,6.1099,6.1099,6.1195,6.135,6.1485,6.2027,6.2627,6.2627,6.3139,6.3752,6.3907,6.4074,6.4263,6.4419,6.5122,6.582,6.582,6.6367,6.6719,6.5996,6.582,6.6035,6.6758,6.6894,6.6894,6.6894,6.6894,6.6894,6.6894,6.6894,6.6894,6.6894,6.6721,6.6592,6.6592,6.6364,6.6205,6.6205,6.6205,6.6205,6.6205,6.6205,6.6205,6.6205,6.6205,6.6179,6.6102,6.6041,6.5998,6.6002,6.5872,6.5629,6.5291,6.5164,6.514,6.518,6.4796,6.461,6.4601,6.4519,6.4482,6.4473,6.4313,6.4207,6.4116,6.3645,6.3427,6.3356,6.3113,6.3576,6.4323,6.5724,6.582,6.5904,6.5904,6.5904,6.5904,6.5904,6.5904,6.5904,6.5904,6.5904,6.5904,6.5904,6.5904,6.5904,6.5904,6.5904,6.5904,6.5904,6.5904,6.5904,6.5904,6.5904,6.5904,6.5904,6.5904,6.5871,6.5817,6.5817,6.5384,6.4607,6.4607,6.4183,6.3469,6.3354,6.3301,6.3254,6.2448,6.2112,6.205,6.138,6.1089,6.1099,6.1099,6.1099,6.1099,6.1099,6.1577,6.2332,6.3096,6.3424,6.3521,6.3521,6.3641,6.3922,6.4695,6.5052,6.5383,6.6122,6.6529,6.6719,6.6719,6.6816,6.6875,6.6758,6.6719,6.6758,6.6875,6.6894,6.6894,6.6894,6.6894,6.6894,6.6894,6.6894,6.6894,6.6894,6.6721,6.6592,6.6592,6.6364,6.6205,6.6205,6.6205,6.6205,6.6205,6.6205,6.6205,6.6205,6.6205,6.6179,6.6102,6.6041,6.5998,6.6002,6.5596,6.5356,6.5291,6.4658,6.4492,6.4769,6.4417,6.4261,6.4231,6.3774,6.3572,6.355,6.3303,6.3198,6.3163,6.2984,6.2898,6.2984,6.3656,6.4439,6.5233,6.5904,6.5904,6.5904,6.5904,6.5904,6.5904,6.5904,6.5904,6.5904,6.5904,6.5904,6.5904,6.5904,6.5904,6.5904,6.5904,6.5904,6.5904,6.5904,6.5904,6.5904,6.5904,6.5904,6.5904,6.5904,6.5904,6.5934,6.5992,6.6001,6.5827,6.5471,6.5481,6.5261,6.4875,6.4437,6.4246,6.4235,6.3387,6.3051,6.3042,6.2699,6.2554,6.2554,6.2554,6.2554,6.2554,6.2554,6.2805,6.3173,6.356,6.4024,6.443,6.443,6.4802,6.5327,6.5712,6.5966,6.6212,6.6601,6.6806,6.6894,6.6894,6.6894,6.6894,6.6894,6.6894,6.6894,6.6894,6.6894,6.6894,6.6894,6.6894,6.6894,6.6894,6.6894,6.6894,6.6894,6.6721,6.6543,6.6384,6.6277,6.6205,6.6205,6.6205,6.6205,6.6205,6.6205,6.6205,6.6205,6.6205,6.6144,6.6052,6.6019,6.5876,6.5616,6.5407,6.5084,6.4685,6.4349,6.4271,6.4417,6.4027,6.3854,6.3851,6.3531,6.34,6.3389,6.3111,6.3002,6.299,6.2842,6.3086,6.3631,6.4457,6.5283,6.6017]}]]